[[{"header":{"parameterUnit":"m.s-1","parameterCategory":1,"la1":31.0,"la2":29.5877,"lo1":-88.7671,"lo2":-86.6584,"dy":0.0162,"dx":0.0185,"nx":115,"ny":88,"refTime":"2023-08-25T06:00:00:Z","depth":0,"parameterNumber":2,"parameterNumberName":"U-component_of_WINDS"},"data":[0.0,0.0,0.0,0.0,0.0,0.0,0.0,0.0,0.0,0.0,0.0,0.0,0.0,0.0,0.0,0.0,0.0,0.0,0.0,0.0,0.0,0.0,0.0,0.0,0.0,0.0,0.0,0.0,0.0,0.0,0.0,0.0,0.0,0.0,0.0,0.0,0.0,0.0,0.0,0.0,0.0,0.0,0.0,0.0,0.0,0.0,0.0,0.0,0.0,0.0,0.0,0.0,0.0,0.0,0.0,0.0,0.0,0.0,0.0,0.0,0.0,0.0,0.0,0.0,0.0,0.0,0.0,0.0,0.0,0.0,0.0,0.0,0.0,0.0,0.0,0.0,0.0,0.0,0.0,0.0,0.0,0.0,0.0,0.0,0.0,0.0,0.0,0.0,0.0,0.0,0.0,0.0,0.0,0.0,0.0,0.0,0.0,0.0,0.0,0.0,0.0,0.0,0.0,0.0,0.0,0.0,0.0,0.0,0.0,0.0,0.0,0.0,0.0,0.0,0.0,0.0,0.0,0.0,0.0,0.0,0.0,0.0,0.0,0.0,0.0,0.0,0.0,0.0,0.0,0.0,0.0,0.0,0.0,0.0,0.0,0.0,0.0,0.0,0.0,0.0,0.0,0.0,0.0,0.0,0.0,0.0,0.0,0.0,0.0,0.0,0.0,0.0,0.0,0.0,0.0,0.0,0.0,0.0,0.0,0.0,0.0,0.0,0.0,0.0,0.0,0.0,0.0,0.0,0.0,0.0,0.0,0.0,0.0,0.0,0.0,0.0,0.0,0.0,0.0,0.0,0.0,0.0,0.0,0.0,0.0,0.0,0.0,0.0,0.0,0.0,0.0,0.0,0.0,0.0,0.0,0.0,0.0,0.0,0.0,0.0,0.0,0.0,0.0,0.0,0.0,0.0,0.0,0.0,0.0,0.0,0.0,0.0,0.0,0.0,0.0,0.0,0.0,0.0,0.0,0.0,0.0,0.0,0.0,0.0,0.0,0.0,0.0,0.0,0.0,0.0,0.0,0.0,0.0,0.0,0.0,0.0,0.0,0.0,0.0,0.0,0.0,0.0,0.0,0.0,0.0,0.0,0.0,0.0,0.0,0.0,0.0,0.0,0.0,0.0,0.0,0.0,0.0,0.0,0.0,0.0,0.0,0.0,0.0,0.0,0.0,0.0,0.0,0.0,0.0,0.0,0.0,0.0,0.0,0.0,0.0,0.0,0.0,0.0,0.0,0.0,0.0,0.0,0.0,0.0,0.0,0.0,0.0,0.0,0.0,0.0,0.0,0.0,0.0,0.0,0.0,0.0,0.0,0.0,0.0,0.0,0.0,0.0,0.0,0.0,0.0,0.0,0.0,0.0,0.0,0.0,0.0,0.0,0.0,0.0,0.0,0.0,0.0,0.0,0.0,0.0,0.0,0.0,0.0,0.0,0.0,0.0,0.0,0.0,0.0,0.0,0.0,0.0,0.0,0.0,0.0,0.0,0.0,0.0,0.0,0.0,0.0,0.0,0.0,0.0,0.0,0.0,0.0,0.0,0.0,0.0,0.0,0.0,0.0,0.0,0.0,0.0,0.0,0.0,0.0,0.0,0.0,0.0,0.0,0.0,0.0,0.0,0.0,0.0,0.0,0.0,0.0,0.0,0.0,0.0,0.0,0.0,0.0,0.0,0.0,0.0,0.0,0.0,0.0,0.0,0.0,0.0,0.0,0.0,0.0,0.0,0.0,0.0,0.0,0.0,0.0,0.0,0.0,0.0,0.0,0.0,0.0,0.0,0.0,0.0,0.0,0.0,0.0,0.0,0.0,0.0,0.0,0.0,0.0,0.0,0.0,0.0,0.0,0.0,0.0,0.0,0.0,0.0,0.0,0.0,0.0,0.0,0.0,0.0,0.0,0.0,0.0,0.0,0.0,0.0,0.0,0.0,0.0,0.0,0.0,0.0,0.0,0.0,0.0,0.0,0.0,0.0,0.0,0.0,0.0,0.0,0.0,0.0,0.0,0.0,0.0,0.0,0.0,0.0,0.0,0.0,0.0,0.0,0.0,0.0,0.0,0.0,0.0,0.0,0.0,0.0,0.0,0.0,0.0,0.0,0.0,0.0,0.0,0.0,0.0,0.0,0.0,0.0,0.0,0.0,0.0,0.0,0.0,0.0,0.0,0.0,0.0,0.0,0.0,0.0,0.0,0.0,0.0,0.0,0.0,0.0,0.0,0.0,0.0,0.0,0.0,0.0,0.0,0.0,0.0,0.0,0.0,0.0,0.0,0.0,0.0,0.0,0.0,0.0,0.0,0.0,0.0,0.0,0.0,0.0,0.0,0.0,0.0,0.0,0.0,0.0,0.0,0.0,0.0,0.0,0.0,0.0,0.0,0.0,0.0,0.0,0.0,0.0,0.0,0.0,0.0,0.0,0.0,0.0,0.0,0.0,0.0,0.0,0.0,0.0,0.0,0.0,0.0,0.0,0.0,0.0,0.0,0.0,0.0,0.0,0.0,0.0,0.0,0.0,0.0,0.0,0.0,0.0,0.0,0.0,0.0,0.0,0.0,0.0,0.0,0.0,0.0,0.0,0.0,0.0,0.0,0.0,0.0,0.0,0.0,0.0,0.0,0.0,0.0,0.0,0.0,0.0,0.0,0.0,0.0,0.0,0.0,0.0,0.0,0.0,0.0,0.0,0.0,0.0,0.0,0.0,0.0,0.0,0.0,0.0,0.0,0.0,0.0,0.0,0.0,0.0,0.0,0.0,0.0,0.0,0.0,0.0,0.0,0.0,0.0,0.0,0.0,0.0,0.0,0.0,0.0,0.0,0.0,0.0,0.0,0.0,0.0,0.0,0.0,0.0,0.0,0.0,0.0,0.0,0.0,0.0,0.0,0.0,0.0,0.0,0.0,0.0,0.0,0.0,0.0,0.0,0.0,0.0,0.0,0.0,0.0,0.0,0.0,0.0,0.0,0.0,0.0,0.0,0.0,0.0,0.0,0.0,0.0,0.0,0.0,0.0,0.0,0.0,0.0,0.0,0.0,0.0,0.0,0.0,0.0,0.0,0.0,0.0,0.0,0.0,0.0,0.0,0.0,0.0,0.0,0.0,0.0,0.0,0.0,0.0,0.0,0.0,0.0,0.0,0.0,0.0,0.0,0.0,0.0,0.0,0.0,0.0,0.0,0.0,0.0,0.0,0.0,0.0,0.0,0.0,0.0,0.0,0.0,0.0,0.0,0.0,0.0,0.0,0.0,0.0,0.0,0.0,0.0,0.0,0.0,0.0,0.0,0.0,0.0,0.0,0.0,0.0,0.0,0.0,0.0,0.0,0.0,0.0,0.0,0.0,0.0,0.0,0.0,0.0,0.0,0.0,0.0,0.0,0.0,0.0,0.0,0.0,0.0,0.0,0.0,0.0,0.0,0.0,0.0,0.0,0.0,0.0,0.0,0.0,0.0,0.0,0.0,0.0,0.0,0.0,0.0,0.0,0.0,0.0,0.0,0.0,0.0,0.0,0.0,0.0,0.0,0.0,0.0,0.0,0.0,0.0,0.0,0.0,0.0,0.0,0.0,0.0,0.0,0.0,0.0,0.0,0.0,0.0,0.0,0.0,0.0,0.0,0.0,0.0,0.0,0.0,0.0,0.0,0.0,0.0,0.0,0.0,0.0,0.0,0.0,0.0,0.0,0.0,0.0,0.0,0.0,0.0,0.0,0.0,0.0,0.0,0.0,0.0,0.0,0.0,0.0,0.0,0.0,0.0,0.0,0.0,0.0,0.0,0.0,0.0,0.0,0.0,0.0,0.0,0.0,0.0,0.0,0.0,0.0,0.0,0.0,0.0,0.0,0.0,0.0,0.0,0.0,0.0,0.0,0.0,0.0,0.0,0.0,0.0,0.0,0.0,0.0,0.0,0.0,0.0,0.0,0.0,0.0,0.0,0.0,0.0,0.0,0.0,0.0,0.0,0.0,0.0,0.0,0.0,0.0,0.0,0.0,0.0,0.0,0.0,0.0,0.0,0.0,0.0,0.0,0.0,0.0,0.0,0.0,0.0,0.0,0.0,0.0,0.0,0.0,0.0,0.0,0.0,0.0,0.0,0.0,0.0,0.0,0.0,0.0,0.0,0.0,0.0,0.0,0.0,0.0,0.0,0.0,0.0,0.0,0.0,0.0,0.0,0.0,0.0,0.0,0.0,0.0,0.0,0.0,0.0,0.0,0.0,0.0,0.0,0.0,0.0,0.0,0.0,0.0,0.0,0.0,0.0,0.0,0.0,0.0,0.0,0.7936,0.0,0.0,0.0,0.0,0.0,0.0,0.0,0.0,0.0,0.0,0.0,0.0,0.0,0.0,0.0,0.0,0.0,0.0,0.0,0.0,0.0,0.0,0.0,0.0,0.0,0.0,0.0,0.0,0.0,0.0,0.0,0.0,0.0,0.0,0.0,0.0,0.0,0.0,0.0,0.0,0.0,0.0,0.0,0.0,0.0,0.0,0.0,0.0,0.0,0.0,0.0,0.0,0.0,0.0,0.0,0.0,0.0,0.0,0.0,0.0,0.0,0.0,0.0,0.0,0.0,0.0,0.0,0.0,0.0,0.0,0.0,0.0,0.0,0.0,0.0,0.0,0.0,0.0,0.0,0.0,0.0,0.0,0.0,0.0,0.0,0.0,0.0,0.0,0.0,0.0,0.0,0.0,0.0,0.0,0.0,0.0,0.0,0.0,0.0,0.0,0.0,0.0,0.0,0.0,0.0,0.0,0.0,0.0,0.0,0.0,0.2593,0.3816,0.2363,0.2976,0.5851,0.0,0.0,0.0,0.0,0.0,0.0,0.0,0.0,0.0,0.0,0.0,0.0,0.0,0.0,0.0,0.0,0.0,0.0,0.0,0.0,0.0,0.0,0.0,0.0,0.0,0.0,0.0,0.0,0.0,0.0,0.0,0.0,0.0,0.0,0.0,0.0,0.0,0.0,0.0,0.0,0.0,0.0,0.0,0.0,0.0,0.0,0.0,0.0,0.0,0.0,0.0,0.0,0.0,0.0,0.0,0.0,0.0,0.0,0.0,0.0,0.0,0.0,0.0,0.0,0.0,0.0,0.0,0.0,0.0,0.0,0.0,0.0,0.0,0.0,0.0,0.0,0.0,0.0,0.0,0.0,0.0,0.0,0.0,0.0,0.0,0.0,0.0,0.0,0.0,0.0,0.0,0.0,0.0,0.0,0.0,0.0,0.0,0.0,0.0,0.0,0.0,0.0,0.0,0.0,0.0,0.0,0.0,0.0,0.0,0.0,0.0,0.0,-0.0632,-0.0681,0.1607,0.0,0.0,0.0,0.0,0.0,0.0,0.0,0.0,0.0,0.0,0.0,0.0,0.0,0.0,0.0,0.0,0.0,0.0,0.0,0.0,0.0,0.0,0.0,0.0,0.0,0.0,0.0,0.0,0.0,0.0,0.0,0.0,0.0,0.0,0.0,0.0,0.0,0.0,0.0,0.0,0.0,0.0,0.0,0.0,0.0,0.0,0.0,0.0,0.0,0.0,0.0,0.0,0.0,0.0,0.0,0.0,0.0,0.0,0.0,0.0,0.0,0.0,0.0,0.0,0.0,0.0,0.0,0.0,0.0,0.0,0.0,0.0,0.0,0.0,0.0,0.0,0.0,0.0,0.0,0.0,0.0,0.0,0.0,0.0,0.0,0.0,0.0,0.0,0.0,0.0,0.0,0.0,0.0,0.0,0.0,0.0,0.0,0.0,0.0,0.0,0.0,0.0,0.0,0.0,0.0,0.0,0.0,0.0,0.0,0.0,-0.3114,-0.2872,-0.5609,0.0,-0.7444,0.0,0.0,0.0,0.0,0.0,0.0,0.0,0.0,0.0,0.0,0.0,0.0,0.0,0.0,0.0,0.0,0.0,0.0,0.0,0.0,0.0,0.0,0.0,0.0,0.0,0.0,0.0,0.0,0.0,0.0,0.0,0.0,0.0,0.0,0.0,0.0,0.0,0.0,0.0,0.0,0.0,0.0,0.0,0.0,0.0,0.0,0.0,0.0,0.0,0.0,0.0,0.0,0.0,0.0,0.0,0.0,0.0,0.0,0.0,0.0,0.0,0.0,0.0,0.0,0.0,0.0,0.0,0.0,0.0,0.0,0.0,0.0,0.0,0.0,0.0,0.0,0.0,0.0,0.0,0.0,0.0,0.0,0.0,0.0,0.0,0.0,0.0,0.0,0.0,0.0,0.0,0.0,0.0,0.0,0.0,0.0,0.0,0.0,0.0,0.0,0.0,0.0,0.0,0.0,0.0,0.0,0.0,0.0,0.0,0.0,-0.3841,-0.4222,-0.5645,-0.6975,0.0,0.0,0.0,0.0,0.0,0.0,0.0,0.0,0.0,0.0,0.0,0.0,0.0,0.0,0.0,0.0,0.0,0.0,0.0,0.0,0.0,0.0,0.0,0.0,0.0,0.0,0.0,0.0,0.0,0.0,0.0,0.0,0.0,0.0,0.0,0.0,0.0,0.0,0.0,0.0,0.0,0.0,0.0,0.0,0.0,0.0,0.0,0.0,0.0,0.0,0.0,0.0,0.0,0.0,0.0,0.0,0.0,0.0,0.0,0.0,0.0,0.0,0.0,0.0,0.0,0.0,0.0,0.0,0.0,0.0,0.0,0.0,0.0,0.0,0.0,0.0,0.0,0.0,0.0,0.0,0.0,0.0,0.0,0.0,0.0,0.0,0.0,0.0,0.0,0.0,0.0,0.0,0.0,0.0,0.0,0.0,0.0,0.0,0.0,0.0,0.0,0.0,0.0,0.0,0.0,0.0,0.0,0.0,0.0,0.0,-0.4519,-0.5225,-0.6037,-0.6305,-0.6963,-0.813,0.0,0.0,0.0,0.0,0.0,0.0,0.0,0.0,0.0,0.0,0.0,0.0,0.0,0.0,0.0,0.0,0.0,0.0,0.0,0.0,0.0,0.0,0.0,0.0,0.0,0.0,0.0,0.0,0.0,0.0,0.0,0.0,0.0,0.0,0.0,0.0,0.0,0.0,0.0,0.0,0.0,0.0,0.0,0.0,0.0,0.0,0.0,0.0,0.0,0.0,0.0,0.0,0.0,0.0,0.0,0.0,0.0,0.0,0.0,0.0,0.0,0.0,0.0,0.0,0.0,0.0,0.0,0.0,0.0,0.0,0.0,0.0,0.0,0.0,0.0,0.0,0.0,0.0,0.0,0.0,0.0,0.0,0.0,0.0,0.0,0.0,0.0,0.0,0.0,0.0,0.0,0.0,0.0,0.0,0.0,0.0,0.0,0.0,0.0,0.0,0.0,0.0,0.0,0.0,0.0,0.0,0.0,0.0,-0.6109,-0.7131,-0.821,-0.916,-0.9064,-0.9027,0.0,0.0,0.0,0.0,0.0,0.0,0.0,0.0,0.0,0.0,0.0,0.0,0.0,0.0,0.0,0.0,0.0,0.0,0.0,0.0,0.0,0.0,0.0,0.0,0.0,0.0,0.0,0.0,0.0,0.0,0.0,0.0,0.0,0.0,0.0,0.0,0.0,0.0,0.0,0.0,0.0,0.0,0.0,0.0,0.0,0.0,0.0,0.0,0.0,0.0,0.0,0.0,0.0,0.0,0.0,0.0,0.0,0.0,0.0,0.0,0.0,0.0,0.0,0.0,0.0,0.0,0.0,0.0,0.0,0.0,0.0,0.0,0.0,0.0,0.0,0.0,0.0,0.0,0.0,0.0,0.0,0.0,0.0,0.0,0.0,0.0,0.0,0.0,0.0,0.0,0.0,0.0,0.0,0.0,0.0,0.0,0.0,0.0,0.0,0.0,0.0,0.0,0.0,0.0,0.0,0.0,0.0,0.0,0.0,-0.663,-0.7785,-0.8788,-0.9494,-0.8831,-0.8689,0.0,0.0,0.0,0.0,0.0,0.0,0.0,0.0,0.0,0.0,0.0,0.0,0.0,0.0,0.0,0.0,0.0,0.0,0.0,0.0,0.0,0.0,0.0,0.0,0.0,0.0,0.0,0.0,0.0,0.0,0.0,0.0,0.0,0.0,0.0,0.0,0.0,0.0,0.0,0.0,0.0,0.0,0.0,0.0,0.0,0.0,0.0,0.0,0.0,0.0,0.0,0.0,0.0,0.0,0.0,0.0,0.0,0.0,0.0,0.0,0.0,0.0,0.0,0.0,0.0,0.0,0.0,0.0,0.0,0.0,0.0,0.0,0.0,0.0,0.0,0.0,0.0,0.0,0.0,0.0,0.0,0.0,0.0,0.0,0.0,0.0,0.0,0.0,0.0,0.0,0.0,0.0,0.0,0.0,0.0,0.0,0.0,0.0,0.0,0.0,0.0,0.0,0.0,0.0,0.0,0.0,0.0,0.0,0.0,-0.7394,0.0,-0.9104,-0.9303,-0.89,-0.8855,0.0,0.0,0.0,0.0,0.0,0.0,0.0,0.0,0.0,0.0,0.0,0.0,0.0,0.0,0.0,0.0,0.0,0.0,0.0,0.0,0.0,0.0,0.0,0.0,0.0,0.0,0.0,0.0,0.0,0.0,0.0,0.0,0.0,0.0,0.0,0.0,0.0,0.0,0.0,0.0,0.0,0.0,0.0,0.0,0.0,0.0,0.0,0.0,0.0,0.0,0.0,0.0,0.0,0.0,0.0,0.0,0.0,0.0,0.0,0.0,0.0,0.0,0.0,0.0,0.0,0.0,0.0,0.0,0.0,0.0,0.0,0.0,0.0,0.0,0.0,0.0,0.0,0.0,0.0,0.0,0.0,0.0,0.0,0.0,0.0,0.0,0.0,0.0,0.0,0.0,0.0,0.0,0.0,0.0,0.0,0.0,0.0,0.0,0.0,0.0,0.0,0.0,0.0,0.0,0.0,0.0,0.0,0.0,-0.7402,-0.8558,-0.9207,-0.9327,-0.8874,-0.9593,-0.9732,0.0,0.0,0.0,0.0,0.0,0.0,0.0,0.0,0.0,0.0,0.0,0.0,0.0,0.0,0.0,0.0,0.0,0.0,0.0,0.0,0.0,0.0,0.0,0.0,0.0,0.0,0.0,0.0,0.0,0.0,0.0,0.0,0.0,0.0,0.0,0.0,0.0,0.0,0.0,0.0,0.0,0.0,0.0,0.0,0.0,0.0,0.0,0.0,0.0,0.0,0.0,0.0,0.0,0.0,0.0,0.0,0.0,0.0,0.0,0.0,0.0,0.0,0.0,0.0,0.0,0.0,0.0,0.0,0.0,0.0,0.0,0.0,0.0,0.0,0.0,0.0,0.0,0.0,0.0,0.0,0.0,0.0,0.0,0.0,0.0,0.0,0.0,0.0,0.0,0.0,0.0,0.0,0.0,0.0,0.0,0.0,0.0,0.0,0.0,0.0,0.0,0.0,0.0,0.0,0.0,0.0,0.0,0.0,0.0,-0.9032,-0.9728,-1.0329,-1.0699,-1.0475,-1.0294,0.0,0.0,0.0,0.0,0.0,0.0,0.0,0.0,0.0,0.0,0.0,0.0,0.0,0.0,0.0,0.0,0.0,0.0,0.0,0.0,0.0,0.0,0.0,0.0,0.0,0.0,0.0,0.0,0.0,0.0,0.0,0.0,0.0,0.0,0.0,0.0,0.0,0.0,0.0,0.0,0.0,0.0,0.0,0.0,0.0,0.0,0.0,0.0,0.0,0.0,0.0,0.0,0.0,0.0,0.0,0.0,0.0,0.0,0.0,0.0,0.0,0.0,0.0,0.0,0.0,0.0,0.0,0.0,0.0,0.0,0.0,0.0,0.0,0.0,0.0,0.0,0.0,0.0,0.0,0.0,0.0,0.0,0.0,0.0,0.0,0.0,0.0,0.0,0.0,0.0,0.0,0.0,0.0,0.0,0.0,0.0,0.0,0.0,0.0,0.0,0.0,0.0,0.0,0.0,0.0,0.0,0.0,0.0,0.0,-1.0495,-1.1028,-1.1446,-1.17,-1.1628,-1.1348,-1.0841,0.0,0.0,0.0,0.0,0.0,0.0,0.0,0.0,0.0,0.0,0.0,0.0,0.0,0.0,0.0,0.0,0.0,0.0,0.0,0.0,0.0,0.0,0.0,0.0,0.0,0.0,0.0,0.0,0.0,0.0,0.0,0.0,0.0,0.0,0.0,0.0,0.0,0.0,0.0,0.0,0.0,0.0,0.0,0.0,0.0,0.0,0.0,0.0,0.0,0.0,0.0,0.0,0.0,0.0,0.0,0.0,0.0,0.0,0.0,0.0,0.0,0.0,0.0,0.0,0.0,0.0,0.0,0.0,0.0,0.0,0.0,0.0,0.0,0.0,0.0,0.0,0.0,0.0,0.0,0.0,0.0,0.0,0.0,0.0,0.0,0.0,0.0,0.0,0.0,0.0,0.0,0.0,0.0,0.0,0.0,0.0,0.0,0.0,0.0,0.0,0.0,0.0,0.0,0.0,0.0,0.0,0.0,0.0,-1.2615,-1.3018,-1.284,-1.2096,-1.2978,-1.2804,0.0,0.0,0.0,0.0,0.0,0.0,0.0,0.0,0.0,0.0,0.0,0.0,0.0,0.0,0.0,0.0,0.0,0.0,0.0,0.0,0.0,0.0,0.0,0.0,0.0,0.0,0.0,0.0,0.0,0.0,0.0,0.0,0.0,0.0,0.0,0.0,0.0,0.0,0.0,0.0,0.0,0.0,0.0,0.0,0.0,0.0,0.0,0.0,0.0,0.0,0.0,0.0,0.0,0.0,0.0,0.0,0.0,0.0,0.0,0.0,0.0,0.0,0.0,0.0,0.0,0.0,0.0,0.0,0.0,0.0,0.0,0.0,0.0,0.0,0.0,0.0,0.0,0.0,0.0,0.0,0.0,0.0,0.0,0.0,0.0,0.0,0.0,0.0,0.0,0.0,0.0,0.0,0.0,0.0,0.0,0.0,0.0,0.0,0.0,0.0,0.0,0.0,0.0,0.0,0.0,0.0,0.0,0.0,0.0,-1.4086,-1.5274,-1.5603,-1.4868,-1.4629,-1.4326,0.0,0.0,0.0,0.0,0.0,0.0,0.0,0.0,0.0,0.0,0.0,0.0,0.0,0.0,0.0,0.0,0.0,0.0,0.0,0.0,0.0,0.0,0.0,0.0,0.0,0.0,0.0,0.0,0.0,0.0,0.0,0.0,0.0,0.0,0.0,0.0,0.0,0.0,0.0,0.0,0.0,0.0,0.0,0.0,0.0,0.0,0.0,0.0,0.0,0.0,0.0,0.0,0.0,0.0,0.0,0.0,0.0,0.0,0.0,0.0,0.0,0.0,0.0,0.0,0.0,0.0,0.0,0.0,0.0,0.0,0.0,0.0,0.0,0.0,0.0,0.0,0.0,0.0,0.0,0.0,0.0,0.0,0.0,0.0,0.0,0.0,0.0,0.0,0.0,0.0,0.0,0.0,0.0,0.0,0.0,0.0,0.0,0.0,0.0,0.0,0.0,0.0,0.0,0.0,0.0,0.0,0.0,0.0,-1.4777,-1.5401,-1.6651,-1.7213,-1.6972,-1.6005,-1.5319,0.0,0.0,0.0,0.0,0.0,0.0,0.0,0.0,0.0,0.0,0.0,0.0,0.0,0.0,0.0,0.0,0.0,0.0,0.0,0.0,0.0,0.0,0.0,0.0,0.0,0.0,0.0,0.0,0.0,0.0,0.0,0.0,0.0,0.0,0.0,0.0,0.0,0.0,0.0,0.0,0.0,0.0,0.0,0.0,0.0,0.0,0.0,0.0,0.0,0.0,0.0,0.0,0.0,0.0,0.0,0.0,0.0,0.0,0.0,0.0,0.0,0.0,0.0,0.0,0.0,0.0,0.0,0.0,0.0,0.0,0.0,0.0,0.0,0.0,0.0,0.0,0.0,0.0,0.0,0.0,0.0,0.0,0.0,0.0,0.0,0.0,0.0,0.0,0.0,0.0,0.0,0.0,0.0,0.0,0.0,0.0,0.0,0.0,0.0,0.0,0.0,0.0,0.0,0.0,0.0,0.0,0.0,0.0,-1.5658,-1.648,-1.7397,-1.8082,-1.8419,-1.7061,-1.604,0.0,0.0,0.0,0.0,0.0,0.0,0.0,0.0,0.0,0.0,0.0,0.0,0.0,0.0,0.0,0.0,0.0,0.0,0.0,0.0,0.0,0.0,0.0,0.0,0.0,0.0,0.0,0.0,0.0,0.0,0.0,0.0,0.0,0.0,0.0,0.0,0.0,0.0,0.0,0.0,0.0,0.0,0.0,0.0,0.0,0.0,0.0,0.0,0.0,0.0,0.0,0.0,0.0,0.0,0.0,0.0,0.0,0.0,0.0,0.0,0.0,0.0,0.0,0.0,0.0,0.0,0.0,0.0,0.0,0.0,0.0,0.0,0.0,0.0,0.0,0.0,0.0,0.0,0.0,0.0,0.0,0.0,0.0,0.0,0.0,0.0,0.0,0.0,0.0,0.0,0.0,0.0,0.0,0.0,0.0,0.0,0.0,0.0,0.0,0.0,0.0,0.0,0.0,0.0,0.0,0.0,0.0,0.0,-1.6,-1.6598,-1.7765,-1.8397,-1.85,-1.6973,-1.6403,0.0,0.0,0.0,0.0,0.0,0.0,0.0,0.0,0.0,0.0,0.0,0.0,0.0,0.0,0.0,0.0,0.0,0.0,0.0,0.0,0.0,0.0,0.0,0.0,0.0,0.0,0.0,0.0,0.0,0.0,0.0,0.0,0.0,0.0,0.0,0.0,0.0,0.0,0.0,0.0,0.0,0.0,0.0,0.0,0.0,0.0,0.0,0.0,-2.1448,0.0,0.0,0.0,0.0,0.0,0.0,0.0,0.0,0.0,0.0,0.0,0.0,0.0,0.0,0.0,0.0,0.0,0.0,0.0,0.0,0.0,0.0,0.0,0.0,0.0,0.0,0.0,0.0,0.0,0.0,0.0,0.0,0.0,0.0,0.0,0.0,0.0,0.0,0.0,0.0,0.0,0.0,0.0,0.0,0.0,0.0,0.0,0.0,0.0,0.0,0.0,0.0,0.0,0.0,0.0,0.0,0.0,0.0,0.0,-1.6179,-1.666,-1.7221,-1.7747,-1.8106,-1.7009,-1.6614,0.0,0.0,0.0,0.0,0.0,0.0,0.0,0.0,0.0,0.0,0.0,0.0,0.0,0.0,0.0,0.0,0.0,0.0,0.0,0.0,0.0,0.0,0.0,0.0,0.0,0.0,0.0,0.0,0.0,0.0,0.0,0.0,0.0,0.0,0.0,0.0,0.0,0.0,0.0,0.0,0.0,0.0,0.0,0.0,0.0,0.0,0.0,0.0,0.0,0.0,0.0,0.0,0.0,0.0,0.0,0.0,0.0,0.0,0.0,0.0,0.0,0.0,0.0,0.0,0.0,0.0,0.0,0.0,0.0,0.0,0.0,0.0,0.0,0.0,0.0,0.0,0.0,0.0,0.0,0.0,0.0,0.0,0.0,0.0,0.0,0.0,0.0,0.0,0.0,0.0,0.0,0.0,0.0,0.0,0.0,0.0,0.0,0.0,0.0,0.0,0.0,0.0,0.0,0.0,0.0,0.0,0.0,-1.5827,-1.6194,-1.6723,-1.665,-1.7005,-1.7868,-1.7247,-1.6968,-1.7112,0.0,0.0,0.0,0.0,0.0,0.0,0.0,0.0,0.0,0.0,0.0,0.0,0.0,0.0,0.0,0.0,0.0,0.0,0.0,0.0,0.0,0.0,0.0,0.0,0.0,0.0,0.0,0.0,0.0,0.0,0.0,0.0,0.0,0.0,0.0,0.0,0.0,0.0,-2.0437,-2.0405,0.0,0.0,0.0,0.0,0.0,0.0,0.0,0.0,-2.1146,0.0,0.0,0.0,0.0,0.0,0.0,0.0,0.0,0.0,0.0,0.0,0.0,0.0,0.0,0.0,0.0,0.0,0.0,0.0,0.0,0.0,0.0,0.0,0.0,0.0,0.0,0.0,0.0,0.0,0.0,0.0,0.0,0.0,0.0,0.0,0.0,0.0,0.0,0.0,0.0,0.0,0.0,0.0,0.0,0.0,0.0,0.0,0.0,0.0,0.0,0.0,0.0,0.0,0.0,0.0,0.0,-1.5916,-1.5647,-1.6022,-1.7089,-1.7073,-1.7516,-1.8344,-1.7892,-1.7547,-1.733,0.0,0.0,0.0,0.0,0.0,0.0,0.0,0.0,0.0,0.0,0.0,0.0,0.0,0.0,0.0,0.0,0.0,0.0,0.0,0.0,0.0,0.0,0.0,0.0,0.0,0.0,0.0,0.0,0.0,0.0,0.0,0.0,0.0,0.0,0.0,0.0,0.0,0.0,0.0,-2.0655,-2.0502,0.0,0.0,0.0,0.0,0.0,0.0,0.0,0.0,-2.1687,0.0,0.0,0.0,0.0,0.0,0.0,0.0,0.0,0.0,0.0,0.0,0.0,0.0,0.0,0.0,0.0,0.0,0.0,0.0,0.0,0.0,0.0,0.0,0.0,0.0,0.0,0.0,0.0,0.0,0.0,0.0,0.0,0.0,0.0,0.0,0.0,0.0,0.0,0.0,0.0,0.0,0.0,0.0,0.0,0.0,0.0,0.0,0.0,0.0,0.0,0.0,0.0,0.0,0.0,0.0,-1.5802,-1.6205,-1.6664,-1.7173,-1.7406,-1.7841,-1.8461,-1.8023,-1.7644,0.0,0.0,0.0,0.0,0.0,0.0,0.0,0.0,0.0,0.0,0.0,0.0,0.0,0.0,0.0,0.0,0.0,0.0,0.0,0.0,0.0,0.0,0.0,0.0,0.0,0.0,0.0,0.0,0.0,0.0,0.0,0.0,0.0,0.0,0.0,0.0,0.0,0.0,0.0,0.0,-2.1024,-2.1052,-2.1814,0.0,0.0,0.0,0.0,0.0,0.0,-2.1836,-2.1731,0.0,0.0,0.0,0.0,0.0,0.0,0.0,0.0,0.0,0.0,0.0,0.0,0.0,0.0,0.0,0.0,0.0,0.0,0.0,0.0,0.0,0.0,0.0,0.0,0.0,0.0,0.0,0.0,0.0,0.0,0.0,0.0,0.0,0.0,0.0,0.0,0.0,0.0,0.0,0.0,0.0,0.0,0.0,0.0,0.0,0.0,0.0,0.0,0.0,0.0,0.0,0.0,0.0,0.0,0.0,-1.5625,-1.656,-1.7055,-1.706,-1.7475,-1.7922,-1.8344,-1.8045,-1.7763,0.0,0.0,0.0,0.0,0.0,0.0,0.0,0.0,0.0,0.0,0.0,0.0,0.0,0.0,0.0,0.0,0.0,0.0,0.0,0.0,0.0,0.0,0.0,0.0,0.0,0.0,0.0,0.0,0.0,0.0,0.0,0.0,0.0,0.0,0.0,0.0,0.0,0.0,0.0,0.0,0.0,-2.1734,-2.2379,-2.1779,0.0,0.0,0.0,0.0,-2.1936,-2.2002,0.0,0.0,0.0,0.0,0.0,0.0,0.0,0.0,0.0,0.0,0.0,0.0,0.0,0.0,0.0,0.0,0.0,0.0,0.0,0.0,0.0,0.0,0.0,0.0,0.0,0.0,0.0,0.0,0.0,0.0,0.0,0.0,0.0,0.0,0.0,0.0,0.0,0.0,0.0,0.0,0.0,0.0,0.0,0.0,0.0,0.0,0.0,0.0,0.0,0.0,0.0,0.0,0.0,0.0,0.0,0.0,-1.5349,-1.5891,-1.6293,-1.657,-1.7018,-1.7475,-1.7868,-1.8274,-1.8223,0.0,0.0,0.0,0.0,0.0,0.0,0.0,0.0,0.0,0.0,0.0,0.0,0.0,0.0,0.0,0.0,0.0,0.0,0.0,0.0,0.0,0.0,0.0,0.0,0.0,0.0,0.0,0.0,0.0,0.0,0.0,0.0,0.0,0.0,0.0,0.0,0.0,0.0,0.0,0.0,0.0,-2.2224,-2.2311,-2.1734,-2.1578,0.0,0.0,-2.265,-2.3427,-2.3547,0.0,0.0,0.0,0.0,0.0,0.0,0.0,0.0,0.0,0.0,0.0,0.0,0.0,0.0,0.0,0.0,0.0,0.0,0.0,0.0,0.0,0.0,0.0,0.0,0.0,0.0,0.0,0.0,0.0,0.0,0.0,0.0,0.0,0.0,0.0,0.0,0.0,0.0,0.0,0.0,0.0,0.0,0.0,0.0,0.0,0.0,0.0,0.0,0.0,0.0,0.0,0.0,0.0,0.0,0.0,-1.5225,-1.5537,-1.652,-1.7101,-1.7242,-1.7894,-1.8358,-1.8539,-1.8627,-1.8376,0.0,0.0,0.0,0.0,0.0,0.0,0.0,0.0,0.0,0.0,0.0,0.0,0.0,0.0,0.0,0.0,0.0,0.0,0.0,0.0,0.0,0.0,0.0,0.0,0.0,0.0,0.0,0.0,0.0,0.0,0.0,0.0,0.0,0.0,0.0,0.0,0.0,0.0,0.0,0.0,0.0,0.0,-2.297,-2.2811,0.0,0.0,0.0,-2.3182,-2.3184,0.0,0.0,0.0,0.0,0.0,0.0,0.0,0.0,0.0,0.0,0.0,0.0,0.0,0.0,0.0,0.0,0.0,0.0,0.0,0.0,0.0,0.0,0.0,0.0,0.0,0.0,0.0,0.0,0.0,0.0,0.0,0.0,0.0,0.0,0.0,0.0,0.0,0.0,0.0,0.0,0.0,0.0,0.0,0.0,0.0,0.0,0.0,0.0,0.0,0.0,0.0,0.0,0.0,0.0,0.0,0.0,0.0,-1.5687,-1.7074,-1.776,-1.7666,-1.8514,-1.895,-1.8936,-1.8891,0.0,0.0,0.0,0.0,0.0,0.0,0.0,0.0,0.0,0.0,0.0,0.0,0.0,0.0,0.0,0.0,0.0,0.0,0.0,0.0,0.0,0.0,0.0,0.0,0.0,0.0,0.0,-1.8557,0.0,0.0,0.0,0.0,0.0,0.0,0.0,0.0,0.0,0.0,0.0,0.0,0.0,0.0,-2.3361,-2.3497,-2.3803,-2.4033,0.0,0.0,-2.3638,-2.3605,-2.3858,-2.3588,0.0,0.0,0.0,0.0,0.0,0.0,0.0,0.0,0.0,0.0,0.0,0.0,0.0,0.0,0.0,0.0,0.0,0.0,0.0,0.0,0.0,0.0,0.0,0.0,0.0,0.0,0.0,0.0,0.0,0.0,0.0,0.0,0.0,0.0,0.0,0.0,0.0,0.0,0.0,0.0,0.0,0.0,0.0,0.0,0.0,0.0,0.0,0.0,0.0,0.0,0.0,0.0,0.0,0.0,-1.5721,-1.5586,-1.7022,-1.7639,-1.7282,-1.8068,-1.8539,-1.8539,-1.9006,-1.8821,0.0,0.0,0.0,0.0,0.0,0.0,0.0,0.0,0.0,0.0,0.0,0.0,0.0,0.0,0.0,0.0,0.0,0.0,0.0,0.0,0.0,0.0,0.0,0.0,0.0,0.0,0.0,0.0,0.0,0.0,0.0,0.0,0.0,0.0,0.0,0.0,0.0,0.0,0.0,0.0,0.0,-2.5174,-2.354,-2.4174,-2.5049,0.0,-2.4515,-2.4142,-2.572,-2.5308,-2.4314,-2.2859,0.0,0.0,0.0,0.0,0.0,0.0,0.0,0.0,0.0,0.0,0.0,0.0,0.0,0.0,0.0,0.0,0.0,0.0,0.0,0.0,0.0,0.0,0.0,0.0,0.0,0.0,0.0,0.0,0.0,0.0,0.0,0.0,0.0,0.0,0.0,0.0,0.0,0.0,0.0,0.0,0.0,0.0,0.0,0.0,0.0,0.0,0.0,0.0,0.0,0.0,0.0,0.0,0.0,-1.6087,-1.6028,-1.7449,-1.8147,-1.8042,-1.8592,-1.8874,-1.886,-1.9191,-1.8915,0.0,0.0,0.0,0.0,0.0,0.0,0.0,0.0,0.0,0.0,0.0,0.0,0.0,0.0,0.0,0.0,0.0,0.0,0.0,0.0,0.0,0.0,0.0,0.0,0.0,0.0,0.0,0.0,-2.0576,-2.0893,-2.0993,0.0,0.0,0.0,0.0,0.0,0.0,0.0,0.0,0.0,0.0,-2.5227,-2.5639,-2.5558,0.0,0.0,-2.5329,-2.478,-2.5901,-2.5468,-2.4683,-2.3716,-2.4304,0.0,0.0,0.0,0.0,0.0,0.0,0.0,0.0,0.0,0.0,0.0,0.0,0.0,0.0,0.0,0.0,0.0,0.0,0.0,0.0,0.0,0.0,0.0,0.0,0.0,0.0,-0.8148,-0.9354,0.0,0.0,0.0,0.0,0.0,0.0,0.0,0.0,0.0,0.0,0.0,0.0,0.0,0.0,0.0,0.0,0.0,0.0,0.0,0.0,0.0,0.0,0.0,0.0,-1.6267,-1.6316,-1.773,-1.85,-1.85,-1.8898,-1.9116,-1.9101,-1.9228,-1.8918,0.0,0.0,0.0,0.0,0.0,0.0,0.0,0.0,0.0,0.0,0.0,0.0,0.0,0.0,0.0,0.0,0.0,0.0,0.0,0.0,0.0,0.0,0.0,0.0,0.0,0.0,0.0,0.0,-2.1094,-2.1287,-2.0961,0.0,0.0,0.0,0.0,0.0,0.0,0.0,0.0,0.0,0.0,-2.5959,-2.6648,-2.6461,-2.6424,-2.6969,-2.5834,-2.5262,-2.6328,-2.5723,-2.4979,-2.4524,0.0,0.0,0.0,0.0,0.0,0.0,0.0,0.0,0.0,0.0,0.0,0.0,0.0,0.0,0.0,0.0,0.0,0.0,0.0,0.0,0.0,0.0,0.0,0.0,0.0,0.0,0.0,-0.9783,0.0,0.0,-1.084,0.0,0.0,0.0,0.0,0.0,0.0,0.0,0.0,0.0,0.0,0.0,0.0,0.0,0.0,0.0,0.0,0.0,0.0,0.0,0.0,0.0,0.0,-1.6244,-1.6344,-1.7768,-1.8514,-1.8514,-1.8898,-1.9116,-1.9116,-1.9101,-1.8892,-1.8515,0.0,0.0,0.0,0.0,0.0,0.0,0.0,0.0,0.0,0.0,0.0,0.0,0.0,0.0,0.0,0.0,0.0,0.0,0.0,0.0,0.0,0.0,0.0,0.0,0.0,0.0,-1.9282,-2.0108,-2.076,0.0,0.0,0.0,0.0,0.0,0.0,0.0,0.0,0.0,-2.4844,-2.6879,-2.773,-2.6021,-2.6609,-2.7184,-2.7133,-2.5865,-2.553,-2.7285,-2.623,-2.522,0.0,0.0,0.0,0.0,0.0,0.0,0.0,0.0,0.0,0.0,0.0,0.0,0.0,0.0,0.0,0.0,0.0,0.0,0.0,0.0,0.0,0.0,0.0,0.0,0.0,0.0,0.0,-1.0056,-1.0306,0.0,0.0,0.0,0.0,0.0,0.0,0.0,0.0,0.0,0.0,0.0,-1.4105,-1.4009,0.0,0.0,0.0,0.0,0.0,0.0,0.0,0.0,0.0,0.0,0.0,0.0,-1.6966,-1.7448,-1.8393,-1.8898,-1.8898,-1.9026,-1.9116,-1.9116,-1.9116,-1.898,-1.8702,0.0,0.0,0.0,0.0,0.0,0.0,0.0,0.0,0.0,0.0,0.0,0.0,0.0,0.0,0.0,0.0,0.0,0.0,0.0,0.0,0.0,0.0,0.0,0.0,0.0,-2.0029,0.0,0.0,0.0,0.0,0.0,0.0,0.0,0.0,0.0,0.0,-2.4415,-2.5117,-2.6193,-2.6464,-2.6598,-2.6617,-2.6859,-2.7213,0.0,0.0,0.0,0.0,0.0,0.0,0.0,0.0,0.0,0.0,0.0,0.0,0.0,-2.6451,-2.5956,-2.4254,-2.3634,-2.3363,-2.3309,0.0,0.0,0.0,0.0,0.0,0.0,0.0,0.0,0.0,0.0,0.0,0.0,0.0,0.0,-1.1481,-1.1158,-1.1598,0.0,0.0,0.0,0.0,0.0,0.0,0.0,0.0,-1.343,-1.385,-1.4501,-1.4316,-1.4802,-1.5806,-1.6021,-1.5879,0.0,0.0,0.0,0.0,0.0,0.0,0.0,0.0,-1.7534,-1.839,-1.8734,-1.9089,-1.942,-1.9217,-1.9116,-1.9116,-1.9116,-1.9244,-1.9537,-1.9088,-1.8949,0.0,0.0,0.0,0.0,0.0,0.0,0.0,0.0,0.0,0.0,0.0,0.0,0.0,0.0,0.0,0.0,0.0,0.0,0.0,0.0,0.0,0.0,0.0,-2.0729,0.0,0.0,0.0,0.0,0.0,0.0,0.0,0.0,0.0,-2.5094,-2.5319,-2.5847,-2.6895,-2.6711,-2.6637,-2.7063,0.0,0.0,0.0,0.0,0.0,0.0,0.0,-2.6467,-2.7372,-2.7055,-2.6908,-2.744,-2.7785,-2.7981,-2.8008,0.0,0.0,-2.6055,-2.5458,-2.5127,-2.4817,-2.3975,-2.3156,-2.2805,-2.2735,-2.27,0.0,0.0,0.0,0.0,-1.0364,0.0,0.0,0.0,-1.2327,-1.2406,0.0,-1.2744,0.0,0.0,0.0,0.0,-1.3575,-1.386,0.0,0.0,-1.4256,-1.4609,-1.5091,-1.5081,-1.5479,-1.6278,-1.6892,-1.7087,-1.7011,-1.7135,-1.6689,0.0,0.0,0.0,0.0,0.0,-1.796,-1.9265,-1.8855,-1.9077,-2.0088,-1.9508,-1.9188,-1.9188,-1.9159,-1.976,-2.0923,-1.9924,-2.0022,-2.1579,-1.9833,0.0,0.0,0.0,0.0,0.0,0.0,0.0,0.0,0.0,0.0,0.0,0.0,0.0,0.0,0.0,0.0,0.0,0.0,0.0,0.0,-2.0737,0.0,0.0,0.0,0.0,0.0,0.0,0.0,0.0,0.0,-2.5708,-2.5708,-2.634,-2.686,-2.6879,0.0,0.0,0.0,0.0,-2.8404,-2.8749,-2.8177,-2.8065,-2.8994,-2.8376,-2.803,-2.8835,0.0,0.0,-2.9058,-2.8492,-2.8058,-2.8158,-2.8844,-2.913,-2.8376,-2.7594,-2.6812,-2.5896,-2.4992,-2.4019,-2.3144,-2.3075,-2.2987,-1.1502,0.0,0.0,0.0,0.0,-1.3004,-1.313,-1.2952,-1.3678,-1.3696,-1.3212,-1.3603,0.0,0.0,0.0,0.0,0.0,0.0,-1.393,-1.3899,-1.4114,-1.4572,-1.5257,-1.555,-1.6278,-1.7399,-1.799,-1.8461,-1.8808,-1.8945,-1.8203,-1.6653,0.0,0.0,0.0,0.0,-1.8993,-1.9837,-2.0154,-2.0417,-2.0727,-2.0553,-2.0556,-2.0794,-2.0351,-2.0601,-2.1668,-2.1116,-2.107,-2.1657,-2.1132,0.0,0.0,0.0,0.0,0.0,0.0,0.0,0.0,0.0,0.0,0.0,0.0,0.0,0.0,0.0,0.0,0.0,0.0,0.0,-2.1685,-2.2425,-2.2686,0.0,0.0,0.0,0.0,0.0,0.0,0.0,0.0,0.0,-2.6124,-2.6037,-2.621,0.0,0.0,-2.6581,-2.7063,-2.7737,-2.8352,-2.8673,-2.8495,0.0,-2.9723,-2.872,-2.8092,-2.8936,-2.9039,-2.902,-2.9079,-2.9375,-2.9617,-2.9638,-2.9976,-3.016,-2.9941,-2.9299,-2.851,-2.7694,-2.6785,-2.5844,-2.4954,-2.4728,-2.4645,-1.4913,-1.3386,-1.2856,-1.3236,-1.4249,-1.4749,-1.4857,-1.4749,-1.531,-1.5205,-1.4749,-1.5046,-1.4678,-1.3857,-1.4336,0.0,0.0,0.0,-1.4948,-1.4897,-1.5109,-1.5604,-1.6321,-1.6419,-1.709,-1.8214,-1.8619,-1.9016,-1.9356,-1.9483,-1.9041,-1.802,0.0,-1.8064,-1.8763,-1.9251,-2.0001,-2.0936,-2.0971,-2.1119,-2.138,-2.1133,-2.1126,-2.13,-2.0892,-2.1233,-2.2337,-2.1797,-2.1789,-2.2545,-2.2003,-2.1399,0.0,0.0,0.0,0.0,0.0,0.0,0.0,0.0,0.0,0.0,0.0,-2.053,-1.9672,0.0,0.0,0.0,-2.2367,-2.286,-2.3163,-2.341,0.0,0.0,0.0,0.0,0.0,0.0,0.0,-2.4304,-2.5357,-2.6199,-2.6313,-2.6072,-2.6197,-2.7069,-2.6755,-2.6686,-2.7363,0.0,-2.8688,-2.8998,-2.9013,-2.9266,-2.9975,-2.9292,-2.8842,-2.9423,-2.9487,-2.95,-2.9576,-2.9998,-3.0286,-3.0348,-3.0452,-3.0521,-3.0607,-3.0253,-2.9734,-2.8984,-2.8323,-2.7511,-2.6315,-2.5997,-2.5854,-1.7422,-1.6912,-1.5016,-1.4863,-1.5977,-1.5982,-1.6391,-1.6945,-1.6982,-1.6831,-1.6574,-1.6826,-1.6577,-1.5948,-1.611,0.0,-1.6366,-1.6538,-1.6616,-1.6728,-1.6792,-1.7274,-1.8025,-1.776,-1.8082,-1.8873,-1.9071,-1.9112,-1.9129,-1.9195,-1.9341,-1.9581,-1.952,-1.9664,-2.0013,-2.0118,-2.0841,-2.2172,-2.1462,-2.1394,-2.2048,-2.1467,-2.1148,-2.1245,-2.1172,-2.178,-2.3046,-2.2204,-2.2419,-2.3914,-2.2654,-2.2009,-2.2335,0.0,0.0,0.0,0.0,0.0,0.0,0.0,0.0,0.0,0.0,0.0,0.0,0.0,0.0,-2.2972,-2.3406,0.0,-2.4617,-2.4182,0.0,0.0,0.0,-2.5267,-2.5996,-2.6061,-2.6099,-2.617,0.0,0.0,-2.6445,-2.6422,-2.6695,-2.7578,-2.7614,-2.7734,-2.8056,-2.8645,-2.9212,-2.9514,-2.957,-2.9639,-2.9896,-2.9851,-2.9844,-3.0075,-3.0204,-3.0174,-3.0241,-3.0273,-3.0318,-3.0386,-3.0394,-3.0462,-3.0575,-3.0617,-3.049,-2.9802,-2.9494,-2.8879,-2.7394,-2.6896,-2.6625,-1.8815,-1.8678,-1.7859,-1.7198,-1.672,-1.6982,-1.7174,-1.7376,-1.7833,-1.789,-1.771,-1.7884,-1.762,-1.6968,-1.622,-1.6143,-1.6572,-1.6635,-1.6747,-1.6971,-1.7451,-1.7934,-1.8412,-1.9306,-1.9876,-2.0127,-2.0281,-2.0304,-2.0279,-1.9834,-1.9834,-2.014,-1.9903,-1.9678,-1.954,-2.052,-2.1158,-2.1445,-2.1695,-2.2134,-2.2642,-2.2511,-2.2731,-2.3288,-2.272,-2.3092,-2.4453,-2.3764,-2.3756,-2.4704,-2.4144,-2.3592,-2.3076,-2.2407,0.0,0.0,0.0,0.0,0.0,0.0,0.0,0.0,0.0,-2.2124,-2.105,0.0,-2.3615,0.0,-2.4769,-2.6169,-2.6992,-2.6959,0.0,0.0,-2.6872,-2.6532,-2.6668,-2.665,-2.6462,-2.6105,-2.648,-2.6882,-2.7127,-2.7151,-2.7441,-2.8221,-2.796,-2.7967,-2.8778,-2.8968,-2.9141,-2.9436,-2.9418,-2.9456,-2.9662,-2.982,-2.9969,-3.0176,-3.0204,-3.0232,-3.0279,-3.0312,-3.0318,-3.0379,-3.0449,-3.0501,-3.0587,-3.065,-3.0677,-3.0495,-2.9915,-2.9113,-2.8115,-2.777,-2.7619,-1.946,-1.9678,-1.915,-1.8586,-1.7981,-1.8018,-1.8137,-1.832,-1.8778,-1.8798,-1.8625,-1.8726,-1.8531,-1.8223,-1.7619,-1.7513,-1.7861,-1.7666,-1.7942,-1.8558,-1.8539,-1.903,-1.9783,-2.0389,-2.077,-2.0909,-2.0754,-2.0718,-2.068,-2.0087,-1.9889,-2.0113,-2.0369,-2.028,-1.9931,-2.0598,-2.1029,-2.1252,-2.181,-2.2353,-2.2859,-2.2888,-2.3054,-2.3402,-2.3024,-2.3207,-2.4078,-2.3569,-2.3591,-2.4159,-2.4037,-2.373,-2.3342,-2.2948,-2.2501,0.0,0.0,0.0,0.0,0.0,0.0,0.0,0.0,0.0,0.0,0.0,-2.4309,-2.3892,-2.5617,-2.6887,-2.7145,-2.7508,-2.79,-2.837,-2.811,-2.7986,-2.8317,-2.7959,-2.7685,-2.7477,-2.7504,-2.7637,-2.7893,-2.7918,-2.8105,-2.8515,-2.833,-2.837,-2.8874,-2.8975,-2.9026,-2.923,-2.9228,-2.9228,-2.9416,-2.9644,-2.9803,-2.9921,-3.0015,-3.009,-3.0147,-3.0247,-3.0311,-3.0379,-3.0428,-3.0472,-3.0546,-3.062,-3.0583,-3.0233,-2.9822,-2.9159,-2.8377,-2.8112,-2.7908,-1.9687,-2.001,-1.9539,-1.9292,-1.9274,-1.8935,-1.8981,-1.9301,-1.9478,-1.9519,-1.9459,-1.9403,-1.9365,-1.9365,-1.9316,-1.936,-1.9403,-1.9029,-1.9475,-2.0631,-2.0048,-2.0379,-2.1549,-2.1389,-2.1428,-2.1499,-2.112,-2.0932,-2.0907,-2.0225,-1.9938,-1.9952,-2.0801,-2.1056,-2.0594,-2.0584,-2.0835,-2.1318,-2.1926,-2.2484,-2.2963,-2.3008,-2.2966,-2.2817,-2.2869,-2.2917,-2.3064,-2.2785,-2.2841,-2.3229,-2.3271,-2.3335,-2.3462,-2.349,-2.3243,0.0,-2.2351,0.0,0.0,0.0,0.0,0.0,0.0,0.0,0.0,-2.4631,-2.4948,-2.505,-2.6324,-2.7051,-2.6853,-2.7483,-2.832,-2.9228,-2.9325,-2.9537,-3.0124,-2.9457,-2.8999,-2.9276,-2.8655,-2.83,-2.8543,-2.8587,-2.8587,-2.8775,-2.8724,-2.8761,-2.8956,-2.8931,-2.8929,-2.8975,-2.8975,-2.9112,-2.9272,-2.9455,-2.9589,-2.9607,-2.9767,-2.988,-2.9962,-3.0142,-3.0292,-3.0355,-3.0379,-3.0436,-3.0482,-3.0545,-3.0403,-2.9897,-2.9647,-2.9223,-2.8447,-2.8154,-2.7582,-1.9844,-1.9469,-1.9381,-1.9292,-1.9292,-1.9219,-1.9228,-1.9301,-1.9557,-1.9825,-2.012,-1.9839,-1.9785,-1.9766,-1.9434,-1.964,-2.0267,-2.0175,-2.066,-2.1633,-2.2083,-2.2367,-2.2456,-2.2992,-2.3034,-2.277,-2.2251,-2.2008,-2.1983,-2.0991,-2.0473,-2.0359,-2.0609,-2.0625,-2.0455,0.0,0.0,0.0,-2.2551,-2.3113,-2.3216,-2.3653,-2.3743,-2.3444,-2.3707,0.0,-2.3515,-2.3432,-2.3466,-2.3518,-2.3572,0.0,0.0,0.0,0.0,0.0,0.0,0.0,0.0,0.0,0.0,0.0,-2.6148,-2.5771,-2.5453,-2.599,-2.6638,-2.73,-2.7623,-2.8288,-2.9417,-2.9938,-3.0473,-3.1237,-3.0991,-3.0858,-3.0931,-2.9755,-2.9017,-2.9258,-2.8655,-2.8282,-2.8562,-2.8587,-2.8866,-2.9391,-2.9112,-2.9077,-2.9703,-2.9259,-2.8947,-2.8994,-2.8975,-2.9089,-2.9251,-2.9334,-2.9415,-2.957,-2.9681,-2.9732,-2.9765,-2.9981,-3.0147,-3.0169,-3.0279,-3.0402,-3.0419,-3.0519,-3.0547,-3.0492,-2.9949,-2.9238,-2.8392,-2.8154,-2.799,-1.9766,-1.9696,-1.945,-1.9292,0.0,-1.9608,-1.9618,-1.9478,-1.9636,-2.0029,-2.0401,-2.0332,-2.0453,-2.0813,-2.0591,-2.1009,-2.1709,-2.1485,-2.1996,-2.2965,-2.3062,-2.3026,-2.2965,-2.3575,-2.3418,-2.2604,-2.2384,-2.2322,-2.2272,-2.1776,-2.1482,-2.1433,-2.1716,-2.1801,-2.1738,-2.2292,-2.2497,-2.2275,-2.2864,-2.3465,-2.4095,-2.4325,-2.446,-2.4385,-2.4542,0.0,0.0,0.0,0.0,0.0,0.0,0.0,0.0,-2.5765,-2.6034,-2.6315,-2.6532,-2.6902,-2.7545,-2.7595,-2.771,-2.8025,-2.8005,-2.7662,-2.6708,-2.7316,-2.7855,-2.8169,-2.8505,-2.9046,-2.9993,-3.0568,-3.1131,-3.1605,-3.1307,-3.0993,-3.0887,-2.9825,-2.9107,-2.9205,-2.8693,-2.838,-2.8562,-2.8587,-2.8938,-2.9652,-2.9591,-2.9685,-3.0305,-2.9649,-2.897,-2.8994,-2.8975,-2.9021,-2.9138,-2.9141,-2.9163,-2.9291,-2.9454,-2.9551,-2.9533,-2.9832,-3.0052,-3.0109,-3.0254,-3.039,-3.0394,-3.0492,-3.0432,-3.0094,-2.9749,-2.9212,-2.8379,-2.7842,-2.734,-1.9696,-2.0001,-1.9539,-1.9292,-1.9371,-2.0001,-2.0167,-1.9942,-1.9951,0.0,0.0,-2.0712,-2.1165,-2.1842,-2.1983,-2.2424,-2.3147,-2.2811,-2.3217,-2.4302,-2.3826,-2.3526,-2.3554,-2.3858,-2.3442,-2.2493,-2.258,-2.2622,-2.2597,-2.2698,-2.2682,-2.2737,-2.3096,-2.3301,-2.3413,-2.3861,-2.3909,-2.3608,-2.3536,-2.3944,-2.4946,-2.5058,-2.5114,-2.5188,-2.5315,-2.5532,-2.5811,-2.533,-2.5524,-2.6385,-2.5916,-2.595,-2.6673,-2.6821,-2.6939,-2.7091,-2.7168,-2.7701,-2.8848,-2.8915,-2.9143,-2.9566,-2.9599,-2.9131,-2.8009,-2.8615,-2.892,-2.8777,-2.9284,-2.9679,-2.9973,-3.0589,-3.1134,-3.1466,-3.1214,-3.1028,-3.1029,-3.0159,-2.9656,-2.9643,-2.9267,-2.8891,-2.9075,-2.9119,-2.9318,-3.0033,-3.0283,-3.0341,-3.0713,-2.999,-2.9214,-2.903,-2.8975,-2.8998,-2.9017,-2.9017,-2.8975,-2.9021,-2.9203,-2.9351,-2.9398,-2.9676,-2.9973,-3.0018,-3.0228,-3.0367,-3.039,-3.0472,-3.028,-2.9667,-2.9347,-2.9066,-2.8337,-2.7374,-2.6548,-1.9844,-1.946,-1.9301,-1.9292,-1.9381,-2.0304,-2.0914,-2.1165,-2.0566,-2.0333,-2.0644,-2.1308,-2.168,-2.1832,-2.251,-2.3243,-2.3891,-2.3895,-2.4279,-2.5158,-2.5085,-2.4912,-2.4829,-2.4411,-2.4011,-2.3791,-2.3816,-2.3839,-2.3819,-2.3846,-2.3893,-2.3865,-2.3923,-2.4149,-2.4543,-2.4655,-2.4936,-2.5407,-2.5058,-2.4963,-2.5154,-2.5631,-2.5606,-2.5114,-2.5847,-2.6021,-2.5572,-2.5947,-2.6247,-2.6417,-2.6386,-2.6619,-2.7284,-2.7947,-2.8498,-2.8998,-2.9599,-3.0005,-3.0195,-3.0228,-3.0261,-3.0344,-3.0361,-3.0013,-2.9258,-2.9822,-3.0253,-3.0212,-3.0278,-3.0361,-3.046,-3.0747,-3.1134,-3.1466,-3.1625,-3.1863,-3.2004,-3.1449,-3.1071,-3.1159,-3.0837,-3.045,-3.0469,-3.055,-3.0803,-3.1519,-3.1292,-3.0896,-3.0448,-3.0167,-2.9727,-2.9177,-2.8975,-2.8975,-2.8975,-2.8975,-2.8975,-2.8975,-2.9067,-2.9156,-2.916,-2.9533,-2.9834,-2.9832,-3.0161,-3.0367,-3.039,-3.051,-3.0447,-3.0205,-2.9377,-2.8508,-2.83,-2.7058,-2.6069,-1.9539,-1.9292,-1.9292,-1.946,-1.9854,-2.0547,-2.1318,-2.1863,-2.0876,-2.0498,-2.0634,-2.1461,-2.2069,-2.2499,-2.3243,-2.4047,-2.4779,-2.4779,-2.4933,-2.53,-2.5453,-2.5326,-2.5087,-2.46,-2.4263,-2.4054,-2.4051,-2.4131,-2.4163,-2.4749,-2.5079,-2.5078,-2.5034,-2.5142,-2.5342,-2.5342,-2.5676,-2.6286,-2.5791,-2.5731,-2.6147,-2.6332,-2.6464,-2.6516,-2.7115,-2.7506,-2.7612,-2.7774,-2.8086,-2.86,-2.8272,-2.8372,-2.9065,-2.9426,-2.9742,-2.998,-3.0328,-3.0468,-3.0468,-3.0468,-3.0468,-3.0468,-3.0468,-3.0377,-3.0046,-3.0328,-3.0468,-3.0468,-3.0468,-3.0468,-3.0485,-3.0651,-3.0838,-3.1196,-3.1124,-3.1198,-3.1411,-3.12,-3.0973,-3.1046,-3.0966,-3.0948,-3.1003,-3.1003,-3.1292,-3.2009,-3.1929,-3.1425,-3.0387,-3.021,-2.9934,-2.9177,-2.8975,-2.8975,-2.8975,-2.8975,-2.8975,-2.8975,-2.904,-2.9062,-2.9112,-2.9436,-2.9715,-2.9799,-3.0099,-3.0323,-3.0379,-3.0471,-3.0372,-2.9888,-2.9504,-2.885,-2.8277,-2.7199,-2.6377,-1.9371,-1.9539,-1.9539,-1.9923,-2.0615,-2.0944,-2.1471,-2.2166,-2.1252,-2.0867,-2.1011,-2.168,-2.2563,-2.3472,-2.4219,-2.4954,-2.5577,-2.554,-2.548,-2.548,-2.5513,-2.5456,-2.5234,-2.4727,-2.4377,-2.4367,-2.4354,-2.435,-2.4637,-2.5605,-2.6111,-2.6068,-2.6035,-2.6025,-2.601,-2.6061,-2.6323,-2.6721,-2.6323,-2.6374,-2.6922,-2.6884,-2.7144,-2.7775,-2.8207,-2.8779,-2.9374,-2.9447,-2.9766,-3.0402,-2.9963,-2.9914,-3.0418,-3.0468,-3.0468,-3.0468,-3.0468,-3.0468,-3.0468,-3.0468,-3.0468,-3.0468,-3.0468,-3.0468,-3.0468,-3.0468,-3.0468,-3.0468,-3.0468,-3.0468,-3.0526,-3.0609,-3.0773,-3.1061,-3.084,-3.0917,-3.1098,-3.1091,-3.1046,-3.1076,-3.1358,-3.1582,-3.1546,-3.1546,-3.1773,-3.2164,-3.2365,-3.1816,-3.0571,-3.021,-2.9879,-2.9274,-2.8975,-2.8975,-2.8975,-2.8975,-2.8975,-2.8975,-2.8998,-2.904,-2.9112,-2.9394,-2.9663,-2.9767,-3.0003,-3.0235,-3.0359,-3.0441,-3.0285,-2.9855,-2.9571,-2.914,-2.8063,-2.7141,-2.6424,-1.9618,-2.0079,-2.0089,-2.0837,-2.1832,-2.1614,-2.1614,-2.1842,-2.1766,-2.168,-2.1842,-2.2585,-2.356,-2.4688,-2.5524,-2.6152,-2.6622,-2.6238,-2.5997,-2.5925,-2.5516,-2.5511,-2.562,-2.4755,-2.468,-2.5351,-2.5087,-2.5133,-2.5674,-2.6326,-2.6727,-2.6727,-2.6721,-2.6663,-2.673,-2.6782,-2.6826,-2.6779,-2.6841,-2.6893,-2.6832,-2.6951,-2.7233,-2.77,-2.8448,-2.9058,-2.9585,-3.0074,-3.0402,-3.0468,-3.0444,-3.0444,-3.0468,-3.0468,-3.0468,-3.0468,-3.0468,-3.0468,-3.0468,-3.0468,-3.0468,-3.0468,-3.0468,-3.0468,-3.0468,-3.0468,-3.0468,-3.0468,-3.0468,-3.0468,-3.051,-3.0733,-3.1055,-3.1368,-3.1551,-3.1897,-3.2126,-3.2497,-3.2684,-3.2684,-3.2781,-3.3158,-3.2995,-3.2977,-3.2835,-3.2274,-3.2301,-3.1796,-3.0387,-3.0081,-2.9843,-2.9195,-2.8975,-2.8975,-2.8975,-2.8975,-2.8975,-2.8975,-2.8975,-2.8998,-2.9067,-2.9246,-2.9493,-2.9715,-2.9877,-3.0122,-3.0316,-3.0441,-3.049,-3.0093,-2.9644,-2.898,-2.7479,-2.6475,-2.5876,-1.9687,-2.0167,-2.0245,-2.0924,-2.1983,-2.1918,-2.2134,-2.251,-2.251,-2.2723,-2.3158,-2.3526,-2.3931,-2.4492,-2.5253,-2.5769,-2.5949,-2.5733,-2.5636,-2.5612,-2.5408,-2.5296,-2.5152,-2.4566,-2.4543,-2.5026,-2.4998,-2.5314,-2.5893,-2.6515,-2.6794,-2.6794,-2.6794,-2.6794,-2.6779,-2.6846,-2.6884,-2.6899,-2.6951,-2.6989,-2.7078,-2.7306,-2.763,-2.8094,-2.8841,-2.9422,-2.9733,-3.0241,-3.0468,-3.0468,-3.0468,-3.0468,-3.0468,-3.0468,-3.0468,-3.0468,-3.0468,-3.0468,-3.0468,-3.0468,-3.0468,-3.0468,-3.0468,-3.0468,-3.0468,-3.0468,-3.0468,-3.0468,-3.0468,-3.0468,-3.051,-3.0634,-3.0918,-3.1389,-3.1617,-3.1875,-3.2438,-3.2773,-3.2916,-3.3024,-3.3244,-3.3393,-3.3393,-3.3441,-3.2964,-3.2082,-3.1788,-3.1236,-2.9819,-2.9512,-2.9384,-2.9085,-2.8975,-2.8975,-2.8975,-2.8975,-2.8975,-2.8975,-2.8975,-2.8975,-2.9021,-2.9181,-2.9415,-2.9625,-2.9813,-3.0032,-3.0292,-3.0381,-3.0433,-2.9989,-2.9275,-2.8393,-2.7183,-2.6658,-2.6251,-1.9775,-2.0469,-2.0779,-2.1395,-2.2145,-2.2209,-2.2435,-2.2894,-2.3169,-2.361,-2.412,-2.4337,-2.4409,-2.4504,-2.5147,-2.5588,-2.5721,-2.5672,-2.5599,-2.5504,-2.5455,-2.5175,-2.4791,-2.4563,-2.457,-2.4857,-2.5121,-2.5536,-2.6111,-2.6553,-2.6794,-2.6794,-2.6794,-2.6794,-2.6794,-2.6832,-2.6899,-2.7003,-2.7055,-2.7144,-2.7284,-2.778,-2.8192,-2.8496,-2.9225,-2.9733,-2.9984,-3.0326,-3.0468,-3.0468,-3.0468,-3.0468,-3.0468,-3.0468,-3.0468,-3.0468,-3.0468,-3.0468,-3.0468,-3.0468,-3.0468,-3.0468,-3.0468,-3.0468,-3.0468,-3.0468,-3.0468,-3.0468,-3.0468,-3.0468,-3.051,-3.0675,-3.0998,-3.1445,-3.1654,-3.2038,-3.2521,-3.2802,-3.3011,-3.3086,-3.3256,-3.3393,-3.3422,-3.3444,-3.3067,-3.2007,-3.1492,-3.0906,-2.9635,-2.9219,-2.9012,-2.8975,-2.8975,-2.8975,-2.8975,-2.8975,-2.8975,-2.8975,-2.8975,-2.8975,-2.8975,-2.9138,-2.9336,-2.957,-2.9729,-2.9734,-2.9762,-2.9905,-2.9902,-2.9154,-2.8471,-2.7867,-2.7118,-2.6797,-2.6341,-1.9991,-2.1242,-2.2166,-2.2392,-2.2402,-2.2499,-2.251,-2.2692,-2.3621,-2.4108,-2.4264,-2.4862,-2.5241,-2.5265,-2.5769,-2.631,-2.6671,-2.636,-2.6118,-2.5997,-2.5671,-2.5326,-2.4859,-2.4996,-2.5159,-2.5373,-2.5645,-2.6111,-2.6674,-2.6779,-2.6794,-2.6794,-2.6794,-2.6794,-2.6846,-2.6899,-2.7003,-2.7003,-2.713,-2.7284,-2.7473,-2.8334,-2.8811,-2.8951,-2.9483,-3.0027,-3.0384,-3.0468,-3.0468,-3.0468,-3.0468,-3.0468,-3.0468,-3.0468,-3.0468,-3.0468,-3.0468,-3.0468,-3.0468,-3.0468,-3.0468,-3.0468,-3.0468,-3.0468,-3.0468,-3.0468,-3.0468,-3.0468,-3.051,-3.051,-3.0593,-3.0998,-3.1351,-3.1579,-3.2144,-3.2454,-3.2588,-3.2898,-3.3055,-3.3117,-3.3304,-3.3422,-3.3491,-3.3549,-3.3195,-3.2436,-3.1774,-3.1017,-3.0099,-2.9402,-2.9072,-2.8975,-2.8975,-2.8975,-2.8975,-2.8975,-2.8975,-2.8975,-2.8975,-2.8975,-2.8975,-2.9048,-2.9275,-2.942,-2.9438,-2.9358,-2.9167,-2.9006,-2.8888,-2.8407,-2.7843,-2.7257,-2.7073,-2.6308,-2.5916,-2.0391,-2.1242,-2.1548,-2.1928,-2.222,-2.2339,-2.2787,-2.3548,-2.4504,-2.4862,-2.4933,-2.5158,-2.5312,-2.5324,-2.5504,-2.578,-2.6021,-2.5828,-2.5743,-2.5719,-2.5538,-2.5188,-2.4941,-2.5039,-2.5258,-2.5558,-2.5799,-2.6233,-2.6727,-2.6794,-2.6794,-2.6794,-2.6794,-2.6794,-2.6832,-2.6951,-2.7055,-2.713,-2.7299,-2.7524,-2.7978,-2.8638,-2.9182,-2.9483,-2.9984,-3.0342,-3.0468,-3.0468,-3.0468,-3.0468,-3.0468,-3.0468,-3.0468,-3.0468,-3.0468,-3.0468,-3.0468,-3.0468,-3.0468,-3.0468,-3.0468,-3.0468,-3.0468,-3.0468,-3.0468,-3.0468,-3.0468,-3.051,-3.0716,-3.0797,-3.0855,-3.1038,-3.1389,-3.1894,-3.2179,-3.2521,-3.2834,-3.3042,-3.3165,-3.3274,-3.3393,-3.3481,-3.3549,-3.3633,-3.3186,-3.2049,-3.1568,-3.0852,-2.9787,-2.9163,-2.8975,-2.8975,-2.8975,-2.8975,-2.8975,-2.8975,-2.8975,-2.8975,-2.8975,-2.8975,-2.8975,-2.8975,-2.9185,-2.9265,-2.9233,-2.8844,-2.8583,-2.8341,-2.8164,-2.7961,-2.74,-2.7188,-2.711,-2.6384,-2.6035,-2.0944,-2.1242,-2.1395,-2.17,-2.2155,-2.2499,-2.3169,-2.4215,-2.4945,-2.5312,-2.5312,-2.5312,-2.5312,-2.5312,-2.5312,-2.5453,-2.5676,-2.5535,-2.5523,-2.5664,-2.5366,-2.5111,-2.5077,-2.5176,-2.5356,-2.5647,-2.5988,-2.6394,-2.6727,-2.6794,-2.6794,-2.6794,-2.6794,-2.6846,-2.6846,-2.6951,-2.7107,-2.7233,-2.7488,-2.786,-2.8352,-2.8966,-2.9467,-2.9793,-3.0258,-3.0468,-3.0468,-3.0468,-3.0468,-3.0468,-3.0468,-3.0468,-3.0468,-3.0468,-3.0468,-3.0468,-3.0468,-3.0468,-3.0468,-3.0468,-3.0468,-3.0468,-3.0468,-3.0468,-3.0468,-3.0468,-3.051,-3.0692,-3.0855,-3.1055,-3.1351,-3.1411,-3.1637,-3.2144,-3.2386,-3.2654,-3.3055,-3.3165,-3.3274,-3.3364,-3.3452,-3.352,-3.3577,-3.3643,-3.325,-3.2247,-3.1788,-3.087,-3.0044,-2.9269,-2.8975,-2.8975,-2.8975,-2.8975,-2.8975,-2.8975,-2.8975,-2.8975,-2.8975,-2.8975,-2.8975,-2.8975,-2.9012,-2.9103,-2.8858,-2.8357,-2.7994,-2.775,-2.7574,-2.7452,-2.7296,-2.7045,-2.6822,-2.6537,-2.6133,-2.1711,-2.1318,-2.1863,-2.2025,-2.2166,-2.2883,-2.3632,-2.4334,-2.5028,-2.5312,-2.5312,-2.5312,-2.5312,-2.5312,-2.5312,-2.5535,-2.5758,-2.5688,-2.5688,-2.5861,-2.5431,-2.5303,-2.532,-2.5625,-2.5805,-2.5966,-2.6519,-2.6866,-2.6968,-2.6924,-2.6881,-2.6837,-2.6808,-2.6832,-2.6989,-2.7003,-2.7159,-2.7437,-2.7795,-2.8158,-2.8448,-2.9271,-2.981,-2.9881,-3.0284,-3.0468,-3.0468,-3.0468,-3.0468,-3.0468,-3.0468,-3.0468,-3.0468,-3.0468,-3.0468,-3.0468,-3.0468,-3.0468,-3.0468,-3.0468,-3.0468,-3.051,-3.051,-3.051,-3.051,-3.051,-3.0675,-3.0918,-3.1038,-3.1295,-3.2002,-3.2162,-3.2197,-3.2266,-3.2702,-3.3024,-3.3135,-3.3286,-3.3393,-3.3393,-3.3452,-3.352,-3.3605,-3.3689,-3.3524,-3.3175,-3.2339,-3.1366,-3.0834,-2.9879,-2.9159,-2.8975,-2.8975,-2.8975,-2.8975,-2.8975,-2.8975,-2.8975,-2.8975,-2.8975,-2.8975,-2.8998,-2.9044,-2.9077,-2.8745,-2.8284,-2.7687,-2.7399,-2.6939,-2.6796,-2.6773,-2.6792,-2.639,-2.6068,-2.5956,-2.1395,-2.1242,-2.1395,-2.1614,-2.1983,-2.2883,-2.379,-2.4634,-2.5111,-2.5312,-2.5312,-2.5312,-2.5312,-2.5312,-2.5453,-2.5676,-2.584,-2.5688,-2.5758,-2.6082,-2.6077,-2.6133,-2.6373,-2.706,-2.7544,-2.7753,-2.7961,-2.8086,-2.7984,-2.7636,-2.7432,-2.7374,-2.6982,-2.6846,-2.6989,-2.7093,-2.7233,-2.7437,-2.7929,-2.84,-2.8842,-2.9467,-2.9924,-3.0258,-3.0426,-3.0468,-3.0468,-3.0468,-3.0468,-3.0468,-3.0468,-3.0468,-3.0468,-3.0468,-3.0468,-3.0468,-3.0468,-3.0468,-3.0485,-3.0526,-3.0543,-3.0568,-3.0749,-3.0692,-3.0568,-3.0733,-3.0958,-3.1179,-3.1372,-3.1714,-3.2248,-3.2654,-3.2784,-3.2816,-3.2975,-3.3165,-3.3274,-3.3364,-3.3393,-3.3422,-3.3509,-3.3595,-3.3605,-3.3671,-3.3597,-3.3156,-3.2522,-3.1935,-3.0834,-3.0265,-2.9544,-2.914,-2.9085,-2.8994,-2.8975,-2.8975,-2.8975,-2.8975,-2.8975,-2.8975,-2.8975,-2.8998,-2.9026,-2.8889,-2.8577,-2.815,-2.7567,-2.73,-2.7036,-2.6695,-2.689,-2.6554,-2.591,-2.5694,-2.5701,-2.17,-2.1548,-2.1787,-2.1842,-2.1983,-2.3117,-2.3959,-2.4634,-2.5111,-2.5312,-2.5312,-2.5312,-2.5312,-2.5312,-2.5453,-2.5606,-2.5746,-2.5606,-2.5816,-2.6264,-2.6231,-2.6475,-2.6903,-2.7577,-2.8264,-2.8697,-2.8866,-2.8866,-2.8666,-2.8289,-2.7969,-2.7679,-2.737,-2.7156,-2.707,-2.7196,-2.735,-2.7575,-2.8222,-2.8748,-2.9166,-2.9705,-3.0199,-3.0468,-3.0468,-3.0468,-3.0468,-3.0468,-3.0468,-3.0468,-3.0468,-3.0468,-3.0468,-3.0468,-3.0468,-3.0468,-3.051,-3.0568,-3.0667,-3.1016,-3.1174,-3.1281,-3.1379,-3.1459,-3.1352,-3.1376,-3.1257,-3.164,-3.186,-3.2144,-3.2586,-3.2912,-3.3117,-3.3196,-3.3208,-3.3256,-3.3345,-3.3393,-3.3393,-3.3422,-3.352,-3.3577,-3.3633,-3.3707,-3.3623,-3.3128,-3.2779,-3.2449,-3.1237,-3.0595,-2.9989,-2.9475,-2.9195,-2.9104,-2.8994,-2.8975,-2.8975,-2.8975,-2.8975,-2.8975,-2.8975,-2.898,-2.8984,-2.8669,-2.8334,-2.8133,-2.7622,-2.8095,-2.8104,-2.7707,-2.7246,-2.6943,-2.6562,-2.5881,-2.5736,-2.2553,-2.2176,-2.2703,-2.2553,-2.2252,-2.3519,-2.4189,-2.4345,-2.4957,-2.5312,-2.5312,-2.5312,-2.5312,-2.5312,-2.5394,-2.5453,-2.5606,-2.5664,-2.6,-2.6438,-2.6416,-2.6661,-2.7593,-2.7931,-2.8396,-2.8971,-2.9272,-2.9229,-2.9057,-2.8811,-2.8434,-2.8013,-2.7963,-2.7759,-2.7579,-2.7498,-2.7844,-2.8127,-2.8903,-2.9435,-2.9528,-3.0256,-3.07,-3.0775,-3.0791,-3.0824,-3.0858,-3.0874,-3.0709,-3.0501,-3.0468,-3.0468,-3.0526,-3.051,-3.0551,-3.0526,-3.0543,-3.0849,-3.117,-3.1765,-3.2324,-3.2548,-3.2525,-3.2451,-3.2599,-3.2235,-3.2076,-3.2476,-3.2667,-3.2851,-3.319,-3.3278,-3.3352,-3.3364,-3.3345,-3.3345,-3.3393,-3.3393,-3.3393,-3.3422,-3.3538,-3.3605,-3.3605,-3.3726,-3.3743,-3.3623,-3.3146,-3.2742,-3.2173,-3.1329,-3.0485,-2.9916,-2.9439,-2.9104,-2.8975,-2.8975,-2.8975,-2.8975,-2.8994,-2.9017,-2.8998,-2.898,-2.9034,-2.8656,-2.8428,-2.815,-2.8255,-2.8811,-2.8856,-2.8384,-2.8003,-2.7722,-2.7094,-2.6286,-2.5733,-2.1863,-2.2101,-2.2262,-2.2262,-2.2327,-2.3604,-2.4189,-2.4334,-2.4957,-2.5312,-2.5312,-2.5312,-2.5312,-2.5312,-2.5465,-2.5535,-2.5746,-2.6195,-2.6676,-2.7136,-2.7749,-2.862,-2.9431,-2.943,-2.9602,-3.0031,-3.0075,-3.0191,-3.0031,-2.9566,-2.9276,-2.9116,-2.8761,-2.8634,-2.8651,-2.9094,-2.952,-2.9812,-3.0688,-3.1193,-3.1223,-3.1724,-3.2116,-3.2116,-3.2067,-3.2067,-3.21,-3.2116,-3.1553,-3.0593,-3.0468,-3.0468,-3.0609,-3.0816,-3.089,-3.0775,-3.1291,-3.1724,-3.2015,-3.2596,-3.3182,-3.3675,-3.3813,-3.3668,-3.3167,-3.3611,-3.367,-3.3755,-3.4001,-3.4276,-3.4204,-3.4117,-3.3961,-3.3454,-3.3393,-3.3393,-3.3393,-3.3393,-3.3441,-3.3481,-3.3567,-3.3605,-3.3689,-3.3726,-3.3807,-3.3752,-3.355,-3.3238,-3.2669,-3.1935,-3.1035,-3.0173,-2.9622,-2.9237,-2.8975,-2.8975,-2.8975,-2.8975,-2.9017,-2.9017,-2.904,-2.9044,-2.9123,-2.907,-2.9102,-2.8915,-2.9311,-2.9819,-2.9447,-2.9028,-2.8398,-2.789,-2.7121,-2.6351,-2.587,-2.2306,-2.2478,-2.2628,-2.2628,-2.2628,-2.3677,-2.4189,-2.4334,-2.4957,-2.5312,-2.5312,-2.5312,-2.5312,-2.5312,-2.5453,-2.5606,-2.5943,-2.6526,-2.7069,-2.7829,-2.8776,-2.9685,-3.019,-3.0144,-3.0205,-3.0582,-3.0642,-3.0613,-3.0495,-3.019,-2.99,-2.9566,-2.949,-2.9337,-2.9094,-2.9879,-3.0335,-3.0561,-3.1437,-3.201,-3.2057,-3.2455,-3.2663,-3.2663,-3.2663,-3.2663,-3.2663,-3.2663,-3.2249,-3.1603,-3.1437,-3.1437,-3.1464,-3.1808,-3.1972,-3.1825,-3.2581,-3.3105,-3.3377,-3.3945,-3.454,-3.4941,-3.5129,-3.4991,-3.4765,-3.4942,-3.4729,-3.482,-3.4906,-3.4753,-3.4617,-3.4317,-3.3918,-3.3484,-3.3393,-3.3393,-3.3393,-3.3404,-3.3452,-3.3509,-3.3577,-3.3643,-3.3698,-3.3753,-3.3807,-3.3807,-3.3788,-3.3532,-3.3164,-3.2375,-3.1696,-3.0999,-3.0118,-2.9677,-2.9329,-2.9237,-2.9012,-2.8975,-2.9021,-2.904,-2.9062,-2.9067,-2.9138,-2.9275,-2.9551,-2.9782,-2.9962,-3.015,-3.0109,-2.9562,-2.8768,-2.8106,-2.7457,-2.6522,-2.6042,-2.3372,-2.315,-2.3519,-2.3446,-2.3298,-2.397,-2.4273,-2.4406,-2.5028,-2.5312,-2.5312,-2.5312,-2.5312,-2.5312,-2.5382,-2.5664,-2.622,-2.665,-2.7511,-2.8532,-2.9526,-3.0233,-3.0219,-3.0176,-3.0237,-3.0568,-3.0642,-3.0642,-3.0568,-3.0524,-3.0263,-2.9973,-3.006,-2.9965,-2.9948,-3.0426,-3.0706,-3.1205,-3.216,-3.2639,-3.2733,-3.2994,-3.321,-3.3193,-3.3193,-3.316,-3.311,-3.3044,-3.2961,-3.2928,-3.284,-3.2575,-3.2696,-3.317,-3.341,-3.3499,-3.3908,-3.4504,-3.4921,-3.55,-3.6162,-3.6399,-3.629,-3.6274,-3.6342,-3.5967,-3.5751,-3.5833,-3.5331,-3.5227,-3.4739,-3.4099,-3.3647,-3.3465,-3.3393,-3.3393,-3.3404,-3.3452,-3.3509,-3.3538,-3.3615,-3.3671,-3.3726,-3.3771,-3.3807,-3.3807,-3.3807,-3.3715,-3.3385,-3.2779,-3.243,-3.2192,-3.1237,-3.0173,-2.9824,-2.9512,-2.92,-2.8998,-2.9044,-2.9067,-2.9089,-2.9134,-2.9156,-2.931,-2.957,-2.975,-2.9851,-3.0042,-3.0287,-3.0037,-2.9248,-2.8728,-2.8155,-2.6945,-2.6183,-2.3298,-2.397,-2.4043,-2.4043,-2.4043,-2.4429,-2.4646,-2.4718,-2.5111,-2.5312,-2.5312,-2.5312,-2.5312,-2.53,-2.5489,-2.5816,-2.6421,-2.7214,-2.826,-2.9637,-3.0205,-3.0462,-3.0462,-3.0433,-3.0507,-3.0642,-3.0642,-3.0642,-3.0642,-3.0568,-3.051,-3.0438,-3.0573,-3.0981,-3.1324,-3.1866,-3.2859,-3.3299,-3.3876,-3.4114,-3.4082,-3.4176,-3.4286,-3.4286,-3.4319,-3.4369,-3.4419,-3.4419,-3.4419,-3.4184,-3.3478,-3.2984,-3.3155,-3.3651,-3.3984,-3.4192,-3.4969,-3.5645,-3.5878,-3.6445,-3.7071,-3.7399,-3.7398,-3.7343,-3.697,-3.7313,-3.7133,-3.7033,-3.7087,-3.658,-3.5476,-3.4769,-3.4063,-3.3574,-3.3393,-3.3441,-3.3452,-3.3462,-3.3538,-3.3577,-3.3643,-3.3707,-3.3762,-3.378,-3.3807,-3.3807,-3.3807,-3.3807,-3.3513,-3.3109,-3.2981,-3.2852,-3.1861,-3.076,-3.0228,-2.9769,-2.9223,-2.9021,-2.9089,-2.9355,-2.9381,-2.92,-2.924,-2.9392,-2.9645,-2.9769,-2.9869,-3.0114,-3.0386,-3.0037,-2.9707,-2.9206,-2.8493,-2.7342,-2.6507,-2.3677,-2.42,-2.4418,-2.4345,-2.4273,-2.4634,-2.4801,-2.4861,-2.5182,-2.5312,-2.5312,-2.5312,-2.5312,-2.5336,-2.5978,-2.6524,-2.7296,-2.8597,-2.9632,-3.0452,-3.0725,-3.0675,-3.0582,-3.0642,-3.0642,-3.0642,-3.0642,-3.0642,-3.0642,-3.0642,-3.0568,-3.0642,-3.0895,-3.1218,-3.1946,-3.2703,-3.3375,-3.3969,-3.4594,-3.4899,-3.4899,-3.4899,-3.4899,-3.4899,-3.4899,-3.4899,-3.4866,-3.4866,-3.493,-3.4792,-3.4415,-3.4148,-3.43,-3.4874,-3.5232,-3.5605,-3.6307,-3.6952,-3.7167,-3.7363,-3.7739,-3.8003,-3.8038,-3.7855,-3.7703,-3.7975,-3.7975,-3.7667,-3.7431,-3.6961,-3.5476,-3.4932,-3.4226,-3.3628,-3.3422,-3.3433,-3.3509,-3.3538,-3.3577,-3.3643,-3.3698,-3.3753,-3.378,-3.3807,-3.3807,-3.3807,-3.3807,-3.3807,-3.3807,-3.3476,-3.3385,-3.3073,-3.2173,-3.1329,-3.0705,-3.0031,-2.9209,-2.9067,-2.9134,-2.957,-2.9931,-2.9638,-2.9344,-2.9547,-2.9758,-2.9822,-2.9934,-3.0202,-3.0359,-3.0177,-2.9883,-2.9516,-2.8851,-2.7731,-2.7078,-2.4261,-2.4345,-2.4706,-2.4706,-2.4478,-2.4778,-2.4933,-2.4921,-2.5182,-2.5312,-2.5348,-2.5384,-2.5504,-2.5695,-2.6692,-2.7473,-2.8525,-2.9726,-3.0703,-3.0729,-3.0877,-3.0783,-3.0652,-3.0642,-3.0642,-3.0642,-3.0642,-3.0642,-3.0642,-3.0642,-3.0642,-3.0642,-3.0866,-3.1407,-3.2059,-3.2772,-3.3543,-3.43,-3.4707,-3.4899,-3.4899,-3.4899,-3.4899,-3.4899,-3.4899,-3.4899,-3.4899,-3.4947,-3.4977,-3.5211,-3.5531,-3.5778,-3.6071,-3.6451,-3.6916,-3.7216,-3.7666,-3.7893,-3.7928,-3.807,-3.8158,-3.8192,-3.8192,-3.8192,-3.8174,-3.8138,-3.8138,-3.7902,-3.7504,-3.6526,-3.5023,-3.4679,-3.4244,-3.3628,-3.3452,-3.3491,-3.3538,-3.3577,-3.3615,-3.3689,-3.3753,-3.378,-3.3807,-3.3807,-3.3807,-3.3807,-3.3807,-3.3807,-3.3807,-3.3788,-3.366,-3.3403,-3.2559,-3.1403,-3.0687,-3.0411,-2.9554,-2.9402,-2.9414,-2.9813,-3.0327,-3.0126,-2.9832,-2.9731,-2.9832,-2.9864,-2.9934,-3.0128,-3.0228,-3.0213,-3.013,-2.9863,-2.9074,-2.8098,-2.7628,-2.4429,-2.4706,-2.5052,-2.517,-2.5099,-2.5182,-2.5182,-2.5253,-2.5241,-2.5312,-2.5384,-2.5745,-2.5925,-2.6324,-2.7394,-2.8485,-2.9591,-3.0624,-3.0926,-3.0799,-3.0864,-3.0836,-3.0725,-3.0597,-3.0597,-3.0642,-3.0642,-3.0642,-3.0642,-3.0642,-3.0628,-3.0687,-3.1087,-3.1736,-3.254,-3.3198,-3.3866,-3.4546,-3.4851,-3.4899,-3.4899,-3.4899,-3.4899,-3.4899,-3.4899,-3.4899,-3.4899,-3.493,-3.5085,-3.5571,-3.578,-3.6251,-3.6729,-3.7037,-3.7255,-3.756,-3.7933,-3.8192,-3.8192,-3.8192,-3.8192,-3.8192,-3.8192,-3.8192,-3.8192,-3.8192,-3.8192,-3.8011,-3.7486,-3.6616,-3.5729,-3.5077,-3.4262,-3.3712,-3.3462,-3.352,-3.3577,-3.3661,-3.3671,-3.3726,-3.378,-3.3807,-3.3807,-3.3807,-3.3807,-3.3807,-3.3807,-3.3807,-3.3807,-3.3807,-3.377,-3.3458,-3.3018,-3.1733,-3.0522,-3.043,-3.0087,-2.9968,-2.9978,-3.0138,-3.0487,-3.0497,-3.0355,-3.0158,-2.9906,-2.9755,-2.9867,-3.0052,-3.0209,-3.029,-3.0232,-3.02,-2.9536,-2.8818,-2.8145,-2.4562,-2.5052,-2.5253,-2.5312,-2.5312,-2.5312,-2.5312,-2.5312,-2.5312,-2.5468,-2.5721,-2.5997,-2.6274,-2.6882,-2.8161,-2.9699,-3.0969,-3.1268,-3.1316,-3.1194,-3.0928,-3.0911,-3.0899,-3.0621,-3.0722,-3.0812,-3.0771,-3.0642,-3.0642,-3.0642,-3.0687,-3.0984,-3.1278,-3.1962,-3.2864,-3.3355,-3.4052,-3.4691,-3.4899,-3.4899,-3.4899,-3.4899,-3.4899,-3.4899,-3.4899,-3.4899,-3.4899,-3.4994,-3.5165,-3.5487,-3.583,-3.626,-3.6746,-3.7198,-3.754,-3.7844,-3.8072,-3.8192,-3.8192,-3.8192,-3.8192,-3.8192,-3.8192,-3.8192,-3.8192,-3.8192,-3.8192,-3.8083,-3.7938,-3.7105,-3.5928,-3.5403,-3.4679,-3.376,-3.3528,-3.3613,-3.3679,-3.3716,-3.3781,-3.3808,-3.378,-3.3807,-3.3807,-3.3807,-3.3807,-3.3807,-3.3807,-3.3807,-3.3807,-3.3807,-3.3807,-3.3568,-3.3183,-3.2284,-3.1164,-3.0944,-3.076,-3.0625,-3.0604,-3.0766,-3.0668,-3.068,-3.0612,-3.0448,-3.0147,-2.9701,-2.9851,-3.0022,-3.0202,-3.0343,-3.0325,-3.0248,-3.0028,-2.9576,-2.8783,-2.4539,-2.5099,-2.5241,-2.5312,-2.5312,-2.5453,-2.5453,-2.5324,-2.5574,-2.5852,-2.6081,-2.6358,-2.6781,-2.7567,-2.9086,-3.0844,-3.2506,-3.1942,-3.1638,-3.1476,-3.0912,-3.0856,-3.0931,-3.0791,-3.0557,-3.0988,-3.0814,-3.0642,-3.0642,-3.0642,-3.0866,-3.1161,-3.1336,-3.2018,-3.3024,-3.3511,-3.4102,-3.4529,-3.4899,-3.4899,-3.4899,-3.4899,-3.4899,-3.4899,-3.4899,-3.4899,-3.4899,-3.4994,-3.5211,-3.5503,-3.5868,-3.6242,-3.6574,-3.715,-3.7703,-3.8106,-3.8192,-3.8192,-3.8192,-3.8192,-3.8192,-3.8192,-3.8192,-3.8192,-3.8192,-3.8192,-3.8192,-3.8174,-3.7884,-3.7286,-3.6055,-3.5602,-3.4867,-3.4036,-3.3723,-3.3917,-3.4027,-3.4119,-3.4183,-3.411,-3.3917,-3.3807,-3.3807,-3.3807,-3.3807,-3.3807,-3.3807,-3.3807,-3.3807,-3.3807,-3.3788,-3.366,-3.3293,-3.2669,-3.2027,-3.1715,-3.1531,-3.1354,-3.136,-3.1449,-3.115,-3.0865,-3.0702,-3.0485,-2.9953,-2.9589,-2.9803,-2.9992,-3.0128,-3.0273,-3.0355,-3.0353,-3.0244,-2.9752,-2.8968,-2.4273,-2.4406,-2.5028,-2.5312,-2.5382,-2.5804,-2.5734,-2.5455,-2.6198,-2.6443,-2.6359,-2.7131,-2.7782,-2.8762,-3.0157,-3.1375,-3.1893,-3.1828,-3.1544,-3.1499,-3.0974,-3.0813,-3.0841,-3.0655,-3.0577,-3.08,-3.0611,-3.0582,-3.0511,-3.0511,-3.0881,-3.1278,-3.1709,-3.2296,-3.3198,-3.3697,-3.4184,-3.4529,-3.4804,-3.4899,-3.4899,-3.4899,-3.4899,-3.4899,-3.4899,-3.4899,-3.4947,-3.5041,-3.5304,-3.5739,-3.5955,-3.65,-3.7203,-3.7392,-3.7757,-3.8056,-3.8192,-3.8192,-3.8192,-3.8192,-3.8192,-3.8192,-3.8192,-3.8192,-3.8192,-3.8192,-3.8192,-3.8174,-3.77,-3.6993,-3.6123,-3.5356,-3.4497,-3.4331,-3.44,-3.4658,-3.4788,-3.4816,-3.4844,-3.4477,-3.4339,-3.399,-3.3807,-3.3807,-3.3807,-3.3807,-3.3807,-3.3807,-3.3807,-3.3807,-3.3807,-3.3715,-3.3568,-3.2999,-3.2614,-3.2357,-3.2236,-3.2052,-3.2041,-3.204,-3.1705,-3.1273,-3.0593,-3.0262,-2.9785,-2.9589,-2.982,-2.9996,-3.0118,-3.0228,-3.0359,-3.046,-3.0548,-2.988,-2.9138,-2.4478,-2.4886,-2.5523,-2.5594,-2.5382,-2.5943,-2.6058,-2.59,-2.6202,-2.6871,-2.7507,-2.7973,-2.8836,-3.0021,-3.1005,-3.1663,-3.2236,-3.1985,-3.1833,-3.1713,-3.1392,-3.1447,-3.1582,-3.0931,-3.0456,-3.0698,-3.0074,-2.9421,-2.9726,-3.0587,-3.1219,-3.158,-3.2089,-3.2749,-3.3387,-3.3882,-3.4349,-3.4643,-3.4851,-3.4899,-3.4899,-3.4899,-3.4899,-3.4899,-3.4899,-3.4947,-3.4994,-3.5152,-3.5337,-3.5639,-3.578,-3.6112,-3.6719,-3.7023,-3.7362,-3.7756,-3.8054,-3.8192,-3.8192,-3.8192,-3.8192,-3.8192,-3.8192,-3.8192,-3.8192,-3.8192,-3.8192,-3.8192,-3.795,-3.7334,-3.6731,-3.6321,-3.5745,-3.5422,-3.5279,-3.5483,-3.5659,-3.5669,-3.5605,-3.5165,-3.466,-3.4284,-3.3917,-3.3807,-3.3807,-3.3807,-3.3807,-3.3807,-3.3807,-3.3807,-3.3807,-3.3788,-3.3642,-3.3403,-3.3109,-3.2834,-3.2787,-3.2672,-3.252,-3.2471,-3.2205,-3.1714,-3.0928,-3.0262,-2.9818,-2.9757,-2.9893,-2.995,-3.0041,-3.0215,-3.0383,-3.0491,-3.0498,-2.9965,-2.9104,-2.4838,-2.5523,-2.6013,-2.5873,-2.5394,-2.6218,-2.6362,-2.6081,-2.6639,-2.7471,-2.845,-2.9051,-3.0033,-3.0992,-3.1368,-3.1909,-3.2434,-3.1931,-3.1692,-3.1587,-3.1273,-3.1013,-3.0759,-3.0115,-3.011,-3.1032,-2.9523,-2.9029,-2.9448,-3.007,-3.0956,-3.1693,-3.2235,-3.2964,-3.3678,-3.405,-3.4349,-3.4851,-3.4899,-3.4899,-3.4899,-3.4899,-3.4899,-3.4899,-3.4947,-3.4947,-3.5088,-3.5245,-3.5354,-3.5684,-3.5836,-3.6173,-3.6719,-3.7061,-3.738,-3.7739,-3.8088,-3.8192,-3.8192,-3.8192,-3.8192,-3.8192,-3.8192,-3.8225,-3.8225,-3.8207,-3.8241,-3.8274,-3.8252,-3.7831,-3.7339,-3.7093,-3.659,-3.6266,-3.6234,-3.641,-3.6578,-3.656,-3.6266,-3.5679,-3.5128,-3.4449,-3.4119,-3.3899,-3.3807,-3.3807,-3.3807,-3.3807,-3.3807,-3.3807,-3.3807,-3.3807,-3.3752,-3.3623,-3.3476,-3.3293,-3.329,-3.3232,-3.3105,-3.2674,-3.2302,-3.1737,-3.0965,-3.0392,-2.9834,-2.9795,-2.9839,-2.9902,-2.9996,-3.0228,-3.0436,-3.0482,-3.0361,-2.9888,-2.9223,-2.5277,-2.6164,-2.6151,-2.5886,-2.5513,-2.705,-2.7051,-2.6469,-2.7754,-2.8387,-2.9013,-3.0209,-3.0979,-3.1355,-3.1696,-3.1988,-3.2092,-3.0433,-3.0198,-2.9716,-2.8932,-2.9015,-2.9095,-2.9288,-2.9189,-2.9624,-2.8782,-2.8797,-2.9303,-2.93,-3.0188,-3.1034,-3.1998,-3.2732,-3.3471,-3.405,-3.4399,-3.4851,-3.4899,-3.4899,-3.4899,-3.4899,-3.4899,-3.4899,-3.4899,-3.493,-3.5088,-3.5291,-3.5594,-3.6002,-3.6156,-3.6533,-3.7073,-3.7305,-3.7578,-3.7949,-3.8106,-3.8192,-3.8192,-3.8192,-3.8192,-3.8192,-3.8225,-3.8241,-3.8274,-3.8307,-3.8322,-3.835,-3.835,-3.8072,-3.7544,-3.7174,-3.7138,-3.704,-3.7088,-3.7301,-3.7404,-3.7404,-3.7037,-3.6285,-3.5615,-3.4945,-3.4209,-3.3942,-3.3834,-3.3834,-3.3807,-3.3807,-3.3807,-3.3807,-3.3807,-3.3807,-3.3807,-3.377,-3.377,-3.3687,-3.3611,-3.3626,-3.361,-3.2884,-3.2154,-3.1551,-3.1095,-3.0299,-2.9762,-2.9777,-2.9787,-2.982,-2.9931,-3.0273,-3.0447,-3.0462,-3.0444,-3.0152,-2.9445,-2.5664,-2.622,-2.6905,-2.681,-2.6365,-2.7773,-2.8048,-2.7804,-2.8712,-2.9553,-3.0222,-3.1288,-3.179,-3.1769,-3.1564,-3.1422,-3.1058,-3.0295,-2.9583,-2.9389,-2.9072,-2.9082,-2.9123,-2.8713,-2.8826,-2.8782,-2.8129,-2.7578,-2.7777,-2.8488,-2.9094,-3.0053,-3.1471,-3.2803,-3.3604,-3.4168,-3.4643,-3.4787,-3.4899,-3.4899,-3.4899,-3.4899,-3.4899,-3.4899,-3.5011,-3.5105,-3.5245,-3.5605,-3.5898,-3.6241,-3.6509,-3.6995,-3.7432,-3.7524,-3.7772,-3.8122,-3.8192,-3.8192,-3.8192,-3.8192,-3.8192,-3.8225,-3.8241,-3.8274,-3.8307,-3.8354,-3.8368,-3.8382,-3.8446,-3.8191,-3.8149,-3.8101,-3.8077,-3.7906,-3.7888,-3.8083,-3.812,-3.8065,-3.7386,-3.645,-3.5975,-3.5494,-3.471,-3.3965,-3.3895,-3.386,-3.3834,-3.3807,-3.3807,-3.3807,-3.3807,-3.3807,-3.3807,-3.3807,-3.3815,-3.3842,-3.3895,-3.3972,-3.403,-3.321,-3.2349,-3.1908,-3.1374,-3.0485,-2.9744,-2.9718,-2.972,-2.9699,-2.9899,-3.0222,-3.0356,-3.0393,-3.0338,-3.0331,-2.9708,-2.6126,-2.6769,-2.751,-2.7449,-2.7119,-2.8213,-2.8524,-2.852,-2.9109,-3.0103,-3.1206,-3.1702,-3.1911,-3.1721,-3.1056,-3.0581,-2.9997,-2.9402,-2.8771,-2.8457,-2.8493,-2.8834,-2.8596,-2.834,-2.8071,-2.8042,-2.749,-2.6924,-2.7345,-2.7838,-2.8479,-2.948,-3.0853,-3.2408,-3.3498,-3.4415,-3.4804,-3.4899,-3.4899,-3.4899,-3.4899,-3.4899,-3.4947,-3.4947,-3.5058,-3.5304,-3.5532,-3.5898,-3.6291,-3.6626,-3.6964,-3.7269,-3.756,-3.7753,-3.7871,-3.8083,-3.8192,-3.8192,-3.8192,-3.8192,-3.8225,-3.8256,-3.8274,-3.8322,-3.8336,-3.8401,-3.8465,-3.8496,-3.8528,-3.8541,-3.8559,-3.8548,-3.853,-3.8291,-3.8328,-3.8487,-3.8505,-3.8414,-3.7477,-3.6541,-3.6159,-3.5717,-3.4684,-3.3895,-3.3868,-3.3834,-3.3834,-3.3807,-3.3807,-3.3807,-3.3807,-3.3807,-3.3807,-3.3834,-3.3815,-3.3895,-3.3972,-3.4023,-3.3951,-3.3388,-3.2688,-3.2265,-3.1392,-3.0206,-2.969,-2.9658,-2.9643,-2.9626,-2.9864,-3.0216,-3.0325,-3.0423,-3.0501,-3.0457,-3.0057,-2.6837,-2.7723,-2.7776,-2.7523,-2.7237,-2.8137,-2.8369,-2.8228,-2.9096,-3.006,-3.1043,-3.133,-3.1287,-3.1029,-3.0174,-2.9604,-2.8991,-2.7954,-2.7281,-2.7211,-2.7088,-2.6645,-2.6791,-2.6982,-2.7418,-2.752,-2.7157,-2.7041,-2.7574,-2.7565,-2.812,-2.9235,-3.0761,-3.2191,-3.2867,-3.3974,-3.4626,-3.4851,-3.4899,-3.4899,-3.4899,-3.4899,-3.4947,-3.5165,-3.5211,-3.547,-3.5968,-3.6249,-3.6684,-3.7135,-3.7394,-3.7703,-3.7984,-3.807,-3.8138,-3.8174,-3.8192,-3.8192,-3.8225,-3.8192,-3.8274,-3.8336,-3.8336,-3.8368,-3.8465,-3.8528,-3.8559,-3.8609,-3.8658,-3.8658,-3.8707,-3.8707,-3.8707,-3.8707,-3.8707,-3.8707,-3.8707,-3.8395,-3.7422,-3.6534,-3.6185,-3.5744,-3.4623,-3.3834,-3.3834,-3.3807,-3.3807,-3.3807,-3.3807,-3.3807,-3.3807,-3.3807,-3.3807,-3.3834,-3.3842,-3.3947,-3.4023,-3.4074,-3.3944,-3.3467,-3.3045,-3.2637,-3.1563,-3.0095,-2.9837,-3.0027,-2.977,-2.9512,-2.9851,-3.0163,-3.0398,-3.052,-3.062,-3.0607,-3.0255,-2.7456,-2.7855,-2.8183,-2.8249,-2.8198,-2.8879,-2.905,-2.9088,-2.972,-3.0308,-3.0734,-3.1053,-3.0758,-3.0133,-2.9591,-2.879,-2.7686,-2.6952,-2.628,-2.6117,-2.6103,-2.6181,-2.6351,-2.6635,-2.6924,-2.6997,-2.6905,-2.7047,-2.7461,-2.7512,-2.8016,-2.915,-3.1055,-3.2722,-3.3858,-3.4673,-3.4835,-3.4899,-3.4899,-3.4899,-3.4899,-3.4947,-3.5118,-3.5453,-3.5526,-3.5864,-3.6481,-3.6724,-3.7152,-3.7542,-3.7739,-3.8021,-3.8192,-3.8192,-3.8192,-3.8192,-3.8225,-3.8241,-3.8289,-3.8354,-3.8336,-3.8382,-3.8415,-3.8446,-3.851,-3.8609,-3.8658,-3.8658,-3.8707,-3.8707,-3.8707,-3.8707,-3.8707,-3.8707,-3.8707,-3.8707,-3.8597,-3.8046,-3.7342,-3.6517,-3.5993,-3.5338,-3.4386,-3.3879,-3.3807,-3.3807,-3.3807,-3.3807,-3.3807,-3.3807,-3.3807,-3.3807,-3.3807,-3.386,-3.3913,-3.3947,-3.4023,-3.4099,-3.4018,-3.3751,-3.3343,-3.2971,-3.1912,-3.0578,-3.0466,-3.0395,-2.99,-2.957,-2.9799,-3.0075,-3.0333,-3.0557,-3.065,-3.0704,-3.0632,-2.7482,-2.7811,-2.8275,-2.8461,-2.8627,-2.9007,-2.9295,-2.9562,-2.9943,-3.0188,-3.0432,-3.0622,-3.0133,-2.9292,-2.8614,-2.8102,-2.6603,-2.615,-2.6007,-2.5812,-2.6125,-2.6326,-2.6553,-2.6659,-2.6808,-2.6832,-2.6989,-2.7211,-2.7461,-2.769,-2.8688,-3.0228,-3.1556,-3.3135,-3.4325,-3.4883,-3.4899,-3.4899,-3.4899,-3.4899,-3.4899,-3.4977,-3.5178,-3.5599,-3.589,-3.6215,-3.6847,-3.7303,-3.7596,-3.7756,-3.7985,-3.8192,-3.8192,-3.8192,-3.8192,-3.8192,-3.8241,-3.8289,-3.8368,-3.8415,-3.8446,-3.8496,-3.851,-3.851,-3.8559,-3.8658,-3.8658,-3.8707,-3.8707,-3.8707,-3.8707,-3.8707,-3.8707,-3.8707,-3.8707,-3.8707,-3.8524,-3.801,-3.725,-3.6425,-3.557,-3.4866,-3.4277,-3.4057,-3.3807,-3.3807,-3.3807,-3.3807,-3.3807,-3.3807,-3.3807,-3.3834,-3.3834,-3.3887,-3.3913,-3.3972,-3.4049,-3.4142,-3.4043,-3.39,-3.3579,-3.317,-3.2117,-3.1206,-3.1043,-3.0674,-2.9903,-2.9644,-2.9864,-3.0089,-3.0364,-3.0527,-3.0667,-3.0724,-3.0739,-2.6937,-2.7623,-2.7961,-2.8214,-2.8529,-2.8465,-2.8845,-2.9428,-2.9442,-2.9754,-3.0269,-2.9713,-2.9184,-2.8424,-2.7434,-2.6753,-2.629,-2.5939,-2.606,-2.6218,-2.6433,-2.6606,-2.6727,-2.6779,-2.6794,-2.6937,-2.7144,-2.7335,-2.7488,-2.8238,-2.9722,-3.1338,-3.2112,-3.3439,-3.4388,-3.4899,-3.4899,-3.4899,-3.4899,-3.4899,-3.4899,-3.4947,-3.5362,-3.5776,-3.6088,-3.6626,-3.719,-3.7632,-3.781,-3.802,-3.8192,-3.8192,-3.8192,-3.8192,-3.8192,-3.8225,-3.8241,-3.8336,-3.8382,-3.8428,-3.8559,-3.8609,-3.8559,-3.859,-3.864,-3.8689,-3.8689,-3.8707,-3.8707,-3.8707,-3.8707,-3.8707,-3.8707,-3.8707,-3.8707,-3.8634,-3.8542,-3.7955,-3.711,-3.6258,-3.5358,-3.4641,-3.4089,-3.3807,-3.3807,-3.3807,-3.3807,-3.3834,-3.3834,-3.3807,-3.3807,-3.3834,-3.386,-3.3895,-3.3947,-3.3998,-3.4074,-3.4148,-3.4154,-3.403,-3.3709,-3.3369,-3.2558,-3.1894,-3.1559,-3.0956,-2.9922,-2.9681,-2.9912,-3.015,-3.034,-3.0491,-3.0633,-3.0662,-3.0618,-2.6998,-2.7067,-2.733,-2.7393,-2.7311,-2.7339,-2.7895,-2.8763,-2.8845,-2.8994,-2.9116,-2.9387,-2.8587,-2.7366,-2.7393,-2.6676,-2.61,-2.5689,-2.5936,-2.6204,-2.6472,-2.6592,-2.6727,-2.6794,-2.6794,-2.6937,-2.7181,-2.7575,-2.7978,-2.8764,-3.0158,-3.1767,-3.2364,-3.3515,-3.4402,-3.4899,-3.4899,-3.4899,-3.4899,-3.4899,-3.4947,-3.4994,-3.5526,-3.6028,-3.6364,-3.6999,-3.765,-3.7933,-3.8106,-3.8158,-3.8192,-3.8192,-3.8192,-3.8192,-3.8192,-3.8207,-3.8289,-3.8401,-3.8415,-3.8528,-3.8658,-3.8689,-3.8658,-3.8658,-3.8707,-3.8707,-3.8707,-3.8707,-3.8707,-3.8707,-3.8707,-3.8707,-3.8707,-3.8707,-3.8707,-3.8652,-3.845,-3.7753,-3.6927,-3.6248,-3.5349,-3.4614,-3.4045,-3.3807,-3.3807,-3.3807,-3.3807,-3.3834,-3.386,-3.3834,-3.386,-3.3887,-3.3913,-3.3939,-3.3998,-3.4074,-3.4124,-3.4173,-3.4179,-3.416,-3.4048,-3.3634,-3.3045,-3.2307,-3.1433,-3.0565,-2.9678,-2.9681,-2.9896,-3.0075,-3.0266,-3.0424,-3.0559,-3.0631,-3.0587,-2.6476,-2.6503,-2.6726,-2.6804,-2.6809,-2.6823,-2.7271,-2.7841,-2.7908,-2.7895,-2.7936,-2.8234,-2.7691,-2.6687,-2.6821,-2.6593,-2.5744,-2.5867,-2.6165,-2.6433,-2.6472,-2.6645,-2.6779,-2.6794,-2.6794,-2.6989,-2.7321,-2.7745,-2.824,-2.9215,-3.0567,-3.2082,-3.2578,-3.3561,-3.4468,-3.4899,-3.4899,-3.4899,-3.4899,-3.4947,-3.4994,-3.5071,-3.5671,-3.6364,-3.6666,-3.7283,-3.802,-3.8158,-3.8192,-3.8192,-3.8192,-3.8192,-3.8192,-3.8192,-3.8192,-3.8207,-3.8322,-3.8401,-3.8415,-3.8596,-3.8676,-3.8707,-3.8707,-3.8707,-3.8707,-3.8707,-3.8707,-3.8707,-3.8707,-3.8707,-3.8707,-3.8707,-3.8707,-3.8707,-3.8707,-3.8707,-3.8138,-3.7477,-3.6853,-3.6248,-3.5495,-3.4706,-3.4229,-3.399,-3.3834,-3.3834,-3.386,-3.3842,-3.3868,-3.3868,-3.3895,-3.3921,-3.3947,-3.3991,-3.4049,-3.4099,-3.4148,-3.4173,-3.4197,-3.4197,-3.4216,-3.39,-3.3268,-3.2135,-3.0913,-3.0213,-2.9603,-2.9663,-2.9832,-3.0032,-3.0216,-3.0372,-3.0532,-3.0639,-3.0544,-2.5643,-2.5891,-2.6109,-2.6352,-2.6619,-2.6592,-2.6633,-2.6687,-2.6687,-2.6769,-2.6877,-2.6877,-2.6647,-2.6204,-2.6352,-2.6297,-2.5993,-2.6042,-2.6326,-2.6779,-2.6727,-2.6779,-2.6779,-2.6794,-2.6884,-2.713,-2.7545,-2.811,-2.8432,-2.9369,-3.0745,-3.2331,-3.2607,-3.3442,-3.4651,-3.4883,-3.4947,-3.4963,-3.4963,-3.5011,-3.5088,-3.5258,-3.5571,-3.6422,-3.6786,-3.7152,-3.7845,-3.814,-3.8192,-3.8192,-3.8192,-3.8192,-3.8192,-3.8192,-3.8192,-3.8259,-3.8354,-3.8368,-3.8465,-3.8596,-3.8676,-3.8707,-3.8707,-3.8707,-3.8707,-3.8707,-3.8707,-3.8707,-3.8707,-3.8707,-3.8707,-3.8707,-3.8707,-3.8707,-3.8707,-3.8707,-3.8432,-3.7716,-3.703,-3.6368,-3.5579,-3.4862,-3.4651,-3.4393,-3.3887,-3.3887,-3.3895,-3.3895,-3.3939,-3.3965,-3.3972,-3.3998,-3.4023,-3.4049,-3.4099,-3.4148,-3.413,-3.4173,-3.4197,-3.4216,-3.4216,-3.39,-3.3486,-3.2205,-3.0906,-3.0267,-2.9772,-2.9776,-2.982,-3.0032,-3.0216,-3.0356,-3.051,-3.0626,-3.0585,-2.5521,-2.5589,-2.5392,-2.5374,-2.5439,-2.5439,-2.548,-2.5439,-2.5695,-2.6185,-2.6687,-2.6742,-2.6457,-2.599,-2.6153,-2.6133,-2.6046,-2.6258,-2.6472,-2.6712,-2.6794,-2.6832,-2.6846,-2.6899,-2.6989,-2.7372,-2.7929,-2.8575,-2.9196,-2.9972,-3.0833,-3.2249,-3.264,-3.3425,-3.4783,-3.4899,-3.4947,-3.5011,-3.5105,-3.5105,-3.5152,-3.5383,-3.5711,-3.6266,-3.6603,-3.7076,-3.7685,-3.8054,-3.814,-3.8192,-3.8192,-3.8192,-3.8192,-3.8192,-3.8192,-3.8225,-3.8322,-3.8382,-3.8465,-3.8578,-3.8658,-3.8707,-3.8707,-3.8707,-3.8707,-3.8707,-3.8689,-3.8689,-3.8707,-3.8707,-3.8707,-3.8707,-3.8707,-3.8707,-3.8707,-3.8707,-3.8707,-3.8021,-3.7232,-3.6544,-3.5754,-3.5322,-3.5082,-3.4613,-3.4123,-3.3947,-3.3972,-3.3991,-3.4079,-3.4123,-3.4049,-3.4074,-3.4074,-3.4099,-3.4148,-3.4173,-3.4173,-3.4173,-3.4197,-3.4216,-3.4216,-3.379,-3.3272,-3.2136,-3.101,-3.0581,-3.0124,-2.9719,-2.979,-3.0041,-3.0163,-3.0309,-3.0492,-3.0637,-3.0611,-2.5383,-2.5439,-2.5131,-2.5005,-2.5005,-2.5005,-2.5061,-2.5201,-2.5257,-2.5727,-2.6304,-2.6243,-2.6021,-2.5807,-2.6021,-2.619,-2.6125,-2.6379,-2.6606,-2.6779,-2.6832,-2.6937,-2.7003,-2.7055,-2.7321,-2.7695,-2.8334,-2.9028,-2.9853,-3.0217,-3.092,-3.2302,-3.2751,-3.3408,-3.47,-3.4947,-3.5011,-3.5105,-3.5198,-3.5245,-3.5291,-3.5475,-3.579,-3.6199,-3.662,-3.7094,-3.7523,-3.7933,-3.814,-3.8192,-3.8192,-3.8192,-3.8192,-3.8192,-3.8192,-3.8241,-3.8322,-3.8382,-3.8465,-3.8546,-3.8707,-3.8707,-3.867,-3.867,-3.8083,-3.8065,-3.8395,-3.8432,-3.867,-3.8707,-3.8707,-3.8707,-3.8707,-3.8707,-3.8707,-3.8707,-3.8689,-3.8377,-3.8033,-3.7805,-3.6914,-3.5938,-3.5524,-3.4629,-3.4286,-3.4559,-3.4511,-3.4456,-3.4488,-3.4346,-3.4253,-3.4124,-3.4142,-3.4167,-3.4173,-3.4197,-3.4197,-3.4216,-3.4216,-3.4197,-3.416,-3.3672,-3.3043,-3.2297,-3.1685,-3.1247,-3.0775,-3.0242,-2.994,-3.0094,-3.0174,-3.0235,-3.0432,-3.0634,-3.0645,-2.5188,-2.5369,-2.5131,-2.5005,-2.5005,-2.5005,-2.5131,-2.5369,-2.5244,-2.5397,-2.5841,-2.5744,-2.5592,-2.5647,-2.5853,-2.6096,-2.6297,-2.6539,-2.6779,-2.6794,-2.6794,-2.6989,-2.7196,-2.7401,-2.771,-2.8207,-2.8826,-2.9483,-3.0231,-3.0537,-3.1248,-3.2464,-3.3044,-3.3524,-3.4532,-3.5058,-3.5105,-3.5245,-3.5354,-3.5492,-3.5508,-3.5537,-3.5861,-3.6259,-3.6678,-3.7094,-3.7523,-3.7898,-3.8158,-3.8192,-3.8192,-3.8192,-3.8192,-3.8192,-3.8225,-3.8241,-3.8336,-3.8382,-3.8465,-3.8578,-3.8658,-3.8689,-3.8652,-3.8285,-3.7691,-3.7533,-3.7845,-3.8175,-3.8414,-3.8615,-3.8615,-3.8719,-3.8719,-3.8719,-3.8719,-3.8719,-3.8701,-3.8701,-3.8688,-3.8637,-3.7708,-3.662,-3.5855,-3.4984,-3.4807,-3.5073,-3.521,-3.5187,-3.5076,-3.4779,-3.4575,-3.4358,-3.4191,-3.4216,-3.4216,-3.4216,-3.4216,-3.4216,-3.4216,-3.4197,-3.4093,-3.3732,-3.3419,-3.3083,-3.2523,-3.1916,-3.1374,-3.0863,-3.0595,-3.0376,-3.018,-3.0254,-3.0472,-3.0642,-3.0689,-2.5244,-2.5075,-2.5005,-2.5005,-2.5005,-2.5005,-2.5061,-2.5174,-2.5578,-2.5688,-2.5757,-2.6042,-2.6042,-2.5839,-2.6082,-2.6283,-2.6404,-2.6659,-2.6779,-2.6794,-2.6794,-2.7041,-2.7386,-2.7695,-2.8125,-2.8764,-2.9467,-3.0027,-3.0458,-3.0978,-3.1742,-3.263,-3.3375,-3.3985,-3.4792,-3.5152,-3.5215,-3.5354,-3.5429,-3.552,-3.5639,-3.5711,-3.5888,-3.6241,-3.6678,-3.7076,-3.7505,-3.7985,-3.8158,-3.8192,-3.8192,-3.8192,-3.8192,-3.8192,-3.8225,-3.8274,-3.8336,-3.8415,-3.8496,-3.8627,-3.8658,-3.8634,-3.8414,-3.779,-3.7202,-3.6725,-3.7092,-3.7533,-3.7856,-3.8272,-3.8382,-3.8688,-3.8792,-3.8822,-3.8851,-3.8851,-3.8851,-3.8833,-3.8844,-3.8393,-3.7683,-3.7026,-3.6591,-3.5877,-3.5403,-3.5706,-3.604,-3.5973,-3.5565,-3.5274,-3.4934,-3.4569,-3.4253,-3.4216,-3.4216,-3.4216,-3.4216,-3.4216,-3.4216,-3.4216,-3.4099,-3.3895,-3.3622,-3.3417,-3.2985,-3.2408,-3.1901,-3.1615,-3.1219,-3.0956,-3.0433,-3.0299,-3.0511,-3.0642,-3.0684]},{"header":{"parameterUnit":"m.s-1","parameterCategory":1,"la1":31.0,"la2":29.5877,"lo1":-88.7671,"lo2":-86.6584,"dy":0.0162,"dx":0.0185,"nx":115,"ny":88,"refTime":"2023-08-25T06:00:00:Z","depth":0,"parameterNumber":3,"parameterNumberName":"V-component_of_WINDS"},"data":[0.0,0.0,0.0,0.0,0.0,0.0,0.0,0.0,0.0,0.0,0.0,0.0,0.0,0.0,0.0,0.0,0.0,0.0,0.0,0.0,0.0,0.0,0.0,0.0,0.0,0.0,0.0,0.0,0.0,0.0,0.0,0.0,0.0,0.0,0.0,0.0,0.0,0.0,0.0,0.0,0.0,0.0,0.0,0.0,0.0,0.0,0.0,0.0,0.0,0.0,0.0,0.0,0.0,0.0,0.0,0.0,0.0,0.0,0.0,0.0,0.0,0.0,0.0,0.0,0.0,0.0,0.0,0.0,0.0,0.0,0.0,0.0,0.0,0.0,0.0,0.0,0.0,0.0,0.0,0.0,0.0,0.0,0.0,0.0,0.0,0.0,0.0,0.0,0.0,0.0,0.0,0.0,0.0,0.0,0.0,0.0,0.0,0.0,0.0,0.0,0.0,0.0,0.0,0.0,0.0,0.0,0.0,0.0,0.0,0.0,0.0,0.0,0.0,0.0,0.0,0.0,0.0,0.0,0.0,0.0,0.0,0.0,0.0,0.0,0.0,0.0,0.0,0.0,0.0,0.0,0.0,0.0,0.0,0.0,0.0,0.0,0.0,0.0,0.0,0.0,0.0,0.0,0.0,0.0,0.0,0.0,0.0,0.0,0.0,0.0,0.0,0.0,0.0,0.0,0.0,0.0,0.0,0.0,0.0,0.0,0.0,0.0,0.0,0.0,0.0,0.0,0.0,0.0,0.0,0.0,0.0,0.0,0.0,0.0,0.0,0.0,0.0,0.0,0.0,0.0,0.0,0.0,0.0,0.0,0.0,0.0,0.0,0.0,0.0,0.0,0.0,0.0,0.0,0.0,0.0,0.0,0.0,0.0,0.0,0.0,0.0,0.0,0.0,0.0,0.0,0.0,0.0,0.0,0.0,0.0,0.0,0.0,0.0,0.0,0.0,0.0,0.0,0.0,0.0,0.0,0.0,0.0,0.0,0.0,0.0,0.0,0.0,0.0,0.0,0.0,0.0,0.0,0.0,0.0,0.0,0.0,0.0,0.0,0.0,0.0,0.0,0.0,0.0,0.0,0.0,0.0,0.0,0.0,0.0,0.0,0.0,0.0,0.0,0.0,0.0,0.0,0.0,0.0,0.0,0.0,0.0,0.0,0.0,0.0,0.0,0.0,0.0,0.0,0.0,0.0,0.0,0.0,0.0,0.0,0.0,0.0,0.0,0.0,0.0,0.0,0.0,0.0,0.0,0.0,0.0,0.0,0.0,0.0,0.0,0.0,0.0,0.0,0.0,0.0,0.0,0.0,0.0,0.0,0.0,0.0,0.0,0.0,0.0,0.0,0.0,0.0,0.0,0.0,0.0,0.0,0.0,0.0,0.0,0.0,0.0,0.0,0.0,0.0,0.0,0.0,0.0,0.0,0.0,0.0,0.0,0.0,0.0,0.0,0.0,0.0,0.0,0.0,0.0,0.0,0.0,0.0,0.0,0.0,0.0,0.0,0.0,0.0,0.0,0.0,0.0,0.0,0.0,0.0,0.0,0.0,0.0,0.0,0.0,0.0,0.0,0.0,0.0,0.0,0.0,0.0,0.0,0.0,0.0,0.0,0.0,0.0,0.0,0.0,0.0,0.0,0.0,0.0,0.0,0.0,0.0,0.0,0.0,0.0,0.0,0.0,0.0,0.0,0.0,0.0,0.0,0.0,0.0,0.0,0.0,0.0,0.0,0.0,0.0,0.0,0.0,0.0,0.0,0.0,0.0,0.0,0.0,0.0,0.0,0.0,0.0,0.0,0.0,0.0,0.0,0.0,0.0,0.0,0.0,0.0,0.0,0.0,0.0,0.0,0.0,0.0,0.0,0.0,0.0,0.0,0.0,0.0,0.0,0.0,0.0,0.0,0.0,0.0,0.0,0.0,0.0,0.0,0.0,0.0,0.0,0.0,0.0,0.0,0.0,0.0,0.0,0.0,0.0,0.0,0.0,0.0,0.0,0.0,0.0,0.0,0.0,0.0,0.0,0.0,0.0,0.0,0.0,0.0,0.0,0.0,0.0,0.0,0.0,0.0,0.0,0.0,0.0,0.0,0.0,0.0,0.0,0.0,0.0,0.0,0.0,0.0,0.0,0.0,0.0,0.0,0.0,0.0,0.0,0.0,0.0,0.0,0.0,0.0,0.0,0.0,0.0,0.0,0.0,0.0,0.0,0.0,0.0,0.0,0.0,0.0,0.0,0.0,0.0,0.0,0.0,0.0,0.0,0.0,0.0,0.0,0.0,0.0,0.0,0.0,0.0,0.0,0.0,0.0,0.0,0.0,0.0,0.0,0.0,0.0,0.0,0.0,0.0,0.0,0.0,0.0,0.0,0.0,0.0,0.0,0.0,0.0,0.0,0.0,0.0,0.0,0.0,0.0,0.0,0.0,0.0,0.0,0.0,0.0,0.0,0.0,0.0,0.0,0.0,0.0,0.0,0.0,0.0,0.0,0.0,0.0,0.0,0.0,0.0,0.0,0.0,0.0,0.0,0.0,0.0,0.0,0.0,0.0,0.0,0.0,0.0,0.0,0.0,0.0,0.0,0.0,0.0,0.0,0.0,0.0,0.0,0.0,0.0,0.0,0.0,0.0,0.0,0.0,0.0,0.0,0.0,0.0,0.0,0.0,0.0,0.0,0.0,0.0,0.0,0.0,0.0,0.0,0.0,0.0,0.0,0.0,0.0,0.0,0.0,0.0,0.0,0.0,0.0,0.0,0.0,0.0,0.0,0.0,0.0,0.0,0.0,0.0,0.0,0.0,0.0,0.0,0.0,0.0,0.0,0.0,0.0,0.0,0.0,0.0,0.0,0.0,0.0,0.0,0.0,0.0,0.0,0.0,0.0,0.0,0.0,0.0,0.0,0.0,0.0,0.0,0.0,0.0,0.0,0.0,0.0,0.0,0.0,0.0,0.0,0.0,0.0,0.0,0.0,0.0,0.0,0.0,0.0,0.0,0.0,0.0,0.0,0.0,0.0,0.0,0.0,0.0,0.0,0.0,0.0,0.0,0.0,0.0,0.0,0.0,0.0,0.0,0.0,0.0,0.0,0.0,0.0,0.0,0.0,0.0,0.0,0.0,0.0,0.0,0.0,0.0,0.0,0.0,0.0,0.0,0.0,0.0,0.0,0.0,0.0,0.0,0.0,0.0,0.0,0.0,0.0,0.0,0.0,0.0,0.0,0.0,0.0,0.0,0.0,0.0,0.0,0.0,0.0,0.0,0.0,0.0,0.0,0.0,0.0,0.0,0.0,0.0,0.0,0.0,0.0,0.0,0.0,0.0,0.0,0.0,0.0,0.0,0.0,0.0,0.0,0.0,0.0,0.0,0.0,0.0,0.0,0.0,0.0,0.0,0.0,0.0,0.0,0.0,0.0,0.0,0.0,0.0,0.0,0.0,0.0,0.0,0.0,0.0,0.0,0.0,0.0,0.0,0.0,0.0,0.0,0.0,0.0,0.0,0.0,0.0,0.0,0.0,0.0,0.0,0.0,0.0,0.0,0.0,0.0,0.0,0.0,0.0,0.0,0.0,0.0,0.0,0.0,0.0,0.0,0.0,0.0,0.0,0.0,0.0,0.0,0.0,0.0,0.0,0.0,0.0,0.0,0.0,0.0,0.0,0.0,0.0,0.0,0.0,0.0,0.0,0.0,0.0,0.0,0.0,0.0,0.0,0.0,0.0,0.0,0.0,0.0,0.0,0.0,0.0,0.0,0.0,0.0,0.0,0.0,0.0,0.0,0.0,0.0,0.0,0.0,0.0,0.0,0.0,0.0,0.0,0.0,0.0,0.0,0.0,0.0,0.0,0.0,0.0,0.0,0.0,0.0,0.0,0.0,0.0,0.0,0.0,0.0,0.0,0.0,0.0,0.0,0.0,0.0,0.0,0.0,0.0,0.0,0.0,0.0,0.0,0.0,0.0,0.0,0.0,0.0,0.0,0.0,0.0,0.0,0.0,0.0,0.0,0.0,0.0,0.0,0.0,0.0,0.0,0.0,0.0,0.0,0.0,0.0,0.0,0.0,0.0,0.0,0.0,0.0,0.0,0.0,0.0,0.0,0.0,0.0,0.0,0.0,0.0,0.0,0.0,0.0,0.0,0.0,0.0,0.0,0.0,0.0,0.0,0.0,0.0,0.0,0.0,0.0,0.0,0.0,0.0,0.0,0.0,0.0,0.0,0.0,0.0,0.0,0.0,0.0,0.0,0.0,0.0,0.0,0.0,0.0,0.0,0.0,0.0,-1.4693,0.0,0.0,0.0,0.0,0.0,0.0,0.0,0.0,0.0,0.0,0.0,0.0,0.0,0.0,0.0,0.0,0.0,0.0,0.0,0.0,0.0,0.0,0.0,0.0,0.0,0.0,0.0,0.0,0.0,0.0,0.0,0.0,0.0,0.0,0.0,0.0,0.0,0.0,0.0,0.0,0.0,0.0,0.0,0.0,0.0,0.0,0.0,0.0,0.0,0.0,0.0,0.0,0.0,0.0,0.0,0.0,0.0,0.0,0.0,0.0,0.0,0.0,0.0,0.0,0.0,0.0,0.0,0.0,0.0,0.0,0.0,0.0,0.0,0.0,0.0,0.0,0.0,0.0,0.0,0.0,0.0,0.0,0.0,0.0,0.0,0.0,0.0,0.0,0.0,0.0,0.0,0.0,0.0,0.0,0.0,0.0,0.0,0.0,0.0,0.0,0.0,0.0,0.0,0.0,0.0,0.0,0.0,0.0,0.0,0.0,-1.9693,-1.8756,-1.7083,-1.5677,-1.4572,0.0,0.0,0.0,0.0,0.0,0.0,0.0,0.0,0.0,0.0,0.0,0.0,0.0,0.0,0.0,0.0,0.0,0.0,0.0,0.0,0.0,0.0,0.0,0.0,0.0,0.0,0.0,0.0,0.0,0.0,0.0,0.0,0.0,0.0,0.0,0.0,0.0,0.0,0.0,0.0,0.0,0.0,0.0,0.0,0.0,0.0,0.0,0.0,0.0,0.0,0.0,0.0,0.0,0.0,0.0,0.0,0.0,0.0,0.0,0.0,0.0,0.0,0.0,0.0,0.0,0.0,0.0,0.0,0.0,0.0,0.0,0.0,0.0,0.0,0.0,0.0,0.0,0.0,0.0,0.0,0.0,0.0,0.0,0.0,0.0,0.0,0.0,0.0,0.0,0.0,0.0,0.0,0.0,0.0,0.0,0.0,0.0,0.0,0.0,0.0,0.0,0.0,0.0,0.0,0.0,0.0,0.0,0.0,0.0,0.0,0.0,0.0,-1.7039,-1.5591,-1.3833,0.0,0.0,0.0,0.0,0.0,0.0,0.0,0.0,0.0,0.0,0.0,0.0,0.0,0.0,0.0,0.0,0.0,0.0,0.0,0.0,0.0,0.0,0.0,0.0,0.0,0.0,0.0,0.0,0.0,0.0,0.0,0.0,0.0,0.0,0.0,0.0,0.0,0.0,0.0,0.0,0.0,0.0,0.0,0.0,0.0,0.0,0.0,0.0,0.0,0.0,0.0,0.0,0.0,0.0,0.0,0.0,0.0,0.0,0.0,0.0,0.0,0.0,0.0,0.0,0.0,0.0,0.0,0.0,0.0,0.0,0.0,0.0,0.0,0.0,0.0,0.0,0.0,0.0,0.0,0.0,0.0,0.0,0.0,0.0,0.0,0.0,0.0,0.0,0.0,0.0,0.0,0.0,0.0,0.0,0.0,0.0,0.0,0.0,0.0,0.0,0.0,0.0,0.0,0.0,0.0,0.0,0.0,0.0,0.0,0.0,-1.9123,-1.8133,-1.7789,0.0,-1.3225,0.0,0.0,0.0,0.0,0.0,0.0,0.0,0.0,0.0,0.0,0.0,0.0,0.0,0.0,0.0,0.0,0.0,0.0,0.0,0.0,0.0,0.0,0.0,0.0,0.0,0.0,0.0,0.0,0.0,0.0,0.0,0.0,0.0,0.0,0.0,0.0,0.0,0.0,0.0,0.0,0.0,0.0,0.0,0.0,0.0,0.0,0.0,0.0,0.0,0.0,0.0,0.0,0.0,0.0,0.0,0.0,0.0,0.0,0.0,0.0,0.0,0.0,0.0,0.0,0.0,0.0,0.0,0.0,0.0,0.0,0.0,0.0,0.0,0.0,0.0,0.0,0.0,0.0,0.0,0.0,0.0,0.0,0.0,0.0,0.0,0.0,0.0,0.0,0.0,0.0,0.0,0.0,0.0,0.0,0.0,0.0,0.0,0.0,0.0,0.0,0.0,0.0,0.0,0.0,0.0,0.0,0.0,0.0,0.0,0.0,-1.9309,-1.8288,-1.7121,-1.5666,0.0,0.0,0.0,0.0,0.0,0.0,0.0,0.0,0.0,0.0,0.0,0.0,0.0,0.0,0.0,0.0,0.0,0.0,0.0,0.0,0.0,0.0,0.0,0.0,0.0,0.0,0.0,0.0,0.0,0.0,0.0,0.0,0.0,0.0,0.0,0.0,0.0,0.0,0.0,0.0,0.0,0.0,0.0,0.0,0.0,0.0,0.0,0.0,0.0,0.0,0.0,0.0,0.0,0.0,0.0,0.0,0.0,0.0,0.0,0.0,0.0,0.0,0.0,0.0,0.0,0.0,0.0,0.0,0.0,0.0,0.0,0.0,0.0,0.0,0.0,0.0,0.0,0.0,0.0,0.0,0.0,0.0,0.0,0.0,0.0,0.0,0.0,0.0,0.0,0.0,0.0,0.0,0.0,0.0,0.0,0.0,0.0,0.0,0.0,0.0,0.0,0.0,0.0,0.0,0.0,0.0,0.0,0.0,0.0,0.0,-1.9382,-1.9002,-1.8308,-1.6534,-1.5457,-1.521,0.0,0.0,0.0,0.0,0.0,0.0,0.0,0.0,0.0,0.0,0.0,0.0,0.0,0.0,0.0,0.0,0.0,0.0,0.0,0.0,0.0,0.0,0.0,0.0,0.0,0.0,0.0,0.0,0.0,0.0,0.0,0.0,0.0,0.0,0.0,0.0,0.0,0.0,0.0,0.0,0.0,0.0,0.0,0.0,0.0,0.0,0.0,0.0,0.0,0.0,0.0,0.0,0.0,0.0,0.0,0.0,0.0,0.0,0.0,0.0,0.0,0.0,0.0,0.0,0.0,0.0,0.0,0.0,0.0,0.0,0.0,0.0,0.0,0.0,0.0,0.0,0.0,0.0,0.0,0.0,0.0,0.0,0.0,0.0,0.0,0.0,0.0,0.0,0.0,0.0,0.0,0.0,0.0,0.0,0.0,0.0,0.0,0.0,0.0,0.0,0.0,0.0,0.0,0.0,0.0,0.0,0.0,0.0,-1.7995,-1.7762,-1.7808,-1.8173,-1.6436,-1.5874,0.0,0.0,0.0,0.0,0.0,0.0,0.0,0.0,0.0,0.0,0.0,0.0,0.0,0.0,0.0,0.0,0.0,0.0,0.0,0.0,0.0,0.0,0.0,0.0,0.0,0.0,0.0,0.0,0.0,0.0,0.0,0.0,0.0,0.0,0.0,0.0,0.0,0.0,0.0,0.0,0.0,0.0,0.0,0.0,0.0,0.0,0.0,0.0,0.0,0.0,0.0,0.0,0.0,0.0,0.0,0.0,0.0,0.0,0.0,0.0,0.0,0.0,0.0,0.0,0.0,0.0,0.0,0.0,0.0,0.0,0.0,0.0,0.0,0.0,0.0,0.0,0.0,0.0,0.0,0.0,0.0,0.0,0.0,0.0,0.0,0.0,0.0,0.0,0.0,0.0,0.0,0.0,0.0,0.0,0.0,0.0,0.0,0.0,0.0,0.0,0.0,0.0,0.0,0.0,0.0,0.0,0.0,0.0,0.0,-1.7851,-1.7486,-1.753,-1.8045,-1.6096,-1.528,0.0,0.0,0.0,0.0,0.0,0.0,0.0,0.0,0.0,0.0,0.0,0.0,0.0,0.0,0.0,0.0,0.0,0.0,0.0,0.0,0.0,0.0,0.0,0.0,0.0,0.0,0.0,0.0,0.0,0.0,0.0,0.0,0.0,0.0,0.0,0.0,0.0,0.0,0.0,0.0,0.0,0.0,0.0,0.0,0.0,0.0,0.0,0.0,0.0,0.0,0.0,0.0,0.0,0.0,0.0,0.0,0.0,0.0,0.0,0.0,0.0,0.0,0.0,0.0,0.0,0.0,0.0,0.0,0.0,0.0,0.0,0.0,0.0,0.0,0.0,0.0,0.0,0.0,0.0,0.0,0.0,0.0,0.0,0.0,0.0,0.0,0.0,0.0,0.0,0.0,0.0,0.0,0.0,0.0,0.0,0.0,0.0,0.0,0.0,0.0,0.0,0.0,0.0,0.0,0.0,0.0,0.0,0.0,0.0,-1.7633,0.0,-1.7213,-1.7682,-1.5812,-1.4958,0.0,0.0,0.0,0.0,0.0,0.0,0.0,0.0,0.0,0.0,0.0,0.0,0.0,0.0,0.0,0.0,0.0,0.0,0.0,0.0,0.0,0.0,0.0,0.0,0.0,0.0,0.0,0.0,0.0,0.0,0.0,0.0,0.0,0.0,0.0,0.0,0.0,0.0,0.0,0.0,0.0,0.0,0.0,0.0,0.0,0.0,0.0,0.0,0.0,0.0,0.0,0.0,0.0,0.0,0.0,0.0,0.0,0.0,0.0,0.0,0.0,0.0,0.0,0.0,0.0,0.0,0.0,0.0,0.0,0.0,0.0,0.0,0.0,0.0,0.0,0.0,0.0,0.0,0.0,0.0,0.0,0.0,0.0,0.0,0.0,0.0,0.0,0.0,0.0,0.0,0.0,0.0,0.0,0.0,0.0,0.0,0.0,0.0,0.0,0.0,0.0,0.0,0.0,0.0,0.0,0.0,0.0,0.0,-1.6822,-1.7165,-1.687,-1.6826,-1.7047,-1.5654,-1.5058,0.0,0.0,0.0,0.0,0.0,0.0,0.0,0.0,0.0,0.0,0.0,0.0,0.0,0.0,0.0,0.0,0.0,0.0,0.0,0.0,0.0,0.0,0.0,0.0,0.0,0.0,0.0,0.0,0.0,0.0,0.0,0.0,0.0,0.0,0.0,0.0,0.0,0.0,0.0,0.0,0.0,0.0,0.0,0.0,0.0,0.0,0.0,0.0,0.0,0.0,0.0,0.0,0.0,0.0,0.0,0.0,0.0,0.0,0.0,0.0,0.0,0.0,0.0,0.0,0.0,0.0,0.0,0.0,0.0,0.0,0.0,0.0,0.0,0.0,0.0,0.0,0.0,0.0,0.0,0.0,0.0,0.0,0.0,0.0,0.0,0.0,0.0,0.0,0.0,0.0,0.0,0.0,0.0,0.0,0.0,0.0,0.0,0.0,0.0,0.0,0.0,0.0,0.0,0.0,0.0,0.0,0.0,0.0,0.0,-1.6986,-1.6597,-1.653,-1.6875,-1.5457,-1.4633,0.0,0.0,0.0,0.0,0.0,0.0,0.0,0.0,0.0,0.0,0.0,0.0,0.0,0.0,0.0,0.0,0.0,0.0,0.0,0.0,0.0,0.0,0.0,0.0,0.0,0.0,0.0,0.0,0.0,0.0,0.0,0.0,0.0,0.0,0.0,0.0,0.0,0.0,0.0,0.0,0.0,0.0,0.0,0.0,0.0,0.0,0.0,0.0,0.0,0.0,0.0,0.0,0.0,0.0,0.0,0.0,0.0,0.0,0.0,0.0,0.0,0.0,0.0,0.0,0.0,0.0,0.0,0.0,0.0,0.0,0.0,0.0,0.0,0.0,0.0,0.0,0.0,0.0,0.0,0.0,0.0,0.0,0.0,0.0,0.0,0.0,0.0,0.0,0.0,0.0,0.0,0.0,0.0,0.0,0.0,0.0,0.0,0.0,0.0,0.0,0.0,0.0,0.0,0.0,0.0,0.0,0.0,0.0,0.0,-1.6634,-1.6661,-1.6733,-1.6866,-1.5571,-1.4656,-1.4256,0.0,0.0,0.0,0.0,0.0,0.0,0.0,0.0,0.0,0.0,0.0,0.0,0.0,0.0,0.0,0.0,0.0,0.0,0.0,0.0,0.0,0.0,0.0,0.0,0.0,0.0,0.0,0.0,0.0,0.0,0.0,0.0,0.0,0.0,0.0,0.0,0.0,0.0,0.0,0.0,0.0,0.0,0.0,0.0,0.0,0.0,0.0,0.0,0.0,0.0,0.0,0.0,0.0,0.0,0.0,0.0,0.0,0.0,0.0,0.0,0.0,0.0,0.0,0.0,0.0,0.0,0.0,0.0,0.0,0.0,0.0,0.0,0.0,0.0,0.0,0.0,0.0,0.0,0.0,0.0,0.0,0.0,0.0,0.0,0.0,0.0,0.0,0.0,0.0,0.0,0.0,0.0,0.0,0.0,0.0,0.0,0.0,0.0,0.0,0.0,0.0,0.0,0.0,0.0,0.0,0.0,0.0,0.0,-1.6219,-1.7042,-1.7274,-1.6802,-1.5955,-1.5058,0.0,0.0,0.0,0.0,0.0,0.0,0.0,0.0,0.0,0.0,0.0,0.0,0.0,0.0,0.0,0.0,0.0,0.0,0.0,0.0,0.0,0.0,0.0,0.0,0.0,0.0,0.0,0.0,0.0,0.0,0.0,0.0,0.0,0.0,0.0,0.0,0.0,0.0,0.0,0.0,0.0,0.0,0.0,0.0,0.0,0.0,0.0,0.0,0.0,0.0,0.0,0.0,0.0,0.0,0.0,0.0,0.0,0.0,0.0,0.0,0.0,0.0,0.0,0.0,0.0,0.0,0.0,0.0,0.0,0.0,0.0,0.0,0.0,0.0,0.0,0.0,0.0,0.0,0.0,0.0,0.0,0.0,0.0,0.0,0.0,0.0,0.0,0.0,0.0,0.0,0.0,0.0,0.0,0.0,0.0,0.0,0.0,0.0,0.0,0.0,0.0,0.0,0.0,0.0,0.0,0.0,0.0,0.0,0.0,-1.7395,-1.7493,-1.7253,-1.6731,-1.6105,-1.5296,0.0,0.0,0.0,0.0,0.0,0.0,0.0,0.0,0.0,0.0,0.0,0.0,0.0,0.0,0.0,0.0,0.0,0.0,0.0,0.0,0.0,0.0,0.0,0.0,0.0,0.0,0.0,0.0,0.0,0.0,0.0,0.0,0.0,0.0,0.0,0.0,0.0,0.0,0.0,0.0,0.0,0.0,0.0,0.0,0.0,0.0,0.0,0.0,0.0,0.0,0.0,0.0,0.0,0.0,0.0,0.0,0.0,0.0,0.0,0.0,0.0,0.0,0.0,0.0,0.0,0.0,0.0,0.0,0.0,0.0,0.0,0.0,0.0,0.0,0.0,0.0,0.0,0.0,0.0,0.0,0.0,0.0,0.0,0.0,0.0,0.0,0.0,0.0,0.0,0.0,0.0,0.0,0.0,0.0,0.0,0.0,0.0,0.0,0.0,0.0,0.0,0.0,0.0,0.0,0.0,0.0,0.0,0.0,-1.7225,-1.7874,-1.7934,-1.767,-1.7195,-1.6501,-1.5725,0.0,0.0,0.0,0.0,0.0,0.0,0.0,0.0,0.0,0.0,0.0,0.0,0.0,0.0,0.0,0.0,0.0,0.0,0.0,0.0,0.0,0.0,0.0,0.0,0.0,0.0,0.0,0.0,0.0,0.0,0.0,0.0,0.0,0.0,0.0,0.0,0.0,0.0,0.0,0.0,0.0,0.0,0.0,0.0,0.0,0.0,0.0,0.0,0.0,0.0,0.0,0.0,0.0,0.0,0.0,0.0,0.0,0.0,0.0,0.0,0.0,0.0,0.0,0.0,0.0,0.0,0.0,0.0,0.0,0.0,0.0,0.0,0.0,0.0,0.0,0.0,0.0,0.0,0.0,0.0,0.0,0.0,0.0,0.0,0.0,0.0,0.0,0.0,0.0,0.0,0.0,0.0,0.0,0.0,0.0,0.0,0.0,0.0,0.0,0.0,0.0,0.0,0.0,0.0,0.0,0.0,0.0,0.0,-1.7466,-1.7906,-1.8252,-1.824,-1.7787,-1.6913,-1.6111,0.0,0.0,0.0,0.0,0.0,0.0,0.0,0.0,0.0,0.0,0.0,0.0,0.0,0.0,0.0,0.0,0.0,0.0,0.0,0.0,0.0,0.0,0.0,0.0,0.0,0.0,0.0,0.0,0.0,0.0,0.0,0.0,0.0,0.0,0.0,0.0,0.0,0.0,0.0,0.0,0.0,0.0,0.0,0.0,0.0,0.0,0.0,0.0,0.0,0.0,0.0,0.0,0.0,0.0,0.0,0.0,0.0,0.0,0.0,0.0,0.0,0.0,0.0,0.0,0.0,0.0,0.0,0.0,0.0,0.0,0.0,0.0,0.0,0.0,0.0,0.0,0.0,0.0,0.0,0.0,0.0,0.0,0.0,0.0,0.0,0.0,0.0,0.0,0.0,0.0,0.0,0.0,0.0,0.0,0.0,0.0,0.0,0.0,0.0,0.0,0.0,0.0,0.0,0.0,0.0,0.0,0.0,0.0,-1.7233,-1.7877,-1.7921,-1.7922,-1.7787,-1.6973,-1.619,0.0,0.0,0.0,0.0,0.0,0.0,0.0,0.0,0.0,0.0,0.0,0.0,0.0,0.0,0.0,0.0,0.0,0.0,0.0,0.0,0.0,0.0,0.0,0.0,0.0,0.0,0.0,0.0,0.0,0.0,0.0,0.0,0.0,0.0,0.0,0.0,0.0,0.0,0.0,0.0,0.0,0.0,0.0,0.0,0.0,0.0,0.0,0.0,-0.0843,0.0,0.0,0.0,0.0,0.0,0.0,0.0,0.0,0.0,0.0,0.0,0.0,0.0,0.0,0.0,0.0,0.0,0.0,0.0,0.0,0.0,0.0,0.0,0.0,0.0,0.0,0.0,0.0,0.0,0.0,0.0,0.0,0.0,0.0,0.0,0.0,0.0,0.0,0.0,0.0,0.0,0.0,0.0,0.0,0.0,0.0,0.0,0.0,0.0,0.0,0.0,0.0,0.0,0.0,0.0,0.0,0.0,0.0,0.0,-1.7969,-1.8666,-1.8711,-1.8539,-1.8106,-1.746,-1.6614,0.0,0.0,0.0,0.0,0.0,0.0,0.0,0.0,0.0,0.0,0.0,0.0,0.0,0.0,0.0,0.0,0.0,0.0,0.0,0.0,0.0,0.0,0.0,0.0,0.0,0.0,0.0,0.0,0.0,0.0,0.0,0.0,0.0,0.0,0.0,0.0,0.0,0.0,0.0,0.0,0.0,0.0,0.0,0.0,0.0,0.0,0.0,0.0,0.0,0.0,0.0,0.0,0.0,0.0,0.0,0.0,0.0,0.0,0.0,0.0,0.0,0.0,0.0,0.0,0.0,0.0,0.0,0.0,0.0,0.0,0.0,0.0,0.0,0.0,0.0,0.0,0.0,0.0,0.0,0.0,0.0,0.0,0.0,0.0,0.0,0.0,0.0,0.0,0.0,0.0,0.0,0.0,0.0,0.0,0.0,0.0,0.0,0.0,0.0,0.0,0.0,0.0,0.0,0.0,0.0,0.0,0.0,-1.7969,-1.8711,-1.9493,-1.9581,-1.9221,-1.8422,-1.8017,-1.7117,-1.5612,0.0,0.0,0.0,0.0,0.0,0.0,0.0,0.0,0.0,0.0,0.0,0.0,0.0,0.0,0.0,0.0,0.0,0.0,0.0,0.0,0.0,0.0,0.0,0.0,0.0,0.0,0.0,0.0,0.0,0.0,0.0,0.0,0.0,0.0,0.0,0.0,0.0,0.0,-0.2781,-0.3004,0.0,0.0,0.0,0.0,0.0,0.0,0.0,0.0,-0.1386,0.0,0.0,0.0,0.0,0.0,0.0,0.0,0.0,0.0,0.0,0.0,0.0,0.0,0.0,0.0,0.0,0.0,0.0,0.0,0.0,0.0,0.0,0.0,0.0,0.0,0.0,0.0,0.0,0.0,0.0,0.0,0.0,0.0,0.0,0.0,0.0,0.0,0.0,0.0,0.0,0.0,0.0,0.0,0.0,0.0,0.0,0.0,0.0,0.0,0.0,0.0,0.0,0.0,0.0,0.0,0.0,-1.8229,-1.7763,-1.8031,-1.9147,-1.9213,-1.8784,-1.7948,-1.8207,-1.7394,-1.54,0.0,0.0,0.0,0.0,0.0,0.0,0.0,0.0,0.0,0.0,0.0,0.0,0.0,0.0,0.0,0.0,0.0,0.0,0.0,0.0,0.0,0.0,0.0,0.0,0.0,0.0,0.0,0.0,0.0,0.0,0.0,0.0,0.0,0.0,0.0,0.0,0.0,0.0,0.0,-0.3875,-0.3846,0.0,0.0,0.0,0.0,0.0,0.0,0.0,0.0,-0.1754,0.0,0.0,0.0,0.0,0.0,0.0,0.0,0.0,0.0,0.0,0.0,0.0,0.0,0.0,0.0,0.0,0.0,0.0,0.0,0.0,0.0,0.0,0.0,0.0,0.0,0.0,0.0,0.0,0.0,0.0,0.0,0.0,0.0,0.0,0.0,0.0,0.0,0.0,0.0,0.0,0.0,0.0,0.0,0.0,0.0,0.0,0.0,0.0,0.0,0.0,0.0,0.0,0.0,0.0,0.0,-1.7704,-1.7998,-1.8426,-1.9072,-1.8912,-1.8475,-1.7828,-1.7634,-1.6817,0.0,0.0,0.0,0.0,0.0,0.0,0.0,0.0,0.0,0.0,0.0,0.0,0.0,0.0,0.0,0.0,0.0,0.0,0.0,0.0,0.0,0.0,0.0,0.0,0.0,0.0,0.0,0.0,0.0,0.0,0.0,0.0,0.0,0.0,0.0,0.0,0.0,0.0,0.0,0.0,-0.4517,-0.4571,-0.4836,0.0,0.0,0.0,0.0,0.0,0.0,-0.2778,-0.214,0.0,0.0,0.0,0.0,0.0,0.0,0.0,0.0,0.0,0.0,0.0,0.0,0.0,0.0,0.0,0.0,0.0,0.0,0.0,0.0,0.0,0.0,0.0,0.0,0.0,0.0,0.0,0.0,0.0,0.0,0.0,0.0,0.0,0.0,0.0,0.0,0.0,0.0,0.0,0.0,0.0,0.0,0.0,0.0,0.0,0.0,0.0,0.0,0.0,0.0,0.0,0.0,0.0,0.0,0.0,-1.7127,-1.8231,-1.8941,-1.9199,-1.8822,-1.8397,-1.7948,-1.7274,-1.6348,0.0,0.0,0.0,0.0,0.0,0.0,0.0,0.0,0.0,0.0,0.0,0.0,0.0,0.0,0.0,0.0,0.0,0.0,0.0,0.0,0.0,0.0,0.0,0.0,0.0,0.0,0.0,0.0,0.0,0.0,0.0,0.0,0.0,0.0,0.0,0.0,0.0,0.0,0.0,0.0,0.0,-0.5268,-0.5424,-0.5078,0.0,0.0,0.0,0.0,-0.3819,-0.3288,0.0,0.0,0.0,0.0,0.0,0.0,0.0,0.0,0.0,0.0,0.0,0.0,0.0,0.0,0.0,0.0,0.0,0.0,0.0,0.0,0.0,0.0,0.0,0.0,0.0,0.0,0.0,0.0,0.0,0.0,0.0,0.0,0.0,0.0,0.0,0.0,0.0,0.0,0.0,0.0,0.0,0.0,0.0,0.0,0.0,0.0,0.0,0.0,0.0,0.0,0.0,0.0,0.0,0.0,0.0,0.0,-1.7349,-1.812,-1.8909,-1.9573,-1.9236,-1.8822,-1.8422,-1.788,-1.6771,0.0,0.0,0.0,0.0,0.0,0.0,0.0,0.0,0.0,0.0,0.0,0.0,0.0,0.0,0.0,0.0,0.0,0.0,0.0,0.0,0.0,0.0,0.0,0.0,0.0,0.0,0.0,0.0,0.0,0.0,0.0,0.0,0.0,0.0,0.0,0.0,0.0,0.0,0.0,0.0,0.0,-0.5955,-0.6083,-0.5268,-0.4636,0.0,0.0,-0.5125,-0.514,-0.4952,0.0,0.0,0.0,0.0,0.0,0.0,0.0,0.0,0.0,0.0,0.0,0.0,0.0,0.0,0.0,0.0,0.0,0.0,0.0,0.0,0.0,0.0,0.0,0.0,0.0,0.0,0.0,0.0,0.0,0.0,0.0,0.0,0.0,0.0,0.0,0.0,0.0,0.0,0.0,0.0,0.0,0.0,0.0,0.0,0.0,0.0,0.0,0.0,0.0,0.0,0.0,0.0,0.0,0.0,0.0,-1.6909,-1.718,-1.8029,-1.8662,-1.8983,-1.8369,-1.7962,-1.7747,-1.6994,-1.6044,0.0,0.0,0.0,0.0,0.0,0.0,0.0,0.0,0.0,0.0,0.0,0.0,0.0,0.0,0.0,0.0,0.0,0.0,0.0,0.0,0.0,0.0,0.0,0.0,0.0,0.0,0.0,0.0,0.0,0.0,0.0,0.0,0.0,0.0,0.0,0.0,0.0,0.0,0.0,0.0,0.0,0.0,-0.6262,-0.5793,0.0,0.0,0.0,-0.5512,-0.4875,0.0,0.0,0.0,0.0,0.0,0.0,0.0,0.0,0.0,0.0,0.0,0.0,0.0,0.0,0.0,0.0,0.0,0.0,0.0,0.0,0.0,0.0,0.0,0.0,0.0,0.0,0.0,0.0,0.0,0.0,0.0,0.0,0.0,0.0,0.0,0.0,0.0,0.0,0.0,0.0,0.0,0.0,0.0,0.0,0.0,0.0,0.0,0.0,0.0,0.0,0.0,0.0,0.0,0.0,0.0,0.0,0.0,-1.7044,-1.7993,-1.8553,-1.8616,-1.7801,-1.7365,-1.7352,-1.6494,0.0,0.0,0.0,0.0,0.0,0.0,0.0,0.0,0.0,0.0,0.0,0.0,0.0,0.0,0.0,0.0,0.0,0.0,0.0,0.0,0.0,0.0,0.0,0.0,0.0,0.0,0.0,-0.6029,0.0,0.0,0.0,0.0,0.0,0.0,0.0,0.0,0.0,0.0,0.0,0.0,0.0,0.0,-0.6314,-0.6627,-0.6322,-0.6215,0.0,0.0,-0.5784,-0.4964,-0.518,-0.4853,0.0,0.0,0.0,0.0,0.0,0.0,0.0,0.0,0.0,0.0,0.0,0.0,0.0,0.0,0.0,0.0,0.0,0.0,0.0,0.0,0.0,0.0,0.0,0.0,0.0,0.0,0.0,0.0,0.0,0.0,0.0,0.0,0.0,0.0,0.0,0.0,0.0,0.0,0.0,0.0,0.0,0.0,0.0,0.0,0.0,0.0,0.0,0.0,0.0,0.0,0.0,0.0,0.0,0.0,-1.6933,-1.7084,-1.8016,-1.8669,-1.9026,-1.8226,-1.7747,-1.7747,-1.7188,-1.6217,0.0,0.0,0.0,0.0,0.0,0.0,0.0,0.0,0.0,0.0,0.0,0.0,0.0,0.0,0.0,0.0,0.0,0.0,0.0,0.0,0.0,0.0,0.0,0.0,0.0,0.0,0.0,0.0,0.0,0.0,0.0,0.0,0.0,0.0,0.0,0.0,0.0,0.0,0.0,0.0,0.0,-0.7159,-0.7309,-0.6818,-0.6653,0.0,-0.6684,-0.6187,-0.6234,-0.6193,-0.5558,-0.3979,0.0,0.0,0.0,0.0,0.0,0.0,0.0,0.0,0.0,0.0,0.0,0.0,0.0,0.0,0.0,0.0,0.0,0.0,0.0,0.0,0.0,0.0,0.0,0.0,0.0,0.0,0.0,0.0,0.0,0.0,0.0,0.0,0.0,0.0,0.0,0.0,0.0,0.0,0.0,0.0,0.0,0.0,0.0,0.0,0.0,0.0,0.0,0.0,0.0,0.0,0.0,0.0,0.0,-1.6586,-1.667,-1.7602,-1.8147,-1.8279,-1.772,-1.7447,-1.7434,-1.7128,-1.6227,0.0,0.0,0.0,0.0,0.0,0.0,0.0,0.0,0.0,0.0,0.0,0.0,0.0,0.0,0.0,0.0,0.0,0.0,0.0,0.0,0.0,0.0,0.0,0.0,0.0,0.0,0.0,0.0,-0.754,-0.6991,-0.6218,0.0,0.0,0.0,0.0,0.0,0.0,0.0,0.0,0.0,0.0,-0.7533,-0.7656,-0.7449,0.0,0.0,-0.6965,-0.6293,-0.6638,-0.6114,-0.5247,-0.4182,-0.3741,0.0,0.0,0.0,0.0,0.0,0.0,0.0,0.0,0.0,0.0,0.0,0.0,0.0,0.0,0.0,0.0,0.0,0.0,0.0,0.0,0.0,0.0,0.0,0.0,0.0,0.0,-1.8628,-1.7501,0.0,0.0,0.0,0.0,0.0,0.0,0.0,0.0,0.0,0.0,0.0,0.0,0.0,0.0,0.0,0.0,0.0,0.0,0.0,0.0,0.0,0.0,0.0,0.0,-1.6409,-1.6387,-1.7347,-1.7787,-1.7787,-1.7393,-1.7212,-1.7199,-1.7086,-1.6373,0.0,0.0,0.0,0.0,0.0,0.0,0.0,0.0,0.0,0.0,0.0,0.0,0.0,0.0,0.0,0.0,0.0,0.0,0.0,0.0,0.0,0.0,0.0,0.0,0.0,0.0,0.0,0.0,-0.7939,-0.7226,-0.6458,0.0,0.0,0.0,0.0,0.0,0.0,0.0,0.0,0.0,0.0,-0.7813,-0.7894,-0.7838,-0.7827,-0.8117,-0.7043,-0.6298,-0.6625,-0.588,-0.4969,-0.4324,0.0,0.0,0.0,0.0,0.0,0.0,0.0,0.0,0.0,0.0,0.0,0.0,0.0,0.0,0.0,0.0,0.0,0.0,0.0,0.0,0.0,0.0,0.0,0.0,0.0,0.0,0.0,-1.8113,0.0,0.0,-1.7432,0.0,0.0,0.0,0.0,0.0,0.0,0.0,0.0,0.0,0.0,0.0,0.0,0.0,0.0,0.0,0.0,0.0,0.0,0.0,0.0,0.0,0.0,-1.6458,-1.6415,-1.7308,-1.7801,-1.7801,-1.7393,-1.7212,-1.7212,-1.7199,-1.6788,-1.5883,0.0,0.0,0.0,0.0,0.0,0.0,0.0,0.0,0.0,0.0,0.0,0.0,0.0,0.0,0.0,0.0,0.0,0.0,0.0,0.0,0.0,0.0,0.0,0.0,0.0,0.0,-0.7644,-0.717,-0.6896,0.0,0.0,0.0,0.0,0.0,0.0,0.0,0.0,0.0,-0.689,-0.7517,-0.7951,-0.808,-0.7819,-0.7731,-0.7908,-0.693,-0.6188,-0.6236,-0.5575,-0.4959,0.0,0.0,0.0,0.0,0.0,0.0,0.0,0.0,0.0,0.0,0.0,0.0,0.0,0.0,0.0,0.0,0.0,0.0,0.0,0.0,0.0,0.0,0.0,0.0,0.0,0.0,0.0,-2.028,-1.9693,0.0,0.0,0.0,0.0,0.0,0.0,0.0,0.0,0.0,0.0,0.0,-1.9326,-1.9371,0.0,0.0,0.0,0.0,0.0,0.0,0.0,0.0,0.0,0.0,0.0,0.0,-1.617,-1.6485,-1.7076,-1.7393,-1.7393,-1.7282,-1.7212,-1.7212,-1.7212,-1.6718,-1.5693,0.0,0.0,0.0,0.0,0.0,0.0,0.0,0.0,0.0,0.0,0.0,0.0,0.0,0.0,0.0,0.0,0.0,0.0,0.0,0.0,0.0,0.0,0.0,0.0,0.0,-0.8399,0.0,0.0,0.0,0.0,0.0,0.0,0.0,0.0,0.0,0.0,-0.6828,-0.7143,-0.7573,-0.7965,-0.8195,-0.8201,-0.8212,-0.8255,0.0,0.0,0.0,0.0,0.0,0.0,0.0,0.0,0.0,0.0,0.0,0.0,0.0,-0.1328,-0.0227,0.1059,0.1653,0.2095,0.245,0.0,0.0,0.0,0.0,0.0,0.0,0.0,0.0,0.0,0.0,0.0,0.0,0.0,0.0,-2.148,-2.0766,-2.0815,0.0,0.0,0.0,0.0,0.0,0.0,0.0,0.0,-1.9541,-2.0342,-2.1198,-2.1324,-2.1537,-2.1856,-2.1358,-1.9963,0.0,0.0,0.0,0.0,0.0,0.0,0.0,0.0,-1.6422,-1.6704,-1.7167,-1.7416,-1.7486,-1.7303,-1.7212,-1.7212,-1.7212,-1.6802,-1.6033,-1.4779,-1.3958,0.0,0.0,0.0,0.0,0.0,0.0,0.0,0.0,0.0,0.0,0.0,0.0,0.0,0.0,0.0,0.0,0.0,0.0,0.0,0.0,0.0,0.0,0.0,-0.8799,0.0,0.0,0.0,0.0,0.0,0.0,0.0,0.0,0.0,-0.7433,-0.75,-0.7779,-0.8159,-0.8422,-0.8527,-0.8145,0.0,0.0,0.0,0.0,0.0,0.0,0.0,-0.4667,-0.4703,-0.4346,-0.4021,-0.4162,-0.3967,-0.3684,-0.3315,0.0,0.0,-0.0057,0.0722,0.1207,0.1518,0.2467,0.3357,0.3714,0.4009,0.4412,0.0,0.0,0.0,0.0,-2.3414,0.0,0.0,0.0,-2.2821,-2.2265,0.0,-2.2073,0.0,0.0,0.0,0.0,-2.0316,-2.104,0.0,0.0,-2.3264,-2.4193,-2.3918,-2.3902,-2.4181,-2.4593,-2.3143,-2.1969,-2.1007,-1.9886,-1.8535,0.0,0.0,0.0,0.0,0.0,-1.7193,-1.7044,-1.7583,-1.7946,-1.8087,-1.7565,-1.7277,-1.7277,-1.7251,-1.7102,-1.6867,-1.5707,-1.5294,-1.5822,-1.3065,0.0,0.0,0.0,0.0,0.0,0.0,0.0,0.0,0.0,0.0,0.0,0.0,0.0,0.0,0.0,0.0,0.0,0.0,0.0,0.0,-0.9125,0.0,0.0,0.0,0.0,0.0,0.0,0.0,0.0,0.0,-0.8353,-0.8291,-0.8431,-0.8598,-0.8604,0.0,0.0,0.0,0.0,-0.8011,-0.6836,-0.6182,-0.5774,-0.5505,-0.5195,-0.5132,-0.5605,0.0,0.0,-0.4928,-0.464,-0.4256,-0.3208,-0.3223,-0.2933,-0.1549,-0.0421,0.0468,0.1074,0.2077,0.2949,0.3304,0.3758,0.4157,-2.794,0.0,0.0,0.0,0.0,-2.4717,-2.5357,-2.6409,-2.67,-2.6031,-2.4718,-2.4795,0.0,0.0,0.0,0.0,0.0,0.0,-2.1972,-2.2682,-2.3145,-2.3896,-2.4896,-2.4645,-2.471,-2.4965,-2.4202,-2.3523,-2.302,-2.2577,-2.0665,-1.7396,0.0,0.0,0.0,0.0,-1.7404,-1.7783,-1.8306,-1.8627,-1.8662,-1.8506,-1.8267,-1.7996,-1.7613,-1.744,-1.7468,-1.6498,-1.5949,-1.588,-1.5073,0.0,0.0,0.0,0.0,0.0,0.0,0.0,0.0,0.0,0.0,0.0,0.0,0.0,0.0,0.0,0.0,0.0,0.0,0.0,-0.9542,-0.9751,-0.9688,0.0,0.0,0.0,0.0,0.0,0.0,0.0,0.0,0.0,-0.9767,-0.9029,-0.8579,0.0,0.0,-0.8445,-0.8145,-0.848,-0.8331,-0.7149,-0.6973,0.0,-0.6047,-0.5583,-0.5333,-0.5494,-0.5579,-0.5575,-0.5258,-0.5378,-0.5356,-0.4893,-0.3946,-0.3037,-0.2422,-0.1471,-0.056,0.0242,0.1287,0.2204,0.2678,0.3255,0.3959,-3.0407,-2.8065,-2.7106,-2.6988,-2.7373,-2.7306,-2.809,-2.942,-2.9726,-2.89,-2.7306,-2.7568,-2.6343,-2.4002,-2.3742,0.0,0.0,0.0,-2.4513,-2.5544,-2.5396,-2.5714,-2.6374,-2.5898,-2.5577,-2.5417,-2.4708,-2.423,-2.4009,-2.3426,-2.1904,-1.9409,0.0,-1.8064,-1.7193,-1.7874,-1.8328,-1.8604,-1.88,-1.9015,-1.9251,-1.9028,-1.8773,-1.8516,-1.8241,-1.8055,-1.8007,-1.7494,-1.7254,-1.73,-1.6431,-1.5405,0.0,0.0,0.0,0.0,0.0,0.0,0.0,0.0,0.0,0.0,0.0,-0.9628,-0.9017,0.0,0.0,0.0,-1.0311,-1.0358,-1.0495,-1.0423,0.0,0.0,0.0,0.0,0.0,0.0,0.0,-0.939,-1.0181,-1.0652,-1.0365,-0.9683,-0.9341,-0.9453,-0.9343,-0.9124,-0.8759,0.0,-0.8908,-0.7838,-0.7706,-0.7433,-0.6645,-0.6293,-0.6065,-0.5853,-0.5932,-0.5868,-0.5682,-0.5763,-0.5818,-0.5488,-0.4619,-0.368,-0.288,-0.2182,-0.1363,-0.019,0.0989,0.1924,0.2187,0.3019,0.3806,-3.2766,-3.1975,-3.0117,-2.9974,-3.0855,-3.0058,-3.0504,-3.1869,-3.1938,-3.0999,-2.9445,-3.0199,-2.9151,-2.6806,-2.6549,0.0,-2.7784,-2.766,-2.8068,-2.8975,-2.8938,-2.8607,-2.8024,-2.7218,-2.6557,-2.5977,-2.4854,-2.4353,-2.4265,-2.3182,-2.2446,-2.2132,-2.216,-2.0812,-1.8258,-1.9175,-1.9605,-1.9359,-1.9071,-1.9264,-1.9852,-1.9329,-1.9041,-1.8962,-1.8897,-1.8767,-1.8496,-1.8385,-1.8646,-1.9193,-1.7383,-1.6585,-1.7061,0.0,0.0,0.0,0.0,0.0,0.0,0.0,0.0,0.0,0.0,0.0,0.0,0.0,0.0,-1.1266,-1.1039,0.0,-1.1676,-1.1084,0.0,0.0,0.0,-1.0855,-1.1236,-1.1332,-1.1145,-1.0773,0.0,0.0,-1.035,-1.0408,-1.0515,-1.0724,-1.0739,-1.0369,-0.9524,-0.9794,-0.9703,-0.8603,-0.8409,-0.8011,-0.7246,-0.7098,-0.6959,-0.6461,-0.642,-0.6276,-0.5947,-0.5885,-0.5756,-0.5495,-0.5223,-0.4553,-0.3011,-0.2544,-0.1865,-0.039,0.103,0.1956,0.1916,0.2886,0.3801,-3.5387,-3.5128,-3.4125,-3.2862,-3.1612,-3.1938,-3.23,-3.2679,-3.3188,-3.2779,-3.1786,-3.1935,-3.0985,-2.9242,-2.8815,-2.8679,-2.8704,-2.8668,-2.8716,-2.8811,-2.8477,-2.8151,-2.7818,-2.6941,-2.6377,-2.6112,-2.5045,-2.4521,-2.4491,-2.3743,-2.2716,-2.1598,-2.1816,-2.0827,-1.8706,-1.8803,-1.8884,-1.8973,-1.9279,-1.9755,-2.0476,-2.0358,-1.9935,-1.9282,-1.8896,-1.8533,-1.8177,-1.7826,-1.7902,-1.8363,-1.836,-1.7697,-1.6384,-1.5909,0.0,0.0,0.0,0.0,0.0,0.0,0.0,0.0,0.0,-1.0553,-0.976,0.0,-1.1327,0.0,-1.1947,-1.2552,-1.273,-1.2571,0.0,0.0,-1.2105,-1.1813,-1.2083,-1.2215,-1.192,-1.1081,-1.1445,-1.1549,-1.096,-1.0901,-1.1017,-1.133,-1.0873,-1.0248,-0.9769,-1.0116,-1.0034,-0.9,-0.8994,-0.8935,-0.8226,-0.7712,-0.7195,-0.6552,-0.642,-0.6288,-0.5954,-0.5892,-0.5756,-0.5425,-0.4891,-0.4287,-0.362,-0.2614,-0.1675,-0.0865,0.0653,0.1972,0.1966,0.298,0.3882,-3.6216,-3.6054,-3.5828,-3.4956,-3.3818,-3.3886,-3.4111,-3.4456,-3.4765,-3.4442,-3.3601,-3.3097,-3.2422,-3.1562,-3.13,-3.1113,-3.0937,-3.0598,-3.046,-3.0432,-2.9525,-2.9025,-2.892,-2.7554,-2.6825,-2.6642,-2.5289,-2.4582,-2.4537,-2.3939,-2.3185,-2.2338,-2.2131,-2.1278,-1.9844,-1.9208,-1.8852,-1.8719,-1.9296,-1.995,-2.0673,-2.0699,-2.0218,-1.9205,-1.8895,-1.8295,-1.7333,-1.7203,-1.714,-1.7153,-1.7787,-1.7479,-1.5968,-1.6294,-1.5537,0.0,0.0,0.0,0.0,0.0,0.0,0.0,0.0,0.0,0.0,0.0,-1.252,-1.2305,-1.3264,-1.3699,-1.3313,-1.3417,-1.3458,-1.338,-1.3108,-1.305,-1.3355,-1.3336,-1.291,-1.209,-1.2174,-1.2017,-1.1411,-1.135,-1.1355,-1.1593,-1.116,-1.0678,-1.0438,-1.0618,-1.0421,-0.9709,-0.9779,-0.9779,-0.9064,-0.8361,-0.7777,-0.7391,-0.6999,-0.6671,-0.6408,-0.6017,-0.5686,-0.5425,-0.5024,-0.4622,-0.3954,-0.2948,-0.1938,-0.1122,0.0325,0.1528,0.186,0.2707,0.3488,-3.6071,-3.5915,-3.6174,-3.6284,-3.6249,-3.5611,-3.5697,-3.6301,-3.6251,-3.5762,-3.4925,-3.3948,-3.3541,-3.3541,-3.3457,-3.3364,-3.3271,-3.263,-3.2412,-3.2385,-3.1019,-3.0356,-3.0211,-2.8514,-2.755,-2.7271,-2.562,-2.4836,-2.4806,-2.4103,-2.3656,-2.3465,-2.2503,-2.1615,-2.0865,-1.9791,-1.9008,-1.8613,-1.9313,-1.9979,-2.0586,-2.0536,-1.9964,-1.8809,-1.8685,-1.7905,-1.63,-1.6554,-1.6443,-1.5891,-1.6446,-1.6491,-1.5826,-1.5994,-1.5239,0.0,-1.2453,0.0,0.0,0.0,0.0,0.0,0.0,0.0,0.0,-1.3373,-1.3971,-1.4029,-1.4592,-1.4688,-1.3979,-1.4079,-1.4197,-1.4256,-1.4145,-1.4247,-1.4692,-1.4367,-1.3832,-1.3188,-1.2758,-1.2305,-1.1677,-1.1622,-1.1622,-1.1626,-1.1387,-1.1185,-1.1115,-1.0961,-1.0744,-1.0618,-1.0618,-1.0238,-0.9582,-0.9005,-0.8554,-0.842,-0.7837,-0.7312,-0.7055,-0.6338,-0.5683,-0.5557,-0.5425,-0.5093,-0.4284,-0.348,-0.2526,-0.1632,-0.0259,0.0957,0.1678,0.2463,0.3082,-3.5985,-3.6233,-3.6259,-3.6284,-3.6284,-3.6146,-3.6163,-3.6301,-3.6208,-3.595,-3.5562,-3.4711,-3.4269,-3.4235,-3.366,-3.3177,-3.2752,-3.2602,-3.2274,-3.1772,-3.1102,-3.0366,-2.9666,-2.8904,-2.8193,-2.75,-2.6636,-2.6228,-2.6198,-2.5016,-2.3971,-2.3113,-2.1908,-2.0806,-1.984,0.0,0.0,0.0,-1.9517,-2.0181,-2.0271,-1.9759,-1.897,-1.7989,-1.7543,0.0,-1.5712,-1.5731,-1.568,-1.5566,-1.5017,0.0,0.0,0.0,0.0,0.0,0.0,0.0,0.0,0.0,0.0,0.0,-1.4945,-1.458,-1.4109,-1.4629,-1.5071,-1.5288,-1.547,-1.5761,-1.6222,-1.5834,-1.5779,-1.6002,-1.5451,-1.4967,-1.5086,-1.4512,-1.384,-1.318,-1.2758,-1.2297,-1.1685,-1.1622,-1.1663,-1.1875,-1.1467,-1.1234,-1.1402,-1.1085,-1.0751,-1.0624,-1.0618,-1.0301,-0.9646,-0.939,-0.9134,-0.8619,-0.8231,-0.7967,-0.7767,-0.706,-0.6408,-0.6207,-0.5749,-0.5292,-0.4954,-0.4154,-0.3278,-0.24,-0.1373,-0.0128,0.1612,0.2463,0.3127,-3.6028,-3.6088,-3.6199,-3.6284,0.0,-3.6114,-3.6131,-3.6251,-3.6165,-3.5949,-3.5694,-3.5216,-3.4897,-3.4638,-3.427,-3.3786,-3.327,-3.2927,-3.2611,-3.2344,-3.131,-3.0557,-3.0064,-2.9113,-2.8408,-2.7913,-2.7033,-2.6602,-2.6542,-2.5272,-2.4388,-2.3804,-2.239,-2.1424,-2.0901,-2.0338,-1.9817,-1.9448,-2.0051,-2.0669,-2.1224,-2.096,-2.0163,-1.8881,-1.8578,0.0,0.0,0.0,0.0,0.0,0.0,0.0,0.0,-1.5405,-1.5335,-1.5968,-1.61,-1.6244,-1.6387,-1.6417,-1.6568,-1.6839,-1.691,-1.6457,-1.5498,-1.5851,-1.6245,-1.6675,-1.6874,-1.711,-1.7229,-1.7207,-1.7079,-1.6982,-1.6124,-1.5622,-1.5484,-1.4547,-1.365,-1.3156,-1.2625,-1.212,-1.1685,-1.1622,-1.1692,-1.1905,-1.1582,-1.1395,-1.1633,-1.1159,-1.0688,-1.0624,-1.0618,-1.0491,-1.0104,-1.0034,-0.997,-0.9588,-0.9075,-0.8683,-0.8538,-0.7507,-0.6662,-0.64,-0.5881,-0.5359,-0.5223,-0.4489,-0.3602,-0.2699,-0.182,-0.0637,0.1053,0.1947,0.2572,-3.6088,-3.5898,-3.6174,-3.6284,-3.6241,-3.5898,-3.5827,-3.5975,-3.5993,0.0,0.0,-3.5515,-3.5224,-3.4785,-3.4673,-3.4366,-3.3836,-3.319,-3.3003,-3.2992,-3.1618,-3.0938,-3.0696,-2.9462,-2.8692,-2.8278,-2.715,-2.6604,-2.6574,-2.5319,-2.4753,-2.4597,-2.3197,-2.2403,-2.2315,-2.1864,-2.1433,-2.0978,-2.0823,-2.1277,-2.2265,-2.2169,-2.1449,-1.9946,-1.9689,-1.8721,-1.6842,-1.6293,-1.5949,-1.5853,-1.5342,-1.5286,-1.579,-1.6036,-1.6107,-1.6118,-1.6894,-1.7478,-1.7592,-1.7632,-1.7859,-1.8475,-1.8495,-1.8027,-1.6829,-1.7109,-1.7549,-1.7894,-1.8299,-1.8366,-1.7921,-1.8108,-1.8066,-1.7442,-1.6597,-1.6066,-1.5895,-1.4709,-1.3672,-1.3276,-1.2726,-1.2115,-1.1821,-1.1765,-1.1845,-1.2058,-1.1852,-1.1647,-1.1713,-1.1138,-1.0705,-1.0638,-1.0618,-1.0555,-1.0561,-1.0561,-1.0618,-1.0491,-0.9913,-0.9466,-0.9058,-0.7952,-0.692,-0.6724,-0.6013,-0.5491,-0.5359,-0.4622,-0.3718,-0.2857,-0.1988,-0.0952,0.0371,0.1255,0.1973,-3.5985,-3.6216,-3.6301,-3.6284,-3.6259,-3.5705,-3.5328,-3.5224,-3.5622,-3.5756,-3.5577,-3.5115,-3.4864,-3.4769,-3.4333,-3.3818,-3.3339,-3.3192,-3.2961,-3.2492,-3.2252,-3.1743,-3.0936,-3.0145,-2.9388,-2.8479,-2.7277,-2.6709,-2.657,-2.546,-2.485,-2.4713,-2.3612,-2.2816,-2.2391,-2.2297,-2.2452,-2.2776,-2.2169,-2.1892,-2.206,-2.1412,-2.0736,-1.9976,-1.8952,-1.7967,-1.7168,-1.6451,-1.6005,-1.5951,-1.5776,-1.5994,-1.6556,-1.6627,-1.7039,-1.7945,-1.8495,-1.884,-1.8868,-1.8889,-1.8909,-1.8961,-1.8971,-1.8754,-1.8194,-1.8544,-1.8812,-1.8878,-1.892,-1.8971,-1.8849,-1.8566,-1.8066,-1.7442,-1.6904,-1.6323,-1.587,-1.5001,-1.4242,-1.3954,-1.3328,-1.2691,-1.2388,-1.2343,-1.2445,-1.2655,-1.2326,-1.1783,-1.1308,-1.1055,-1.0893,-1.0692,-1.0618,-1.0618,-1.0618,-1.0618,-1.0618,-1.0618,-1.0364,-1.011,-1.004,-0.8608,-0.7577,-0.7507,-0.6342,-0.5491,-0.5359,-0.4628,-0.3806,-0.2975,-0.2119,-0.1245,-0.0247,0.0827,0.1823,-3.6174,-3.6284,-3.6284,-3.6216,-3.6002,-3.5588,-3.5131,-3.4818,-3.5441,-3.5684,-3.556,-3.5021,-3.4642,-3.4317,-3.3818,-3.3251,-3.2734,-3.2734,-3.2641,-3.2382,-3.2287,-3.1839,-3.098,-3.0243,-2.9433,-2.854,-2.7305,-2.6683,-2.6602,-2.5516,-2.497,-2.486,-2.3756,-2.3039,-2.2818,-2.2818,-2.3119,-2.3668,-2.302,-2.2765,-2.3031,-2.2789,-2.2304,-2.1568,-2.0712,-1.9893,-1.9066,-1.8123,-1.7636,-1.7698,-1.741,-1.7472,-1.7986,-1.8032,-1.8226,-1.8733,-1.8951,-1.9131,-1.9131,-1.9131,-1.9131,-1.9131,-1.9131,-1.8982,-1.8775,-1.8951,-1.9131,-1.9131,-1.9131,-1.9131,-1.9142,-1.8875,-1.8529,-1.792,-1.7252,-1.6501,-1.5919,-1.4798,-1.4034,-1.3823,-1.3224,-1.2661,-1.2526,-1.2526,-1.2643,-1.2851,-1.2577,-1.1984,-1.1135,-1.0995,-1.0895,-1.0692,-1.0618,-1.0618,-1.0618,-1.0618,-1.0618,-1.0618,-1.0498,-1.0434,-1.0238,-0.9,-0.8032,-0.7637,-0.6535,-0.562,-0.5425,-0.4758,-0.3931,-0.301,-0.2257,-0.1449,-0.0494,0.0653,0.1902,-3.6241,-3.6174,-3.6174,-3.5941,-3.5526,-3.5379,-3.5038,-3.4626,-3.5195,-3.5424,-3.5316,-3.4864,-3.4415,-3.3992,-3.3488,-3.3115,-3.2884,-3.269,-3.2613,-3.2613,-3.2364,-3.186,-3.1162,-3.0265,-2.944,-2.853,-2.7166,-2.6457,-2.619,-2.5272,-2.4778,-2.4738,-2.3857,-2.3433,-2.342,-2.3363,-2.3597,-2.406,-2.3597,-2.354,-2.3923,-2.3995,-2.37,-2.2896,-2.2237,-2.1491,-2.0568,-1.949,-1.8963,-1.909,-1.8723,-1.8692,-1.91,-1.9131,-1.9131,-1.9131,-1.9131,-1.9131,-1.9131,-1.9131,-1.9131,-1.9131,-1.9131,-1.9131,-1.9131,-1.9131,-1.9131,-1.9131,-1.9131,-1.9131,-1.9075,-1.8942,-1.8674,-1.8114,-1.736,-1.6612,-1.5931,-1.4663,-1.3823,-1.3755,-1.315,-1.276,-1.2745,-1.2745,-1.2757,-1.2832,-1.2586,-1.2054,-1.1202,-1.0995,-1.0875,-1.0655,-1.0618,-1.0618,-1.0618,-1.0618,-1.0618,-1.0618,-1.0555,-1.0498,-1.0238,-0.9268,-0.8366,-0.7837,-0.6789,-0.5877,-0.5422,-0.4821,-0.3987,-0.3138,-0.2392,-0.1527,-0.0429,0.0651,0.179,-3.6131,-3.5854,-3.5871,-3.5374,-3.4769,-3.4927,-3.4927,-3.4785,-3.4833,-3.4864,-3.4785,-3.4284,-3.4121,-3.4137,-3.3566,-3.3624,-3.4075,-3.3583,-3.3275,-3.3183,-3.2659,-3.2216,-3.1779,-3.057,-2.9544,-2.8528,-2.6785,-2.5687,-2.523,-2.4549,-2.4171,-2.4171,-2.406,-2.4008,-2.3962,-2.3904,-2.3943,-2.4112,-2.3956,-2.3897,-2.4054,-2.3949,-2.3569,-2.2834,-2.1928,-2.1112,-2.0333,-1.953,-1.909,-1.9131,-1.9023,-1.9023,-1.9131,-1.9131,-1.9131,-1.9131,-1.9131,-1.9131,-1.9131,-1.9131,-1.9131,-1.9131,-1.9131,-1.9131,-1.9131,-1.9131,-1.9131,-1.9131,-1.9131,-1.9131,-1.9065,-1.8741,-1.8202,-1.7657,-1.7042,-1.6428,-1.5843,-1.5067,-1.4466,-1.4466,-1.3746,-1.3397,-1.3331,-1.3323,-1.31,-1.2551,-1.2318,-1.1888,-1.1135,-1.0949,-1.0862,-1.0698,-1.0618,-1.0618,-1.0618,-1.0618,-1.0618,-1.0618,-1.0618,-1.0555,-1.0364,-0.9786,-0.8947,-0.8032,-0.7242,-0.6334,-0.555,-0.4821,-0.4082,-0.3296,-0.2463,-0.1582,-0.024,0.0693,0.1469,-3.6071,-3.5827,-3.5783,-3.5345,-3.4673,-3.4738,-3.4577,-3.4333,-3.4333,-3.4169,-3.3853,-3.3598,-3.355,-3.3556,-3.306,-3.2982,-3.3213,-3.2936,-3.2813,-3.2782,-3.2521,-3.2087,-3.1479,-3.0472,-2.9379,-2.8163,-2.6574,-2.5536,-2.5005,-2.4403,-2.4125,-2.4125,-2.4125,-2.4125,-2.4112,-2.4067,-2.3995,-2.4008,-2.3949,-2.3878,-2.3747,-2.3424,-2.298,-2.2347,-2.1342,-2.0602,-2.015,-1.9452,-1.9131,-1.9131,-1.9131,-1.9131,-1.9131,-1.9131,-1.9131,-1.9131,-1.9131,-1.9131,-1.9131,-1.9131,-1.9131,-1.9131,-1.9131,-1.9131,-1.9131,-1.9131,-1.9131,-1.9131,-1.9131,-1.9131,-1.9065,-1.8865,-1.8395,-1.7579,-1.7166,-1.6682,-1.5559,-1.4935,-1.4569,-1.4274,-1.3855,-1.3492,-1.3492,-1.3426,-1.2985,-1.2235,-1.1964,-1.1601,-1.0927,-1.0742,-1.0695,-1.0658,-1.0618,-1.0618,-1.0618,-1.0618,-1.0618,-1.0618,-1.0618,-1.0618,-1.0491,-0.9977,-0.9134,-0.8285,-0.7502,-0.6658,-0.5683,-0.4948,-0.4209,-0.3351,-0.2175,-0.1178,-0.0474,0.0349,0.0974,-3.6045,-3.5633,-3.5453,-3.5085,-3.4593,-3.4529,-3.4382,-3.4102,-3.3869,-3.3563,-3.3198,-3.3039,-3.2986,-3.2964,-3.2772,-3.2752,-3.2921,-3.2711,-3.2619,-3.2644,-3.2435,-3.1934,-3.1167,-3.0197,-2.9024,-2.7607,-2.6242,-2.5314,-2.4778,-2.4332,-2.4125,-2.4125,-2.4125,-2.4125,-2.4125,-2.4054,-2.4008,-2.3891,-2.3832,-2.37,-2.3509,-2.2798,-2.2224,-2.1865,-2.0846,-2.015,-1.9846,-1.932,-1.9131,-1.9131,-1.9131,-1.9131,-1.9131,-1.9131,-1.9131,-1.9131,-1.9131,-1.9131,-1.9131,-1.9131,-1.9131,-1.9131,-1.9131,-1.9131,-1.9131,-1.9131,-1.9131,-1.9131,-1.9131,-1.9131,-1.9065,-1.8798,-1.8259,-1.752,-1.7097,-1.6324,-1.5338,-1.4776,-1.4353,-1.4129,-1.3775,-1.3492,-1.3419,-1.3258,-1.2776,-1.2047,-1.1696,-1.1478,-1.086,-1.0635,-1.0631,-1.0618,-1.0618,-1.0618,-1.0618,-1.0618,-1.0618,-1.0618,-1.0618,-1.0618,-1.0618,-1.0104,-0.932,-0.8479,-0.7827,-0.7001,-0.5853,-0.5071,-0.4336,-0.3257,-0.2178,-0.1156,-0.0769,0.0058,0.0575,-3.5881,-3.5178,-3.4626,-3.448,-3.4497,-3.4317,-3.4333,-3.4284,-3.3578,-3.3182,-3.3093,-3.2695,-3.2453,-3.2484,-3.2982,-3.3675,-3.4137,-3.3437,-3.313,-3.3126,-3.2563,-3.1839,-3.1113,-2.9789,-2.8437,-2.6972,-2.5758,-2.4778,-2.4229,-2.4112,-2.4125,-2.4125,-2.4125,-2.4125,-2.4067,-2.4008,-2.3891,-2.3891,-2.3688,-2.3509,-2.3258,-2.2137,-2.1514,-2.1325,-2.0549,-1.9781,-1.9264,-1.9131,-1.9131,-1.9131,-1.9131,-1.9131,-1.9131,-1.9131,-1.9131,-1.9131,-1.9131,-1.9131,-1.9131,-1.9131,-1.9131,-1.9131,-1.9131,-1.9131,-1.9131,-1.9131,-1.9131,-1.9131,-1.9065,-1.9065,-1.8931,-1.8259,-1.7647,-1.7235,-1.6114,-1.548,-1.5196,-1.4561,-1.4201,-1.4057,-1.371,-1.3419,-1.3193,-1.3046,-1.2659,-1.2127,-1.1722,-1.1289,-1.0955,-1.0701,-1.0581,-1.0618,-1.0618,-1.0618,-1.0618,-1.0618,-1.0618,-1.0618,-1.0618,-1.0618,-1.0618,-1.0358,-0.9512,-0.8784,-0.8302,-0.7388,-0.6133,-0.5114,-0.4382,-0.3425,-0.2436,-0.1607,-0.0945,-0.0172,0.0339,-3.5677,-3.5178,-3.4991,-3.4754,-3.4545,-3.4399,-3.4103,-3.363,-3.2964,-3.2695,-3.2641,-3.2492,-3.2398,-3.2413,-3.2644,-3.2849,-3.3008,-3.2762,-3.2655,-3.2624,-3.2394,-3.1525,-2.9988,-2.9317,-2.7929,-2.6009,-2.5242,-2.4677,-2.4171,-2.4125,-2.4125,-2.4125,-2.4125,-2.4125,-2.4054,-2.3949,-2.3832,-2.3688,-2.3522,-2.3198,-2.2555,-2.1678,-2.1008,-2.0549,-1.9846,-1.933,-1.9131,-1.9131,-1.9131,-1.9131,-1.9131,-1.9131,-1.9131,-1.9131,-1.9131,-1.9131,-1.9131,-1.9131,-1.9131,-1.9131,-1.9131,-1.9131,-1.9131,-1.9131,-1.9131,-1.9131,-1.9131,-1.9065,-1.8731,-1.8596,-1.8539,-1.8192,-1.7579,-1.6603,-1.6044,-1.5338,-1.4705,-1.4281,-1.3992,-1.3783,-1.3492,-1.3273,-1.3046,-1.2826,-1.2408,-1.1823,-1.149,-1.1229,-1.0842,-1.0615,-1.0618,-1.0618,-1.0618,-1.0618,-1.0618,-1.0618,-1.0618,-1.0618,-1.0618,-1.0618,-1.0618,-1.0618,-0.9907,-0.9157,-0.8659,-0.7661,-0.6337,-0.5061,-0.4335,-0.3371,-0.2337,-0.1782,-0.1006,-0.0345,0.0057,-3.5379,-3.5178,-3.5085,-3.4897,-3.461,-3.4317,-3.3869,-3.3177,-3.2656,-3.2398,-3.2398,-3.2398,-3.2398,-3.2398,-3.2398,-3.2287,-3.2135,-3.2247,-3.2231,-3.212,-3.2032,-3.101,-2.9362,-2.8708,-2.731,-2.5424,-2.4878,-2.4505,-2.4171,-2.4125,-2.4125,-2.4125,-2.4125,-2.4067,-2.4067,-2.3949,-2.3772,-2.3569,-2.3271,-2.2763,-2.2051,-2.1239,-2.0537,-2.0096,-1.9462,-1.9131,-1.9131,-1.9131,-1.9131,-1.9131,-1.9131,-1.9131,-1.9131,-1.9131,-1.9131,-1.9131,-1.9131,-1.9131,-1.9131,-1.9131,-1.9131,-1.9131,-1.9131,-1.9131,-1.9131,-1.9131,-1.9065,-1.8808,-1.8539,-1.8202,-1.7647,-1.7501,-1.7088,-1.6114,-1.5621,-1.5054,-1.4201,-1.3992,-1.3783,-1.3564,-1.3346,-1.3119,-1.2973,-1.2746,-1.2349,-1.1737,-1.157,-1.1236,-1.0935,-1.0725,-1.0618,-1.0618,-1.0618,-1.0618,-1.0618,-1.0618,-1.0618,-1.0618,-1.0618,-1.0618,-1.0618,-1.0618,-1.0345,-0.9597,-0.8685,-0.7665,-0.6463,-0.5143,-0.4059,-0.3188,-0.2628,-0.2129,-0.1347,-0.0579,-0.0114,-3.4913,-3.5131,-3.4818,-3.4739,-3.4626,-3.4086,-3.3594,-3.3187,-3.2617,-3.2398,-3.2398,-3.2398,-3.2398,-3.2398,-3.2398,-3.2247,-3.2094,-3.215,-3.215,-3.1936,-3.1405,-3.0423,-2.9127,-2.7965,-2.6722,-2.5295,-2.4514,-2.4191,-2.4282,-2.4243,-2.4204,-2.4164,-2.4138,-2.4054,-2.3878,-2.3891,-2.3713,-2.333,-2.2811,-2.2298,-2.1928,-2.0782,-2.0107,-1.9966,-1.9386,-1.9131,-1.9131,-1.9131,-1.9131,-1.9131,-1.9131,-1.9131,-1.9131,-1.9131,-1.9131,-1.9131,-1.9131,-1.9131,-1.9131,-1.9131,-1.9131,-1.9065,-1.9065,-1.9065,-1.9065,-1.9065,-1.8798,-1.8395,-1.8192,-1.7706,-1.6394,-1.6035,-1.5965,-1.5824,-1.4903,-1.4274,-1.4065,-1.3702,-1.3492,-1.3492,-1.3346,-1.3119,-1.29,-1.268,-1.2451,-1.2157,-1.177,-1.1416,-1.1223,-1.0875,-1.0685,-1.0618,-1.0618,-1.0618,-1.0618,-1.0618,-1.0618,-1.0618,-1.0618,-1.0618,-1.0618,-1.0555,-1.0428,-0.9799,-0.8788,-0.7711,-0.6138,-0.4893,-0.4207,-0.3409,-0.2932,-0.2344,-0.1383,-0.0569,-0.017,-3.5085,-3.5178,-3.5085,-3.4927,-3.4673,-3.4086,-3.3507,-3.2989,-3.2578,-3.2398,-3.2398,-3.2398,-3.2398,-3.2398,-3.2287,-3.2135,-3.2053,-3.215,-3.2094,-3.1781,-3.1354,-3.0463,-2.929,-2.8144,-2.695,-2.5767,-2.5398,-2.5288,-2.5197,-2.4883,-2.47,-2.4648,-2.4295,-2.4067,-2.3878,-2.376,-2.3569,-2.333,-2.2616,-2.199,-2.1439,-2.0537,-1.9901,-1.9462,-1.9198,-1.9131,-1.9131,-1.9131,-1.9131,-1.9131,-1.9131,-1.9131,-1.9131,-1.9131,-1.9131,-1.9131,-1.9131,-1.9131,-1.9142,-1.9075,-1.9085,-1.9008,-1.8751,-1.8808,-1.9008,-1.8741,-1.8327,-1.791,-1.7569,-1.6862,-1.5816,-1.5054,-1.4768,-1.4697,-1.4338,-1.3992,-1.3783,-1.3564,-1.3492,-1.3419,-1.32,-1.298,-1.29,-1.2673,-1.2311,-1.215,-1.1837,-1.1623,-1.1223,-1.1015,-1.0826,-1.0678,-1.0658,-1.0624,-1.0618,-1.0618,-1.0618,-1.0618,-1.0618,-1.0618,-1.0618,-1.0555,-1.0421,-0.9806,-0.8805,-0.7609,-0.6048,-0.4998,-0.4343,-0.3574,-0.2945,-0.2148,-0.1188,-0.0673,-0.0336,-3.4897,-3.4991,-3.4866,-3.4785,-3.4673,-3.3951,-3.3435,-3.2989,-3.2578,-3.2398,-3.2398,-3.2398,-3.2398,-3.2398,-3.2287,-3.2191,-3.2079,-3.2191,-3.2023,-3.158,-3.1123,-3.0322,-2.9231,-2.794,-2.6822,-2.5952,-2.5764,-2.5764,-2.5811,-2.5471,-2.5184,-2.4922,-2.4536,-2.4131,-2.3844,-2.3641,-2.3463,-2.3138,-2.2249,-2.1565,-2.0996,-2.0226,-1.9518,-1.9131,-1.9131,-1.9131,-1.9131,-1.9131,-1.9131,-1.9131,-1.9131,-1.9131,-1.9131,-1.9131,-1.9131,-1.9131,-1.9065,-1.9008,-1.8885,-1.8914,-1.8917,-1.8702,-1.8576,-1.8439,-1.8468,-1.8115,-1.7774,-1.7001,-1.6585,-1.6026,-1.5108,-1.4482,-1.4057,-1.392,-1.384,-1.3775,-1.3557,-1.3492,-1.3492,-1.3419,-1.3119,-1.2973,-1.2826,-1.2519,-1.2238,-1.2058,-1.1931,-1.181,-1.1369,-1.1136,-1.0915,-1.0728,-1.0698,-1.0665,-1.0624,-1.0618,-1.0618,-1.0618,-1.0618,-1.0618,-1.0618,-1.0548,-1.0478,-0.9662,-0.873,-0.767,-0.625,-0.5525,-0.4829,-0.3956,-0.2924,-0.218,-0.145,-0.096,-0.0562,-3.4399,-3.4643,-3.43,-3.4399,-3.4594,-3.3745,-3.3293,-3.3203,-3.2672,-3.2398,-3.2398,-3.2398,-3.2398,-3.2398,-3.2358,-3.2287,-3.2191,-3.212,-3.1823,-3.123,-3.0658,-2.9871,-2.8824,-2.7448,-2.6596,-2.6086,-2.6012,-2.5973,-2.6048,-2.5942,-2.5602,-2.5223,-2.4957,-2.4451,-2.3974,-2.359,-2.3364,-2.3083,-2.1879,-2.119,-2.1062,-1.9931,-1.9277,-1.923,-1.9241,-1.9261,-1.9282,-1.9292,-1.9189,-1.9152,-1.9131,-1.9131,-1.9075,-1.9065,-1.8998,-1.9075,-1.9085,-1.8812,-1.8544,-1.8805,-1.8662,-1.8228,-1.8308,-1.836,-1.7608,-1.7502,-1.7055,-1.5928,-1.5669,-1.5232,-1.4431,-1.4126,-1.39,-1.3564,-1.3557,-1.3557,-1.3492,-1.3492,-1.3492,-1.3419,-1.3127,-1.29,-1.29,-1.2526,-1.2365,-1.2238,-1.2064,-1.1917,-1.171,-1.1403,-1.1096,-1.0889,-1.0715,-1.0665,-1.0618,-1.0618,-1.0618,-1.0618,-1.0624,-1.0561,-1.0555,-1.0548,-1.0281,-0.9519,-0.8691,-0.7609,-0.6718,-0.5927,-0.4829,-0.3611,-0.282,-0.2243,-0.1716,-0.109,-0.0674,-3.4818,-3.4691,-3.4611,-3.4611,-3.4546,-3.371,-3.3293,-3.3187,-3.2672,-3.2398,-3.2398,-3.2398,-3.2398,-3.2398,-3.2302,-3.2247,-3.2079,-3.1637,-3.1233,-3.0807,-3.0018,-2.8997,-2.8174,-2.7806,-2.7364,-2.704,-2.6961,-2.7065,-2.704,-2.6621,-2.636,-2.6216,-2.5558,-2.5112,-2.4796,-2.409,-2.3692,-2.3292,-2.2092,-2.1338,-2.1259,-2.0504,-2.0069,-2.0069,-2.0038,-2.0038,-2.0058,-2.0069,-1.9717,-1.9116,-1.9131,-1.9131,-1.9127,-1.8792,-1.8745,-1.9044,-1.8988,-1.8874,-1.8765,-1.901,-1.8774,-1.8,-1.7696,-1.734,-1.6991,-1.6849,-1.6331,-1.5651,-1.5585,-1.5261,-1.4343,-1.4044,-1.3807,-1.3601,-1.3492,-1.3492,-1.3492,-1.3492,-1.3426,-1.3273,-1.3053,-1.29,-1.268,-1.2526,-1.2305,-1.2285,-1.2211,-1.2098,-1.1891,-1.1623,-1.1296,-1.0982,-1.0782,-1.0641,-1.0618,-1.0618,-1.0618,-1.0618,-1.0561,-1.0561,-1.0498,-1.0428,-1.0028,-0.9446,-0.8551,-0.7545,-0.6834,-0.6067,-0.473,-0.35,-0.2985,-0.2563,-0.1599,-0.092,-0.0677,-3.4513,-3.4448,-3.4349,-3.4349,-3.4349,-3.3658,-3.3293,-3.3187,-3.2672,-3.2398,-3.2398,-3.2398,-3.2398,-3.2398,-3.2287,-3.2191,-3.1894,-3.1334,-3.0866,-3.0237,-2.9282,-2.8417,-2.7908,-2.7987,-2.7921,-2.7536,-2.7469,-2.7443,-2.7458,-2.7183,-2.6922,-2.6621,-2.6091,-2.5614,-2.5179,-2.4304,-2.3701,-2.3344,-2.2218,-2.149,-2.142,-2.0776,-2.041,-2.041,-2.041,-2.041,-2.041,-2.041,-2.0151,-1.9748,-1.9644,-1.9644,-1.9565,-1.8924,-1.8645,-1.8934,-1.8527,-1.8068,-1.7934,-1.8239,-1.8076,-1.7421,-1.7039,-1.6784,-1.6396,-1.6201,-1.5918,-1.514,-1.5087,-1.4752,-1.4162,-1.3865,-1.3704,-1.3528,-1.3492,-1.3492,-1.3492,-1.3411,-1.3346,-1.32,-1.2973,-1.2746,-1.2599,-1.2452,-1.2305,-1.2305,-1.2298,-1.2204,-1.2071,-1.1784,-1.1536,-1.1283,-1.0962,-1.0802,-1.0675,-1.0641,-1.0631,-1.0618,-1.0491,-1.0498,-1.0434,-1.0364,-1.0104,-0.9512,-0.8544,-0.7702,-0.7055,-0.6203,-0.5038,-0.4089,-0.3532,-0.2768,-0.186,-0.1042,-0.0796,-3.3848,-3.4,-3.3745,-3.3797,-3.3899,-3.345,-3.3256,-3.3134,-3.2617,-3.2398,-3.2398,-3.2398,-3.2398,-3.2398,-3.2342,-3.212,-3.1667,-3.1203,-3.0421,-2.9546,-2.8638,-2.7947,-2.7934,-2.7894,-2.7829,-2.7523,-2.7469,-2.7469,-2.7523,-2.7484,-2.7249,-2.687,-2.6478,-2.5934,-2.5353,-2.431,-2.3668,-2.3302,-2.2206,-2.1603,-2.146,-2.102,-2.0752,-2.0741,-2.0741,-2.0721,-2.069,-2.0648,-2.0596,-2.0576,-2.0421,-2.0256,-2.0134,-1.9344,-1.8807,-1.8569,-1.7935,-1.7203,-1.675,-1.7123,-1.6959,-1.6492,-1.673,-1.6531,-1.5802,-1.5732,-1.5545,-1.4751,-1.4275,-1.4322,-1.4124,-1.3777,-1.3594,-1.3521,-1.3492,-1.3492,-1.3411,-1.3346,-1.32,-1.3127,-1.282,-1.2673,-1.2526,-1.2459,-1.2305,-1.2305,-1.2305,-1.2271,-1.2151,-1.1931,-1.1804,-1.1717,-1.1369,-1.0982,-1.0855,-1.0742,-1.0628,-1.0555,-1.0428,-1.0364,-1.0301,-1.0174,-1.011,-0.9594,-0.8549,-0.7902,-0.7512,-0.6523,-0.5272,-0.4489,-0.3786,-0.3019,-0.2216,-0.1589,-0.12,-3.3899,-3.345,-3.3398,-3.3398,-3.3398,-3.3165,-3.3005,-3.2951,-3.2578,-3.2398,-3.2398,-3.2398,-3.2398,-3.2382,-3.2333,-3.2023,-3.1627,-3.0895,-2.978,-2.8495,-2.7921,-2.7669,-2.7669,-2.7643,-2.759,-2.7469,-2.7469,-2.7469,-2.7469,-2.7523,-2.7471,-2.7287,-2.693,-2.646,-2.5592,-2.4563,-2.3655,-2.31,-2.221,-2.1733,-2.1712,-2.1563,-2.1424,-2.1424,-2.1445,-2.1476,-2.1507,-2.1507,-2.1507,-2.1257,-2.0616,-2.0114,-2.002,-1.9331,-1.8741,-1.8276,-1.7626,-1.7002,-1.6921,-1.7092,-1.709,-1.6261,-1.6164,-1.5947,-1.5219,-1.536,-1.5286,-1.4962,-1.4984,-1.4779,-1.4333,-1.4048,-1.3762,-1.3565,-1.3492,-1.3426,-1.3346,-1.3266,-1.3127,-1.2973,-1.2746,-1.2519,-1.2372,-1.2378,-1.2305,-1.2305,-1.2305,-1.2305,-1.2198,-1.2051,-1.2004,-1.1957,-1.1597,-1.1196,-1.1002,-1.0835,-1.0564,-1.0491,-1.0301,-1.0251,-1.0117,-0.9983,-0.9926,-0.9338,-0.8431,-0.7907,-0.7517,-0.647,-0.5153,-0.4623,-0.4043,-0.3328,-0.2618,-0.2092,-0.1389,-3.3658,-3.3309,-3.315,-3.3203,-3.3256,-3.2989,-3.2912,-3.2843,-3.2523,-3.2398,-3.2398,-3.2398,-3.2398,-3.2428,-3.2368,-3.2176,-3.1679,-3.0936,-2.9892,-2.8772,-2.8278,-2.7986,-2.7536,-2.7469,-2.7469,-2.7469,-2.7469,-2.7469,-2.7469,-2.7469,-2.7523,-2.7469,-2.7214,-2.6663,-2.5755,-2.4755,-2.3806,-2.3021,-2.2252,-2.1807,-2.1807,-2.1807,-2.1807,-2.1807,-2.1807,-2.1807,-2.1787,-2.1787,-2.1721,-2.1425,-2.0577,-1.9915,-2.0003,-1.9431,-1.8733,-1.7752,-1.6834,-1.6356,-1.6354,-1.644,-1.6312,-1.5839,-1.5756,-1.5584,-1.5233,-1.5343,-1.5343,-1.5218,-1.5123,-1.4933,-1.4333,-1.4114,-1.3828,-1.3587,-1.3419,-1.3339,-1.32,-1.3127,-1.2973,-1.2746,-1.2599,-1.2452,-1.2378,-1.2305,-1.2305,-1.2305,-1.2305,-1.2305,-1.2305,-1.2184,-1.2151,-1.2037,-1.171,-1.1403,-1.1176,-1.0856,-1.0487,-1.0364,-1.0174,-1.0109,-1.0015,-0.9845,-0.9676,-0.9104,-0.8533,-0.7782,-0.7256,-0.6145,-0.5422,-0.4982,-0.4466,-0.369,-0.2969,-0.2365,-0.1656,-3.324,-3.3203,-3.2935,-3.2935,-3.3081,-3.2881,-3.2788,-3.2773,-3.2523,-3.2398,-3.2444,-3.249,-3.2644,-3.2594,-3.267,-3.2452,-3.182,-3.1189,-3.0172,-2.9161,-2.8919,-2.8331,-2.7721,-2.7469,-2.7469,-2.7469,-2.7469,-2.7469,-2.7469,-2.7469,-2.7469,-2.7469,-2.7188,-2.6471,-2.5615,-2.4696,-2.3706,-2.2703,-2.2111,-2.1807,-2.1807,-2.1807,-2.1807,-2.1807,-2.1807,-2.1807,-2.1807,-2.1731,-2.1645,-2.1262,-2.0411,-1.9934,-1.9483,-1.8975,-1.8406,-1.696,-1.6085,-1.5696,-1.5613,-1.5575,-1.5514,-1.5431,-1.5431,-1.5431,-1.5423,-1.5409,-1.5409,-1.5313,-1.5153,-1.4757,-1.415,-1.4011,-1.3836,-1.3587,-1.3346,-1.3193,-1.3127,-1.2973,-1.282,-1.268,-1.2452,-1.2378,-1.2305,-1.2305,-1.2305,-1.2305,-1.2305,-1.2305,-1.2305,-1.2298,-1.2251,-1.2158,-1.185,-1.143,-1.1169,-1.1069,-1.0684,-1.0412,-1.02,-1.012,-1.0,-0.9861,-0.9693,-0.9303,-0.8766,-0.8002,-0.7256,-0.6404,-0.5807,-0.5463,-0.4907,-0.4197,-0.3441,-0.2644,-0.1932,-3.3165,-3.2935,-3.2648,-3.2508,-3.2563,-3.2523,-3.2523,-3.2468,-3.2453,-3.2398,-3.249,-3.2952,-3.3183,-3.3242,-3.3231,-3.2768,-3.2012,-3.1299,-3.0391,-2.9484,-2.9161,-2.8504,-2.7786,-2.7549,-2.7549,-2.7469,-2.7469,-2.7469,-2.7469,-2.7469,-2.7456,-2.739,-2.6905,-2.6045,-2.4969,-2.412,-2.3276,-2.2327,-2.1883,-2.1807,-2.1807,-2.1807,-2.1807,-2.1807,-2.1807,-2.1807,-2.1807,-2.1721,-2.1395,-2.0537,-2.0762,-1.9683,-1.8212,-1.6976,-1.6587,-1.6429,-1.5906,-1.5431,-1.5431,-1.5431,-1.5431,-1.5431,-1.5431,-1.5431,-1.5431,-1.5431,-1.5431,-1.5357,-1.5145,-1.4794,-1.4435,-1.4172,-1.3843,-1.3535,-1.3266,-1.3119,-1.2973,-1.2753,-1.2673,-1.2526,-1.2378,-1.2305,-1.2305,-1.2305,-1.2305,-1.2305,-1.2305,-1.2305,-1.2305,-1.2305,-1.2291,-1.2178,-1.2017,-1.155,-1.1109,-1.1076,-1.0876,-1.0686,-1.0542,-1.0377,-1.0201,-0.9983,-0.979,-0.9509,-0.893,-0.8182,-0.7447,-0.6662,-0.6009,-0.5477,-0.5127,-0.4716,-0.3692,-0.2711,-0.2092,-3.3043,-3.2648,-3.2468,-3.2398,-3.2398,-3.2398,-3.2398,-3.2398,-3.2398,-3.2598,-3.2921,-3.3275,-3.3629,-3.3796,-3.3711,-3.3129,-3.2351,-3.168,-3.0774,-2.9862,-2.9349,-2.8825,-2.7943,-2.7814,-2.7906,-2.7865,-2.7706,-2.7469,-2.7469,-2.7469,-2.739,-2.7053,-2.6714,-2.5767,-2.4541,-2.3902,-2.2968,-2.2101,-2.1807,-2.1807,-2.1807,-2.1807,-2.1807,-2.1807,-2.1807,-2.1807,-2.1807,-2.1655,-2.1339,-2.0799,-2.0479,-1.9585,-1.8221,-1.6952,-1.6032,-1.5966,-1.5673,-1.5431,-1.5431,-1.5431,-1.5431,-1.5431,-1.5431,-1.5431,-1.5431,-1.5431,-1.5431,-1.5387,-1.5328,-1.4992,-1.4516,-1.4304,-1.4011,-1.3469,-1.3207,-1.2987,-1.276,-1.2606,-1.2546,-1.2472,-1.2378,-1.2305,-1.2305,-1.2305,-1.2305,-1.2305,-1.2305,-1.2305,-1.2305,-1.2305,-1.2305,-1.2218,-1.2078,-1.175,-1.1343,-1.1263,-1.1196,-1.0995,-1.0762,-1.0594,-1.0336,-1.0117,-0.9946,-0.982,-0.9145,-0.8376,-0.7512,-0.6793,-0.6145,-0.5624,-0.5279,-0.4791,-0.3687,-0.2783,-0.2202,-3.3011,-3.2563,-3.2453,-3.2398,-3.2398,-3.2287,-3.2287,-3.2413,-3.244,-3.2793,-3.3383,-3.3737,-3.4125,-3.4348,-3.4055,-3.3513,-3.2791,-3.2222,-3.1227,-3.0132,-2.9592,-2.9027,-2.8343,-2.8091,-2.8,-2.7902,-2.7745,-2.7469,-2.7469,-2.7469,-2.7188,-2.685,-2.6645,-2.5697,-2.4325,-2.3683,-2.2894,-2.2317,-2.1807,-2.1807,-2.1807,-2.1807,-2.1807,-2.1807,-2.1807,-2.1807,-2.1807,-2.1655,-2.1262,-2.0809,-2.0293,-1.9576,-1.8736,-1.7521,-1.6394,-1.559,-1.5431,-1.5431,-1.5431,-1.5431,-1.5431,-1.5431,-1.5431,-1.5431,-1.5431,-1.5431,-1.5431,-1.5423,-1.5306,-1.5065,-1.4567,-1.4384,-1.391,-1.3407,-1.3029,-1.285,-1.2722,-1.2587,-1.2526,-1.2499,-1.2345,-1.2305,-1.2305,-1.2305,-1.2305,-1.2305,-1.2305,-1.2305,-1.2305,-1.2305,-1.2298,-1.2251,-1.2118,-1.1891,-1.1657,-1.1543,-1.1476,-1.1334,-1.1028,-1.0829,-1.0498,-1.0178,-1.005,-0.9832,-0.9444,-0.8694,-0.7777,-0.6924,-0.6404,-0.5885,-0.5557,-0.4875,-0.3848,-0.2996,-0.2343,-3.3256,-3.3134,-3.2617,-3.2398,-3.2342,-3.2007,-3.2064,-3.2435,-3.2642,-3.2947,-3.3587,-3.457,-3.4927,-3.4583,-3.4237,-3.3794,-3.317,-3.2389,-3.1544,-3.0418,-2.9781,-2.8986,-2.7891,-2.7602,-2.7774,-2.7732,-2.7562,-2.7536,-2.7352,-2.7352,-2.7201,-2.6714,-2.6139,-2.5346,-2.412,-2.3486,-2.2841,-2.2317,-2.1959,-2.1807,-2.1807,-2.1807,-2.1807,-2.1807,-2.1807,-2.1807,-2.1731,-2.1578,-2.1108,-2.0323,-2.0654,-1.951,-1.7546,-1.7139,-1.6417,-1.5763,-1.5431,-1.5431,-1.5431,-1.5431,-1.5431,-1.5431,-1.5431,-1.5431,-1.5431,-1.5431,-1.5431,-1.5423,-1.5136,-1.4852,-1.4503,-1.4106,-1.3676,-1.3351,-1.3119,-1.3044,-1.292,-1.2844,-1.2768,-1.2634,-1.2498,-1.2371,-1.2305,-1.2305,-1.2305,-1.2305,-1.2305,-1.2305,-1.2305,-1.2305,-1.2305,-1.2271,-1.2218,-1.2011,-1.187,-1.1777,-1.1653,-1.1587,-1.1268,-1.1032,-1.0685,-1.0312,-0.994,-0.976,-0.9391,-0.8765,-0.7712,-0.6994,-0.6539,-0.6013,-0.5422,-0.4824,-0.409,-0.3272,-0.2421,-3.3081,-3.2726,-3.2231,-3.2176,-3.2342,-3.1894,-3.2179,-3.2854,-3.3089,-3.348,-3.4121,-3.4699,-3.4826,-3.4383,-3.4134,-3.3659,-3.2947,-3.2124,-3.1557,-3.0759,-3.0051,-2.9453,-2.9194,-2.8343,-2.7908,-2.7641,-2.7079,-2.6491,-2.6648,-2.6824,-2.6782,-2.6264,-2.5639,-2.4791,-2.3925,-2.3287,-2.2628,-2.2176,-2.1883,-2.1807,-2.1807,-2.1807,-2.1807,-2.1807,-2.1807,-2.1731,-2.1655,-2.1436,-2.1128,-2.0576,-2.0762,-2.0017,-1.8407,-1.756,-1.6732,-1.6221,-1.5665,-1.5431,-1.5431,-1.5431,-1.5431,-1.5431,-1.5431,-1.5431,-1.5431,-1.5431,-1.5431,-1.5431,-1.5141,-1.4895,-1.4561,-1.4216,-1.3811,-1.3509,-1.3278,-1.3178,-1.3155,-1.3071,-1.2959,-1.2799,-1.2701,-1.2478,-1.2345,-1.2305,-1.2305,-1.2305,-1.2305,-1.2305,-1.2305,-1.2305,-1.2305,-1.2298,-1.2245,-1.2158,-1.2051,-1.1951,-1.1852,-1.165,-1.1436,-1.1101,-1.0854,-1.0534,-1.0049,-0.976,-0.9545,-0.8744,-0.7661,-0.719,-0.6798,-0.6079,-0.5289,-0.4625,-0.4015,-0.3216,-0.2099,-3.2812,-3.2231,-3.1838,-3.1951,-3.2358,-3.1947,-3.241,-3.3383,-3.364,-3.4075,-3.4512,-3.4622,-3.4398,-3.4119,-3.3934,-3.3479,-3.2861,-3.1653,-3.1144,-3.0637,-2.9807,-2.9174,-2.8558,-2.796,-2.7591,-2.7941,-2.6582,-2.6138,-2.6168,-2.614,-2.5975,-2.5664,-2.5298,-2.4504,-2.3582,-2.3075,-2.2628,-2.1883,-2.1807,-2.1807,-2.1807,-2.1807,-2.1807,-2.1807,-2.1731,-2.1731,-2.1502,-2.1282,-2.1138,-2.0498,-2.0586,-1.9948,-1.8407,-1.7479,-1.674,-1.6214,-1.5582,-1.5431,-1.5431,-1.5431,-1.5431,-1.5431,-1.5431,-1.5347,-1.5347,-1.534,-1.5257,-1.5173,-1.5068,-1.4807,-1.4614,-1.4332,-1.3954,-1.365,-1.3457,-1.3432,-1.3313,-1.3307,-1.32,-1.2986,-1.2786,-1.2538,-1.2418,-1.2338,-1.2305,-1.2305,-1.2305,-1.2305,-1.2305,-1.2305,-1.2305,-1.2305,-1.2285,-1.2238,-1.2184,-1.2118,-1.1952,-1.1768,-1.148,-1.1171,-1.0808,-1.0465,-1.0061,-0.9802,-0.9622,-0.8755,-0.7717,-0.7386,-0.6994,-0.6013,-0.5093,-0.4556,-0.3862,-0.301,-0.1787,-3.2499,-3.1739,-3.1724,-3.1966,-3.2364,-3.2094,-3.2526,-3.3575,-3.4273,-3.4589,-3.4577,-3.4296,-3.4105,-3.3919,-3.3547,-3.3269,-3.3087,-3.1377,-3.0596,-2.9587,-2.8184,-2.7534,-2.725,-2.6956,-2.6398,-2.6674,-2.5916,-2.5929,-2.6154,-2.5358,-2.5219,-2.5019,-2.4776,-2.4554,-2.3875,-2.3075,-2.2553,-2.1883,-2.1807,-2.1807,-2.1807,-2.1807,-2.1807,-2.1807,-2.1807,-2.1721,-2.1502,-2.1205,-2.0654,-1.9854,-1.9938,-1.9323,-1.7683,-1.7001,-1.6437,-1.5816,-1.559,-1.5431,-1.5431,-1.5431,-1.5431,-1.5431,-1.5347,-1.5257,-1.5173,-1.509,-1.4999,-1.4817,-1.4817,-1.4615,-1.4412,-1.4177,-1.3885,-1.3756,-1.3682,-1.3669,-1.3614,-1.3614,-1.348,-1.3206,-1.2875,-1.2546,-1.2282,-1.2103,-1.2231,-1.2231,-1.2305,-1.2305,-1.2305,-1.2305,-1.2305,-1.2305,-1.2305,-1.2291,-1.2291,-1.2178,-1.1985,-1.1825,-1.1573,-1.1162,-1.0759,-1.0404,-1.0103,-0.9772,-0.9527,-0.8609,-0.7912,-0.7712,-0.7186,-0.5885,-0.5027,-0.4553,-0.3671,-0.2704,-0.1286,-3.212,-3.1667,-3.1087,-3.1529,-3.2558,-3.1808,-3.2552,-3.4031,-3.4218,-3.4297,-3.431,-3.3848,-3.3646,-3.3478,-3.2972,-3.2539,-3.2022,-3.0829,-3.0104,-2.9389,-2.832,-2.7719,-2.7277,-2.6426,-2.5955,-2.5916,-2.5328,-2.4831,-2.4901,-2.4655,-2.4305,-2.412,-2.4148,-2.3833,-2.3312,-2.283,-2.2176,-2.1949,-2.1807,-2.1807,-2.1807,-2.1807,-2.1807,-2.1807,-2.1665,-2.1512,-2.1282,-2.0557,-2.0001,-1.9371,-1.8904,-1.7844,-1.6862,-1.6413,-1.5936,-1.5499,-1.5431,-1.5431,-1.5431,-1.5431,-1.5431,-1.5347,-1.5257,-1.5173,-1.509,-1.4915,-1.4824,-1.4734,-1.4566,-1.4469,-1.4358,-1.4151,-1.4047,-1.389,-1.3884,-1.3861,-1.3874,-1.3854,-1.3607,-1.3267,-1.2739,-1.2221,-1.2037,-1.1861,-1.2003,-1.2157,-1.2231,-1.2305,-1.2305,-1.2305,-1.2305,-1.2305,-1.2305,-1.2305,-1.2224,-1.215,-1.2003,-1.1781,-1.1552,-1.1112,-1.0667,-1.0445,-1.0194,-0.9832,-0.9521,-0.8944,-0.8452,-0.8236,-0.7316,-0.5943,-0.5216,-0.4746,-0.3725,-0.2454,-0.1037,-3.1694,-3.1204,-3.0553,-3.1026,-3.2035,-3.1471,-3.224,-3.3689,-3.3932,-3.4025,-3.4056,-3.3407,-3.3045,-3.2848,-3.2159,-3.1668,-3.0928,-2.9789,-2.915,-2.8333,-2.7515,-2.7243,-2.6783,-2.6197,-2.5275,-2.5249,-2.4753,-2.4243,-2.4622,-2.4093,-2.3791,-2.3555,-2.325,-2.301,-2.2915,-2.2349,-2.1959,-2.1807,-2.1807,-2.1807,-2.1807,-2.1807,-2.1731,-2.1731,-2.1589,-2.1108,-2.0722,-2.0001,-1.9195,-1.8461,-1.773,-1.6985,-1.6332,-1.5831,-1.5493,-1.5387,-1.5431,-1.5431,-1.5431,-1.5431,-1.5347,-1.5166,-1.5173,-1.4999,-1.4908,-1.4741,-1.4573,-1.4489,-1.4405,-1.4314,-1.4321,-1.4126,-1.4119,-1.4032,-1.4045,-1.4008,-1.4015,-1.3981,-1.3641,-1.33,-1.2805,-1.2473,-1.2112,-1.2003,-1.2077,-1.2231,-1.2231,-1.2305,-1.2305,-1.2305,-1.2305,-1.2305,-1.2305,-1.2231,-1.2224,-1.2003,-1.1781,-1.1632,-1.136,-1.101,-1.07,-1.0484,-1.02,-0.9742,-0.9432,-0.9209,-0.8922,-0.8565,-0.7377,-0.5873,-0.5279,-0.4683,-0.334,-0.2063,-0.1115,-3.1146,-3.0387,-3.0312,-3.0568,-3.1057,-3.125,-3.1646,-3.2473,-3.3324,-3.3828,-3.3729,-3.2871,-3.2398,-3.2131,-3.1246,-3.0656,-2.9891,-2.8446,-2.752,-2.7092,-2.6045,-2.5065,-2.4766,-2.4616,-2.4687,-2.4779,-2.4452,-2.4347,-2.4719,-2.3961,-2.3491,-2.3047,-2.2555,-2.2436,-2.2695,-2.2487,-2.2166,-2.1883,-2.1807,-2.1807,-2.1807,-2.1807,-2.1731,-2.1339,-2.1262,-2.0789,-1.9835,-1.9274,-1.839,-1.7415,-1.7041,-1.6394,-1.5733,-1.5575,-1.5409,-1.5423,-1.5431,-1.5431,-1.5347,-1.5431,-1.5173,-1.4908,-1.4908,-1.4824,-1.4573,-1.4405,-1.4321,-1.4243,-1.4166,-1.4166,-1.4088,-1.4088,-1.4088,-1.4088,-1.4088,-1.4088,-1.4088,-1.3975,-1.3621,-1.3207,-1.3081,-1.2921,-1.2516,-1.2231,-1.2231,-1.2305,-1.2305,-1.2305,-1.2305,-1.2305,-1.2305,-1.2305,-1.2305,-1.2231,-1.215,-1.1855,-1.1632,-1.1484,-1.1193,-1.0955,-1.0737,-1.0604,-1.0179,-0.9706,-0.9551,-0.9468,-0.9244,-0.8952,-0.7512,-0.6137,-0.5087,-0.4289,-0.2948,-0.1872,-0.1057,-3.0628,-3.0266,-2.996,-2.9898,-3.0107,-3.0566,-3.1289,-3.2023,-3.2292,-3.2359,-3.2387,-3.2298,-3.185,-3.1204,-3.0642,-2.9813,-2.8545,-2.7788,-2.686,-2.6004,-2.5097,-2.4845,-2.4465,-2.43,-2.4243,-2.4308,-2.4119,-2.3929,-2.3872,-2.3394,-2.2788,-2.2166,-2.1846,-2.1761,-2.1988,-2.1983,-2.1873,-2.1807,-2.1807,-2.1807,-2.1807,-2.1731,-2.1415,-2.0779,-2.0615,-1.9982,-1.8789,-1.831,-1.7423,-1.6617,-1.6409,-1.5846,-1.5431,-1.5431,-1.5431,-1.5431,-1.5347,-1.5257,-1.5082,-1.4915,-1.4908,-1.4734,-1.465,-1.4566,-1.4398,-1.4243,-1.4166,-1.4166,-1.4088,-1.4088,-1.4088,-1.4088,-1.4088,-1.4088,-1.4088,-1.4088,-1.4048,-1.3848,-1.3499,-1.3021,-1.2746,-1.2254,-1.184,-1.2164,-1.2305,-1.2305,-1.2305,-1.2305,-1.2305,-1.2305,-1.2305,-1.2305,-1.2305,-1.2157,-1.2009,-1.1855,-1.1632,-1.1409,-1.1218,-1.0966,-1.0834,-1.0713,-1.0369,-0.9862,-0.9826,-0.9729,-0.9284,-0.8689,-0.7637,-0.6461,-0.5348,-0.4023,-0.2614,-0.1878,-0.1404,-2.96,-2.9693,-2.9279,-2.9344,-2.9645,-3.0038,-3.0736,-3.1425,-3.1279,-3.126,-3.1513,-3.171,-3.1204,-3.0333,-2.9631,-2.8848,-2.7309,-2.6495,-2.5894,-2.5145,-2.4791,-2.4549,-2.4332,-2.4216,-2.4138,-2.4054,-2.3878,-2.3654,-2.3454,-2.303,-2.2414,-2.1661,-2.1185,-2.1415,-2.1657,-2.1797,-2.1807,-2.1807,-2.1807,-2.1807,-2.1807,-2.1645,-2.1242,-2.045,-1.9894,-1.9256,-1.7971,-1.7098,-1.6542,-1.6221,-1.5831,-1.5431,-1.5431,-1.5431,-1.5431,-1.5431,-1.5257,-1.5082,-1.4824,-1.465,-1.4566,-1.4489,-1.4398,-1.4398,-1.4321,-1.4166,-1.4166,-1.4088,-1.4088,-1.4088,-1.4088,-1.4088,-1.4088,-1.4088,-1.4088,-1.4088,-1.4021,-1.3834,-1.3466,-1.2988,-1.2596,-1.2005,-1.1552,-1.1893,-1.2305,-1.2305,-1.2305,-1.2305,-1.2305,-1.2305,-1.2305,-1.2231,-1.2231,-1.2083,-1.2009,-1.1781,-1.1558,-1.1341,-1.1143,-1.1015,-1.0991,-1.0858,-1.0435,-1.014,-1.0012,-0.9819,-0.9142,-0.8361,-0.7377,-0.6396,-0.5286,-0.3951,-0.2414,-0.1879,-0.1611,-2.8262,-2.8605,-2.833,-2.8711,-2.9414,-2.9476,-2.9869,-3.0474,-3.0488,-3.0811,-3.1345,-3.0769,-3.0221,-2.9434,-2.8408,-2.7463,-2.6521,-2.5601,-2.5057,-2.4664,-2.4434,-2.4274,-2.4171,-2.4112,-2.4125,-2.3936,-2.37,-2.345,-2.3271,-2.2261,-2.1594,-2.1437,-2.1054,-2.1303,-2.1593,-2.1807,-2.1807,-2.1807,-2.1807,-2.1807,-2.1807,-2.1731,-2.0934,-2.0138,-1.9492,-1.8461,-1.7342,-1.646,-1.6147,-1.5748,-1.5431,-1.5431,-1.5431,-1.5431,-1.5431,-1.5347,-1.5257,-1.4908,-1.4734,-1.4559,-1.4321,-1.4243,-1.4321,-1.4237,-1.4159,-1.4082,-1.4082,-1.4088,-1.4088,-1.4088,-1.4088,-1.4088,-1.4088,-1.4088,-1.4088,-1.4062,-1.4028,-1.3814,-1.3507,-1.3107,-1.2782,-1.2352,-1.2155,-1.2305,-1.2305,-1.2305,-1.2305,-1.2231,-1.2231,-1.2305,-1.2305,-1.2231,-1.2157,-1.2003,-1.1855,-1.1706,-1.1484,-1.126,-1.118,-1.1057,-1.1034,-1.1004,-1.0657,-1.0363,-1.0254,-0.9835,-0.9148,-0.8231,-0.7181,-0.6203,-0.5418,-0.4217,-0.2815,-0.2211,-0.1672,-2.7715,-2.8029,-2.769,-2.7875,-2.8282,-2.831,-2.8886,-2.9785,-2.9869,-3.0024,-3.015,-3.0431,-2.9602,-2.8338,-2.8366,-2.7265,-2.6214,-2.5465,-2.5046,-2.465,-2.4363,-2.4261,-2.4171,-2.4125,-2.4125,-2.3936,-2.3628,-2.3138,-2.2555,-2.1479,-2.1117,-2.1326,-2.0917,-2.1147,-2.1497,-2.1807,-2.1807,-2.1807,-2.1807,-2.1807,-2.1731,-2.1655,-2.0615,-1.9562,-1.893,-1.7747,-1.6468,-1.5906,-1.559,-1.5514,-1.5431,-1.5431,-1.5431,-1.5431,-1.5431,-1.534,-1.5082,-1.4741,-1.465,-1.4405,-1.4166,-1.4082,-1.4166,-1.4166,-1.4088,-1.4088,-1.4088,-1.4088,-1.4088,-1.4088,-1.4088,-1.4088,-1.4088,-1.4088,-1.4088,-1.4068,-1.3995,-1.3741,-1.344,-1.3193,-1.2866,-1.2599,-1.2392,-1.2305,-1.2305,-1.2305,-1.2305,-1.2231,-1.2157,-1.2231,-1.2157,-1.2083,-1.2009,-1.1935,-1.1706,-1.1484,-1.1335,-1.1186,-1.1105,-1.1099,-1.1063,-1.101,-1.0737,-1.0419,-1.0137,-0.971,-0.9144,-0.8231,-0.7246,-0.6461,-0.5609,-0.4411,-0.3347,-0.2613,-0.1871,-2.6942,-2.7325,-2.7079,-2.7276,-2.7762,-2.7776,-2.824,-2.883,-2.89,-2.8886,-2.8928,-2.9237,-2.8675,-2.7636,-2.7533,-2.6826,-2.5409,-2.5089,-2.4721,-2.4434,-2.4363,-2.4203,-2.4112,-2.4125,-2.4125,-2.3878,-2.3437,-2.2871,-2.2163,-2.1129,-2.0521,-2.1134,-2.0655,-2.1073,-2.1538,-2.1807,-2.1807,-2.1807,-2.1807,-2.1731,-2.1655,-2.1492,-2.0285,-1.893,-1.8381,-1.7188,-1.5748,-1.5514,-1.5431,-1.5431,-1.5431,-1.5431,-1.5431,-1.5431,-1.5431,-1.534,-1.4999,-1.4741,-1.465,-1.4334,-1.4173,-1.4088,-1.4088,-1.4088,-1.4088,-1.4088,-1.4088,-1.4088,-1.4088,-1.4088,-1.4088,-1.4088,-1.4088,-1.4088,-1.4088,-1.4088,-1.3881,-1.3641,-1.3414,-1.3193,-1.2919,-1.2632,-1.2458,-1.2371,-1.2231,-1.2231,-1.2157,-1.215,-1.2077,-1.2077,-1.2003,-1.1929,-1.1855,-1.1787,-1.1558,-1.1409,-1.126,-1.1186,-1.1111,-1.1111,-1.1117,-1.1015,-1.081,-1.0441,-0.997,-0.9526,-0.9121,-0.8366,-0.7507,-0.6658,-0.5873,-0.4878,-0.3749,-0.2748,-0.1935,-2.598,-2.6694,-2.6453,-2.6816,-2.7565,-2.7537,-2.7579,-2.7636,-2.7636,-2.772,-2.7832,-2.7832,-2.7593,-2.7016,-2.6816,-2.6183,-2.5211,-2.4821,-2.4549,-2.4112,-2.4171,-2.4112,-2.4112,-2.4125,-2.3995,-2.3688,-2.3113,-2.2359,-2.1916,-2.0948,-2.0253,-2.0896,-2.0573,-2.0897,-2.1652,-2.1797,-2.1731,-2.1741,-2.1741,-2.1665,-2.1502,-2.1185,-2.0537,-1.8859,-1.8141,-1.7423,-1.6064,-1.5506,-1.5431,-1.5431,-1.5431,-1.5431,-1.5431,-1.5431,-1.5431,-1.5264,-1.4915,-1.4824,-1.4573,-1.4334,-1.4173,-1.4088,-1.4088,-1.4088,-1.4088,-1.4088,-1.4088,-1.4088,-1.4088,-1.4088,-1.4088,-1.4088,-1.4088,-1.4088,-1.4088,-1.4088,-1.3988,-1.3728,-1.3386,-1.3147,-1.2862,-1.2603,-1.2441,-1.2348,-1.2083,-1.2083,-1.2003,-1.2003,-1.1935,-1.1861,-1.1781,-1.1706,-1.1632,-1.1558,-1.1409,-1.126,-1.1254,-1.1186,-1.1111,-1.1117,-1.1117,-1.1015,-1.0961,-1.0542,-1.0117,-0.9616,-0.9102,-0.8468,-0.7712,-0.6658,-0.5873,-0.5216,-0.422,-0.3084,-0.2206,-2.5633,-2.5814,-2.5953,-2.6161,-2.6343,-2.6343,-2.6385,-2.6343,-2.6148,-2.6762,-2.7636,-2.7692,-2.7397,-2.6679,-2.6382,-2.5794,-2.5043,-2.4593,-2.4363,-2.4157,-2.4125,-2.4054,-2.4067,-2.4008,-2.3878,-2.3378,-2.2616,-2.1729,-2.0921,-2.0216,-2.0119,-2.0843,-2.0594,-2.0886,-2.1735,-2.1807,-2.1731,-2.1665,-2.1512,-2.1512,-2.1436,-2.1051,-2.0411,-1.9283,-1.855,-1.7585,-1.6386,-1.5665,-1.5506,-1.5431,-1.5431,-1.5431,-1.5431,-1.5431,-1.5431,-1.5347,-1.4999,-1.4734,-1.4573,-1.4328,-1.4166,-1.4088,-1.4088,-1.4088,-1.4088,-1.4088,-1.4082,-1.4082,-1.4088,-1.4088,-1.4088,-1.4088,-1.4088,-1.4088,-1.4088,-1.4088,-1.4088,-1.3745,-1.3459,-1.3121,-1.2837,-1.2595,-1.251,-1.2257,-1.2,-1.1855,-1.1781,-1.1787,-1.1651,-1.1583,-1.1558,-1.1484,-1.1484,-1.1409,-1.126,-1.1186,-1.1186,-1.1186,-1.1111,-1.1117,-1.1117,-1.1224,-1.1294,-1.0752,-1.0301,-0.9789,-0.9354,-0.8874,-0.8052,-0.6798,-0.6137,-0.5481,-0.4489,-0.3355,-0.2611,-2.5605,-2.555,-2.5798,-2.5893,-2.5893,-2.5893,-2.5839,-2.5757,-2.5702,-2.5952,-2.6535,-2.6705,-2.6595,-2.6147,-2.5907,-2.5513,-2.4791,-2.4492,-2.4274,-2.4112,-2.4054,-2.3936,-2.3891,-2.3832,-2.3437,-2.2932,-2.2137,-2.1187,-2.0042,-1.9811,-1.9984,-2.0579,-2.0564,-2.0876,-2.1683,-2.1731,-2.1665,-2.1512,-2.1359,-2.1282,-2.1205,-2.0896,-2.0352,-1.945,-1.8559,-1.7594,-1.6706,-1.5906,-1.5506,-1.5431,-1.5431,-1.5431,-1.5431,-1.5431,-1.5431,-1.5257,-1.4999,-1.4734,-1.4573,-1.4412,-1.4088,-1.4088,-1.4075,-1.4075,-1.3861,-1.3854,-1.3975,-1.3988,-1.4075,-1.4088,-1.4088,-1.4088,-1.4088,-1.4088,-1.4088,-1.4088,-1.4082,-1.3968,-1.3655,-1.348,-1.3072,-1.2726,-1.2492,-1.2093,-1.1889,-1.1815,-1.1715,-1.1696,-1.1539,-1.1409,-1.1378,-1.1335,-1.1341,-1.1267,-1.1186,-1.1111,-1.1111,-1.1117,-1.1117,-1.1111,-1.1099,-1.1512,-1.1539,-1.0885,-1.0372,-1.0077,-0.9629,-0.9102,-0.8022,-0.6741,-0.6276,-0.5877,-0.4752,-0.3558,-0.2681,-2.5743,-2.5592,-2.5798,-2.5893,-2.5893,-2.5893,-2.5798,-2.5592,-2.5688,-2.5508,-2.5283,-2.5409,-2.5369,-2.5313,-2.5075,-2.4765,-2.4523,-2.4319,-2.4112,-2.4125,-2.4125,-2.3878,-2.3641,-2.3403,-2.2944,-2.2237,-2.1428,-2.0549,-1.9539,-1.9642,-1.9907,-2.0286,-2.0648,-2.0948,-2.1473,-2.1589,-2.1512,-2.1282,-2.1138,-2.0906,-2.0916,-2.0829,-2.0186,-1.9381,-1.8487,-1.7594,-1.6706,-1.5989,-1.5514,-1.5431,-1.5431,-1.5431,-1.5431,-1.5431,-1.5347,-1.5257,-1.4908,-1.4734,-1.4573,-1.4328,-1.4166,-1.4082,-1.4068,-1.3935,-1.3625,-1.3661,-1.3774,-1.3895,-1.3981,-1.4055,-1.4055,-1.3997,-1.3997,-1.3997,-1.3997,-1.3997,-1.399,-1.399,-1.3795,-1.3587,-1.3168,-1.2788,-1.2433,-1.1961,-1.1815,-1.1821,-1.1781,-1.1603,-1.1566,-1.1468,-1.1401,-1.1247,-1.1192,-1.1117,-1.1117,-1.1117,-1.1117,-1.1117,-1.1117,-1.1111,-1.1242,-1.1697,-1.1589,-1.0749,-1.0255,-1.0293,-0.9742,-0.9069,-0.7912,-0.6734,-0.6346,-0.5881,-0.4622,-0.3491,-0.2618,-2.5688,-2.5853,-2.5893,-2.5893,-2.5893,-2.5893,-2.5839,-2.5729,-2.5355,-2.5244,-2.5201,-2.4821,-2.4821,-2.5061,-2.4751,-2.4509,-2.4408,-2.4216,-2.4112,-2.4125,-2.4125,-2.3819,-2.339,-2.2932,-2.2372,-2.1479,-2.0537,-1.9781,-1.9404,-1.964,-1.9931,-2.0389,-2.0855,-2.1133,-2.1425,-2.1436,-2.1369,-2.1138,-2.0974,-2.0819,-2.0576,-2.0411,-2.0098,-1.9371,-1.8487,-1.7585,-1.6698,-1.5831,-1.5514,-1.5431,-1.5431,-1.5431,-1.5431,-1.5431,-1.5347,-1.5173,-1.4908,-1.465,-1.4489,-1.425,-1.4166,-1.4062,-1.3981,-1.3754,-1.354,-1.3367,-1.35,-1.3661,-1.3685,-1.3741,-1.3781,-1.3795,-1.3737,-1.3652,-1.3568,-1.3568,-1.3568,-1.3561,-1.347,-1.322,-1.2883,-1.2569,-1.2332,-1.2004,-1.176,-1.1774,-1.1884,-1.1775,-1.1642,-1.1461,-1.1435,-1.1232,-1.1129,-1.1117,-1.1117,-1.1117,-1.1117,-1.1117,-1.1117,-1.1117,-1.1409,-1.2003,-1.1659,-1.0858,-1.0797,-1.0922,-1.0212,-0.914,-0.8074,-0.7005,-0.6469,-0.5752,-0.4492,-0.3491,-0.2684]}]]